<?xml version="1.0" encoding="UTF-8" standalone="yes"?>
<gpx
 xmlns="http://www.topografix.com/GPX/1/1"
 creator="OziExplorer Version 3956f - http://www.oziexplorer.com"
 version="1.1"
 xmlns:xsi="http://www.w3.org/2001/XMLSchema-instance"
 xsi:schemaLocation="http://www.topografix.com/GPX/1/1 http://www.topografix.com/GPX/1/1/gpx.xsd">
<metadata>
 <time>2022-05-05T04:31:31Z</time>
 <bounds minlat="31.790040" minlon="35.026080" maxlat="31.818820" maxlon="35.125840"/>
</metadata>
<trk>
 <name>NeveILan,31km,700m</name>
 <desc>NeveILan,31km,700m</desc>
<trkseg>
<trkpt lat="31.8180700" lon="35.0260900">
<ele>284.230011</ele>
<time>2022-05-05T07:31:31.531Z</time>
</trkpt>
<trkpt lat="31.8180800" lon="35.0260800">
<ele>284.399994</ele>
<time>2022-05-05T07:31:31.531Z</time>
</trkpt>
<trkpt lat="31.8180000" lon="35.0261000">
<ele>283.350006</ele>
<time>2022-05-05T07:31:31.531Z</time>
</trkpt>
<trkpt lat="31.8178600" lon="35.0261200">
<ele>281.959991</ele>
<time>2022-05-05T07:31:31.531Z</time>
</trkpt>
<trkpt lat="31.8177100" lon="35.0261800">
<ele>281.009979</ele>
<time>2022-05-05T07:31:31.531Z</time>
</trkpt>
<trkpt lat="31.8176700" lon="35.0262500">
<ele>281.220001</ele>
<time>2022-05-05T07:31:31.531Z</time>
</trkpt>
<trkpt lat="31.8176100" lon="35.0264500">
<ele>282.320007</ele>
<time>2022-05-05T07:31:31.531Z</time>
</trkpt>
<trkpt lat="31.8175900" lon="35.0268300">
<ele>283.970001</ele>
<time>2022-05-05T07:31:31.531Z</time>
</trkpt>
<trkpt lat="31.8175300" lon="35.0272500">
<ele>285.589996</ele>
<time>2022-05-05T07:31:31.531Z</time>
</trkpt>
<trkpt lat="31.8175300" lon="35.0281800">
<ele>291.300018</ele>
<time>2022-05-05T07:31:31.531Z</time>
</trkpt>
<trkpt lat="31.8175200" lon="35.0283900">
<ele>291.609985</ele>
<time>2022-05-05T07:31:31.531Z</time>
</trkpt>
<trkpt lat="31.8174400" lon="35.0288000">
<ele>294.140015</ele>
<time>2022-05-05T07:31:31.531Z</time>
</trkpt>
<trkpt lat="31.8173100" lon="35.0292900">
<ele>294.679993</ele>
<time>2022-05-05T07:31:31.531Z</time>
</trkpt>
<trkpt lat="31.8172600" lon="35.0296100">
<ele>294.549988</ele>
<time>2022-05-05T07:31:31.531Z</time>
</trkpt>
<trkpt lat="31.8172600" lon="35.0297500">
<ele>295.440002</ele>
<time>2022-05-05T07:31:31.531Z</time>
</trkpt>
<trkpt lat="31.8173100" lon="35.0300400">
<ele>301.429993</ele>
<time>2022-05-05T07:31:31.531Z</time>
</trkpt>
<trkpt lat="31.8174700" lon="35.0306900">
<ele>307.779999</ele>
<time>2022-05-05T07:31:31.531Z</time>
</trkpt>
<trkpt lat="31.8175100" lon="35.0307500">
<ele>308.269989</ele>
<time>2022-05-05T07:31:31.531Z</time>
</trkpt>
<trkpt lat="31.8175700" lon="35.0308900">
<ele>308.750000</ele>
<time>2022-05-05T07:31:31.531Z</time>
</trkpt>
<trkpt lat="31.8176000" lon="35.0309400">
<ele>308.589996</ele>
<time>2022-05-05T07:31:31.531Z</time>
</trkpt>
<trkpt lat="31.8176800" lon="35.0310700">
<ele>307.679993</ele>
<time>2022-05-05T07:31:31.531Z</time>
</trkpt>
<trkpt lat="31.8177500" lon="35.0311700">
<ele>306.750000</ele>
<time>2022-05-05T07:31:31.531Z</time>
</trkpt>
<trkpt lat="31.8177700" lon="35.0312400">
<ele>305.660004</ele>
<time>2022-05-05T07:31:31.531Z</time>
</trkpt>
<trkpt lat="31.8178200" lon="35.0313900">
<ele>304.670013</ele>
<time>2022-05-05T07:31:31.531Z</time>
</trkpt>
<trkpt lat="31.8179000" lon="35.0316400">
<ele>306.759979</ele>
<time>2022-05-05T07:31:31.531Z</time>
</trkpt>
<trkpt lat="31.8179300" lon="35.0317100">
<ele>307.190002</ele>
<time>2022-05-05T07:31:31.532Z</time>
</trkpt>
<trkpt lat="31.8180900" lon="35.0320900">
<ele>309.419983</ele>
<time>2022-05-05T07:31:31.532Z</time>
</trkpt>
<trkpt lat="31.8181400" lon="35.0323000">
<ele>310.500000</ele>
<time>2022-05-05T07:31:31.532Z</time>
</trkpt>
<trkpt lat="31.8181500" lon="35.0325200">
<ele>309.470001</ele>
<time>2022-05-05T07:31:31.532Z</time>
</trkpt>
<trkpt lat="31.8181600" lon="35.0325800">
<ele>309.949982</ele>
<time>2022-05-05T07:31:31.532Z</time>
</trkpt>
<trkpt lat="31.8182100" lon="35.0328400">
<ele>311.729980</ele>
<time>2022-05-05T07:31:31.532Z</time>
</trkpt>
<trkpt lat="31.8182500" lon="35.0329600">
<ele>312.839996</ele>
<time>2022-05-05T07:31:31.532Z</time>
</trkpt>
<trkpt lat="31.8183400" lon="35.0331000">
<ele>312.789978</ele>
<time>2022-05-05T07:31:31.532Z</time>
</trkpt>
<trkpt lat="31.8183800" lon="35.0331600">
<ele>312.959991</ele>
<time>2022-05-05T07:31:31.532Z</time>
</trkpt>
<trkpt lat="31.8185500" lon="35.0334300">
<ele>313.100006</ele>
<time>2022-05-05T07:31:31.532Z</time>
</trkpt>
<trkpt lat="31.8186000" lon="35.0335600">
<ele>312.440002</ele>
<time>2022-05-05T07:31:31.532Z</time>
</trkpt>
<trkpt lat="31.8186200" lon="35.0336500">
<ele>312.399994</ele>
<time>2022-05-05T07:31:31.533Z</time>
</trkpt>
<trkpt lat="31.8186600" lon="35.0338800">
<ele>313.609985</ele>
<time>2022-05-05T07:31:31.533Z</time>
</trkpt>
<trkpt lat="31.8186800" lon="35.0340600">
<ele>315.470001</ele>
<time>2022-05-05T07:31:31.533Z</time>
</trkpt>
<trkpt lat="31.8187000" lon="35.0342000">
<ele>316.839996</ele>
<time>2022-05-05T07:31:31.533Z</time>
</trkpt>
<trkpt lat="31.8188000" lon="35.0346000">
<ele>320.299988</ele>
<time>2022-05-05T07:31:31.533Z</time>
</trkpt>
<trkpt lat="31.8188200" lon="35.0346900">
<ele>321.049988</ele>
<time>2022-05-05T07:31:31.533Z</time>
</trkpt>
<trkpt lat="31.8187900" lon="35.0348400">
<ele>321.080017</ele>
<time>2022-05-05T07:31:31.533Z</time>
</trkpt>
<trkpt lat="31.8187300" lon="35.0350200">
<ele>320.980011</ele>
<time>2022-05-05T07:31:31.533Z</time>
</trkpt>
<trkpt lat="31.8187100" lon="35.0352200">
<ele>321.839996</ele>
<time>2022-05-05T07:31:31.533Z</time>
</trkpt>
<trkpt lat="31.8187100" lon="35.0352300">
<ele>321.890015</ele>
<time>2022-05-05T07:31:31.533Z</time>
</trkpt>
<trkpt lat="31.8187100" lon="35.0352300">
<ele>321.890015</ele>
<time>2022-05-05T07:31:31.533Z</time>
</trkpt>
<trkpt lat="31.8187100" lon="35.0352400">
<ele>321.940002</ele>
<time>2022-05-05T07:31:31.533Z</time>
</trkpt>
<trkpt lat="31.8187100" lon="35.0352200">
<ele>321.839996</ele>
<time>2022-05-05T07:31:31.533Z</time>
</trkpt>
<trkpt lat="31.8187300" lon="35.0350200">
<ele>320.980011</ele>
<time>2022-05-05T07:31:31.533Z</time>
</trkpt>
<trkpt lat="31.8187900" lon="35.0348400">
<ele>321.080017</ele>
<time>2022-05-05T07:31:31.533Z</time>
</trkpt>
<trkpt lat="31.8188200" lon="35.0346900">
<ele>321.049988</ele>
<time>2022-05-05T07:31:31.533Z</time>
</trkpt>
<trkpt lat="31.8188000" lon="35.0348300">
<ele>321.160004</ele>
<time>2022-05-05T07:31:31.533Z</time>
</trkpt>
<trkpt lat="31.8187600" lon="35.0349300">
<ele>320.960022</ele>
<time>2022-05-05T07:31:31.533Z</time>
</trkpt>
<trkpt lat="31.8186400" lon="35.0351200">
<ele>320.390015</ele>
<time>2022-05-05T07:31:31.533Z</time>
</trkpt>
<trkpt lat="31.8185000" lon="35.0355100">
<ele>323.839996</ele>
<time>2022-05-05T07:31:31.533Z</time>
</trkpt>
<trkpt lat="31.8184600" lon="35.0362200">
<ele>321.579987</ele>
<time>2022-05-05T07:31:31.533Z</time>
</trkpt>
<trkpt lat="31.8182200" lon="35.0369500">
<ele>325.270020</ele>
<time>2022-05-05T07:31:31.533Z</time>
</trkpt>
<trkpt lat="31.8181800" lon="35.0371900">
<ele>329.929993</ele>
<time>2022-05-05T07:31:31.533Z</time>
</trkpt>
<trkpt lat="31.8180800" lon="35.0373500">
<ele>325.750000</ele>
<time>2022-05-05T07:31:31.533Z</time>
</trkpt>
<trkpt lat="31.8180200" lon="35.0375300">
<ele>321.200012</ele>
<time>2022-05-05T07:31:31.533Z</time>
</trkpt>
<trkpt lat="31.8178900" lon="35.0377100">
<ele>320.879974</ele>
<time>2022-05-05T07:31:31.533Z</time>
</trkpt>
<trkpt lat="31.8177500" lon="35.0378300">
<ele>319.609985</ele>
<time>2022-05-05T07:31:31.533Z</time>
</trkpt>
<trkpt lat="31.8174800" lon="35.0380400">
<ele>323.220001</ele>
<time>2022-05-05T07:31:31.533Z</time>
</trkpt>
<trkpt lat="31.8173000" lon="35.0382500">
<ele>328.979980</ele>
<time>2022-05-05T07:31:31.533Z</time>
</trkpt>
<trkpt lat="31.8171200" lon="35.0385800">
<ele>334.619995</ele>
<time>2022-05-05T07:31:31.533Z</time>
</trkpt>
<trkpt lat="31.8169500" lon="35.0389500">
<ele>334.079987</ele>
<time>2022-05-05T07:31:31.533Z</time>
</trkpt>
<trkpt lat="31.8168500" lon="35.0392200">
<ele>337.070007</ele>
<time>2022-05-05T07:31:31.533Z</time>
</trkpt>
<trkpt lat="31.8162200" lon="35.0416300">
<ele>361.459991</ele>
<time>2022-05-05T07:31:31.533Z</time>
</trkpt>
<trkpt lat="31.8161300" lon="35.0418900">
<ele>361.960022</ele>
<time>2022-05-05T07:31:31.533Z</time>
</trkpt>
<trkpt lat="31.8159500" lon="35.0424700">
<ele>368.670013</ele>
<time>2022-05-05T07:31:31.533Z</time>
</trkpt>
<trkpt lat="31.8158900" lon="35.0426100">
<ele>369.209991</ele>
<time>2022-05-05T07:31:31.533Z</time>
</trkpt>
<trkpt lat="31.8156200" lon="35.0430500">
<ele>369.160004</ele>
<time>2022-05-05T07:31:31.533Z</time>
</trkpt>
<trkpt lat="31.8155600" lon="35.0431900">
<ele>367.620026</ele>
<time>2022-05-05T07:31:31.533Z</time>
</trkpt>
<trkpt lat="31.8155400" lon="35.0433200">
<ele>367.050018</ele>
<time>2022-05-05T07:31:31.533Z</time>
</trkpt>
<trkpt lat="31.8155500" lon="35.0435200">
<ele>367.700012</ele>
<time>2022-05-05T07:31:31.533Z</time>
</trkpt>
<trkpt lat="31.8155800" lon="35.0437400">
<ele>369.470001</ele>
<time>2022-05-05T07:31:31.533Z</time>
</trkpt>
<trkpt lat="31.8156400" lon="35.0440800">
<ele>372.440002</ele>
<time>2022-05-05T07:31:31.533Z</time>
</trkpt>
<trkpt lat="31.8156600" lon="35.0442200">
<ele>373.059998</ele>
<time>2022-05-05T07:31:31.533Z</time>
</trkpt>
<trkpt lat="31.8156900" lon="35.0447700">
<ele>374.019989</ele>
<time>2022-05-05T07:31:31.533Z</time>
</trkpt>
<trkpt lat="31.8157700" lon="35.0452500">
<ele>377.100006</ele>
<time>2022-05-05T07:31:31.533Z</time>
</trkpt>
<trkpt lat="31.8157800" lon="35.0454700">
<ele>377.790009</ele>
<time>2022-05-05T07:31:31.533Z</time>
</trkpt>
<trkpt lat="31.8157300" lon="35.0457100">
<ele>378.600006</ele>
<time>2022-05-05T07:31:31.533Z</time>
</trkpt>
<trkpt lat="31.8157000" lon="35.0458000">
<ele>378.820007</ele>
<time>2022-05-05T07:31:31.533Z</time>
</trkpt>
<trkpt lat="31.8156800" lon="35.0458500">
<ele>378.889984</ele>
<time>2022-05-05T07:31:31.533Z</time>
</trkpt>
<trkpt lat="31.8154700" lon="35.0465500">
<ele>380.079987</ele>
<time>2022-05-05T07:31:31.533Z</time>
</trkpt>
<trkpt lat="31.8153200" lon="35.0468300">
<ele>378.239990</ele>
<time>2022-05-05T07:31:31.535Z</time>
</trkpt>
<trkpt lat="31.8150400" lon="35.0470600">
<ele>378.830017</ele>
<time>2022-05-05T07:31:31.535Z</time>
</trkpt>
<trkpt lat="31.8147600" lon="35.0472900">
<ele>385.250000</ele>
<time>2022-05-05T07:31:31.535Z</time>
</trkpt>
<trkpt lat="31.8137000" lon="35.0484700">
<ele>388.800018</ele>
<time>2022-05-05T07:31:31.535Z</time>
</trkpt>
<trkpt lat="31.8135100" lon="35.0486300">
<ele>387.279999</ele>
<time>2022-05-05T07:31:31.535Z</time>
</trkpt>
<trkpt lat="31.8133000" lon="35.0488400">
<ele>386.719971</ele>
<time>2022-05-05T07:31:31.535Z</time>
</trkpt>
<trkpt lat="31.8131900" lon="35.0490000">
<ele>386.960022</ele>
<time>2022-05-05T07:31:31.535Z</time>
</trkpt>
<trkpt lat="31.8128300" lon="35.0497400">
<ele>388.559998</ele>
<time>2022-05-05T07:31:31.535Z</time>
</trkpt>
<trkpt lat="31.8126500" lon="35.0501700">
<ele>397.500031</ele>
<time>2022-05-05T07:31:31.535Z</time>
</trkpt>
<trkpt lat="31.8125600" lon="35.0506800">
<ele>408.450012</ele>
<time>2022-05-05T07:31:31.535Z</time>
</trkpt>
<trkpt lat="31.8125600" lon="35.0509800">
<ele>409.239990</ele>
<time>2022-05-05T07:31:31.535Z</time>
</trkpt>
<trkpt lat="31.8125500" lon="35.0511400">
<ele>409.919983</ele>
<time>2022-05-05T07:31:31.535Z</time>
</trkpt>
<trkpt lat="31.8125100" lon="35.0513100">
<ele>409.100006</ele>
<time>2022-05-05T07:31:31.535Z</time>
</trkpt>
<trkpt lat="31.8124700" lon="35.0515400">
<ele>410.569977</ele>
<time>2022-05-05T07:31:31.535Z</time>
</trkpt>
<trkpt lat="31.8124700" lon="35.0521000">
<ele>417.459991</ele>
<time>2022-05-05T07:31:31.535Z</time>
</trkpt>
<trkpt lat="31.8125300" lon="35.0528000">
<ele>424.500000</ele>
<time>2022-05-05T07:31:31.535Z</time>
</trkpt>
<trkpt lat="31.8125300" lon="35.0529000">
<ele>424.819977</ele>
<time>2022-05-05T07:31:31.535Z</time>
</trkpt>
<trkpt lat="31.8125300" lon="35.0533000">
<ele>425.419983</ele>
<time>2022-05-05T07:31:31.535Z</time>
</trkpt>
<trkpt lat="31.8126000" lon="35.0535600">
<ele>426.369995</ele>
<time>2022-05-05T07:31:31.535Z</time>
</trkpt>
<trkpt lat="31.8126800" lon="35.0536800">
<ele>427.389984</ele>
<time>2022-05-05T07:31:31.535Z</time>
</trkpt>
<trkpt lat="31.8127800" lon="35.0537600">
<ele>428.700012</ele>
<time>2022-05-05T07:31:31.535Z</time>
</trkpt>
<trkpt lat="31.8129400" lon="35.0538700">
<ele>434.279999</ele>
<time>2022-05-05T07:31:31.535Z</time>
</trkpt>
<trkpt lat="31.8131200" lon="35.0540400">
<ele>439.889984</ele>
<time>2022-05-05T07:31:31.535Z</time>
</trkpt>
<trkpt lat="31.8133300" lon="35.0544800">
<ele>435.730011</ele>
<time>2022-05-05T07:31:31.535Z</time>
</trkpt>
<trkpt lat="31.8134900" lon="35.0547500">
<ele>440.449982</ele>
<time>2022-05-05T07:31:31.535Z</time>
</trkpt>
<trkpt lat="31.8136700" lon="35.0551100">
<ele>438.640015</ele>
<time>2022-05-05T07:31:31.535Z</time>
</trkpt>
<trkpt lat="31.8139100" lon="35.0554500">
<ele>442.709991</ele>
<time>2022-05-05T07:31:31.536Z</time>
</trkpt>
<trkpt lat="31.8139300" lon="35.0555400">
<ele>443.269989</ele>
<time>2022-05-05T07:31:31.536Z</time>
</trkpt>
<trkpt lat="31.8139000" lon="35.0556400">
<ele>440.770020</ele>
<time>2022-05-05T07:31:31.536Z</time>
</trkpt>
<trkpt lat="31.8138100" lon="35.0558400">
<ele>439.499969</ele>
<time>2022-05-05T07:31:31.536Z</time>
</trkpt>
<trkpt lat="31.8136800" lon="35.0571100">
<ele>447.049988</ele>
<time>2022-05-05T07:31:31.536Z</time>
</trkpt>
<trkpt lat="31.8137500" lon="35.0576700">
<ele>448.889984</ele>
<time>2022-05-05T07:31:31.536Z</time>
</trkpt>
<trkpt lat="31.8137900" lon="35.0584100">
<ele>452.179993</ele>
<time>2022-05-05T07:31:31.536Z</time>
</trkpt>
<trkpt lat="31.8137900" lon="35.0587100">
<ele>455.139984</ele>
<time>2022-05-05T07:31:31.536Z</time>
</trkpt>
<trkpt lat="31.8137400" lon="35.0590200">
<ele>461.729980</ele>
<time>2022-05-05T07:31:31.536Z</time>
</trkpt>
<trkpt lat="31.8136400" lon="35.0593600">
<ele>456.750031</ele>
<time>2022-05-05T07:31:31.536Z</time>
</trkpt>
<trkpt lat="31.8135900" lon="35.0594900">
<ele>452.590027</ele>
<time>2022-05-05T07:31:31.536Z</time>
</trkpt>
<trkpt lat="31.8135600" lon="35.0595400">
<ele>453.230011</ele>
<time>2022-05-05T07:31:31.536Z</time>
</trkpt>
<trkpt lat="31.8133900" lon="35.0597400">
<ele>455.029999</ele>
<time>2022-05-05T07:31:31.536Z</time>
</trkpt>
<trkpt lat="31.8133200" lon="35.0598100">
<ele>456.470001</ele>
<time>2022-05-05T07:31:31.536Z</time>
</trkpt>
<trkpt lat="31.8132400" lon="35.0599500">
<ele>459.899994</ele>
<time>2022-05-05T07:31:31.536Z</time>
</trkpt>
<trkpt lat="31.8130700" lon="35.0604700">
<ele>462.799988</ele>
<time>2022-05-05T07:31:31.536Z</time>
</trkpt>
<trkpt lat="31.8130500" lon="35.0605300">
<ele>462.959991</ele>
<time>2022-05-05T07:31:31.536Z</time>
</trkpt>
<trkpt lat="31.8127900" lon="35.0608700">
<ele>462.750000</ele>
<time>2022-05-05T07:31:31.536Z</time>
</trkpt>
<trkpt lat="31.8126800" lon="35.0610500">
<ele>463.160004</ele>
<time>2022-05-05T07:31:31.536Z</time>
</trkpt>
<trkpt lat="31.8125600" lon="35.0612700">
<ele>462.059998</ele>
<time>2022-05-05T07:31:31.536Z</time>
</trkpt>
<trkpt lat="31.8124900" lon="35.0614600">
<ele>461.070007</ele>
<time>2022-05-05T07:31:31.536Z</time>
</trkpt>
<trkpt lat="31.8123700" lon="35.0616800">
<ele>465.300018</ele>
<time>2022-05-05T07:31:31.536Z</time>
</trkpt>
<trkpt lat="31.8122400" lon="35.0619000">
<ele>463.880005</ele>
<time>2022-05-05T07:31:31.536Z</time>
</trkpt>
<trkpt lat="31.8121300" lon="35.0620800">
<ele>466.630005</ele>
<time>2022-05-05T07:31:31.536Z</time>
</trkpt>
<trkpt lat="31.8120900" lon="35.0621200">
<ele>466.850006</ele>
<time>2022-05-05T07:31:31.537Z</time>
</trkpt>
<trkpt lat="31.8119100" lon="35.0623000">
<ele>464.360016</ele>
<time>2022-05-05T07:31:31.537Z</time>
</trkpt>
<trkpt lat="31.8118400" lon="35.0623500">
<ele>465.279999</ele>
<time>2022-05-05T07:31:31.537Z</time>
</trkpt>
<trkpt lat="31.8117800" lon="35.0623800">
<ele>465.980011</ele>
<time>2022-05-05T07:31:31.537Z</time>
</trkpt>
<trkpt lat="31.8116300" lon="35.0624600">
<ele>467.450012</ele>
<time>2022-05-05T07:31:31.537Z</time>
</trkpt>
<trkpt lat="31.8114500" lon="35.0625900">
<ele>469.959991</ele>
<time>2022-05-05T07:31:31.537Z</time>
</trkpt>
<trkpt lat="31.8112000" lon="35.0628500">
<ele>475.849976</ele>
<time>2022-05-05T07:31:31.537Z</time>
</trkpt>
<trkpt lat="31.8110500" lon="35.0630200">
<ele>478.700012</ele>
<time>2022-05-05T07:31:31.537Z</time>
</trkpt>
<trkpt lat="31.8109500" lon="35.0630800">
<ele>480.869995</ele>
<time>2022-05-05T07:31:31.537Z</time>
</trkpt>
<trkpt lat="31.8107100" lon="35.0632400">
<ele>482.579987</ele>
<time>2022-05-05T07:31:31.537Z</time>
</trkpt>
<trkpt lat="31.8105800" lon="35.0633600">
<ele>481.879974</ele>
<time>2022-05-05T07:31:31.537Z</time>
</trkpt>
<trkpt lat="31.8103800" lon="35.0636100">
<ele>482.090027</ele>
<time>2022-05-05T07:31:31.537Z</time>
</trkpt>
<trkpt lat="31.8100200" lon="35.0642000">
<ele>486.110016</ele>
<time>2022-05-05T07:31:31.537Z</time>
</trkpt>
<trkpt lat="31.8096800" lon="35.0646100">
<ele>489.429993</ele>
<time>2022-05-05T07:31:31.537Z</time>
</trkpt>
<trkpt lat="31.8094200" lon="35.0650600">
<ele>496.339996</ele>
<time>2022-05-05T07:31:31.537Z</time>
</trkpt>
<trkpt lat="31.8093200" lon="35.0652500">
<ele>497.030029</ele>
<time>2022-05-05T07:31:31.537Z</time>
</trkpt>
<trkpt lat="31.8092400" lon="35.0653700">
<ele>497.209991</ele>
<time>2022-05-05T07:31:31.537Z</time>
</trkpt>
<trkpt lat="31.8091800" lon="35.0655800">
<ele>495.700012</ele>
<time>2022-05-05T07:31:31.537Z</time>
</trkpt>
<trkpt lat="31.8091100" lon="35.0657300">
<ele>495.539978</ele>
<time>2022-05-05T07:31:31.537Z</time>
</trkpt>
<trkpt lat="31.8090500" lon="35.0658400">
<ele>495.989990</ele>
<time>2022-05-05T07:31:31.537Z</time>
</trkpt>
<trkpt lat="31.8089200" lon="35.0662700">
<ele>500.759979</ele>
<time>2022-05-05T07:31:31.537Z</time>
</trkpt>
<trkpt lat="31.8087500" lon="35.0665300">
<ele>502.750000</ele>
<time>2022-05-05T07:31:31.538Z</time>
</trkpt>
<trkpt lat="31.8086600" lon="35.0667300">
<ele>502.299988</ele>
<time>2022-05-05T07:31:31.538Z</time>
</trkpt>
<trkpt lat="31.8085300" lon="35.0668600">
<ele>503.140015</ele>
<time>2022-05-05T07:31:31.538Z</time>
</trkpt>
<trkpt lat="31.8084000" lon="35.0672900">
<ele>505.729980</ele>
<time>2022-05-05T07:31:31.538Z</time>
</trkpt>
<trkpt lat="31.8082400" lon="35.0677100">
<ele>503.309998</ele>
<time>2022-05-05T07:31:31.538Z</time>
</trkpt>
<trkpt lat="31.8081900" lon="35.0678300">
<ele>501.990021</ele>
<time>2022-05-05T07:31:31.538Z</time>
</trkpt>
<trkpt lat="31.8080500" lon="35.0679900">
<ele>498.329987</ele>
<time>2022-05-05T07:31:31.538Z</time>
</trkpt>
<trkpt lat="31.8079500" lon="35.0681400">
<ele>501.069977</ele>
<time>2022-05-05T07:31:31.538Z</time>
</trkpt>
<trkpt lat="31.8077700" lon="35.0686800">
<ele>506.350006</ele>
<time>2022-05-05T07:31:31.538Z</time>
</trkpt>
<trkpt lat="31.8076100" lon="35.0690000">
<ele>510.799988</ele>
<time>2022-05-05T07:31:31.538Z</time>
</trkpt>
<trkpt lat="31.8075900" lon="35.0690600">
<ele>511.869995</ele>
<time>2022-05-05T07:31:31.538Z</time>
</trkpt>
<trkpt lat="31.8075400" lon="35.0692000">
<ele>513.460022</ele>
<time>2022-05-05T07:31:31.538Z</time>
</trkpt>
<trkpt lat="31.8074300" lon="35.0696400">
<ele>517.169983</ele>
<time>2022-05-05T07:31:31.538Z</time>
</trkpt>
<trkpt lat="31.8074100" lon="35.0697600">
<ele>518.429993</ele>
<time>2022-05-05T07:31:31.538Z</time>
</trkpt>
<trkpt lat="31.8073200" lon="35.0700400">
<ele>520.559998</ele>
<time>2022-05-05T07:31:31.538Z</time>
</trkpt>
<trkpt lat="31.8071600" lon="35.0703000">
<ele>519.469971</ele>
<time>2022-05-05T07:31:31.538Z</time>
</trkpt>
<trkpt lat="31.8070800" lon="35.0703900">
<ele>519.809998</ele>
<time>2022-05-05T07:31:31.538Z</time>
</trkpt>
<trkpt lat="31.8069900" lon="35.0705000">
<ele>519.469971</ele>
<time>2022-05-05T07:31:31.539Z</time>
</trkpt>
<trkpt lat="31.8069300" lon="35.0705400">
<ele>519.229980</ele>
<time>2022-05-05T07:31:31.539Z</time>
</trkpt>
<trkpt lat="31.8068100" lon="35.0705800">
<ele>520.059998</ele>
<time>2022-05-05T07:31:31.539Z</time>
</trkpt>
<trkpt lat="31.8066400" lon="35.0707200">
<ele>520.890015</ele>
<time>2022-05-05T07:31:31.539Z</time>
</trkpt>
<trkpt lat="31.8065200" lon="35.0707800">
<ele>522.280029</ele>
<time>2022-05-05T07:31:31.539Z</time>
</trkpt>
<trkpt lat="31.8064700" lon="35.0708500">
<ele>522.130005</ele>
<time>2022-05-05T07:31:31.539Z</time>
</trkpt>
<trkpt lat="31.8063000" lon="35.0711400">
<ele>523.130005</ele>
<time>2022-05-05T07:31:31.539Z</time>
</trkpt>
<trkpt lat="31.8061400" lon="35.0713600">
<ele>526.659973</ele>
<time>2022-05-05T07:31:31.539Z</time>
</trkpt>
<trkpt lat="31.8061100" lon="35.0714100">
<ele>527.179993</ele>
<time>2022-05-05T07:31:31.539Z</time>
</trkpt>
<trkpt lat="31.8058200" lon="35.0718100">
<ele>533.010010</ele>
<time>2022-05-05T07:31:31.539Z</time>
</trkpt>
<trkpt lat="31.8057000" lon="35.0719500">
<ele>531.950012</ele>
<time>2022-05-05T07:31:31.539Z</time>
</trkpt>
<trkpt lat="31.8053900" lon="35.0722500">
<ele>530.160034</ele>
<time>2022-05-05T07:31:31.539Z</time>
</trkpt>
<trkpt lat="31.8052500" lon="35.0723800">
<ele>533.909973</ele>
<time>2022-05-05T07:31:31.539Z</time>
</trkpt>
<trkpt lat="31.8051300" lon="35.0724900">
<ele>536.979980</ele>
<time>2022-05-05T07:31:31.539Z</time>
</trkpt>
<trkpt lat="31.8049200" lon="35.0726300">
<ele>538.869995</ele>
<time>2022-05-05T07:31:31.539Z</time>
</trkpt>
<trkpt lat="31.8046600" lon="35.0729100">
<ele>540.309998</ele>
<time>2022-05-05T07:31:31.539Z</time>
</trkpt>
<trkpt lat="31.8044700" lon="35.0730300">
<ele>540.330017</ele>
<time>2022-05-05T07:31:31.539Z</time>
</trkpt>
<trkpt lat="31.8043700" lon="35.0731800">
<ele>538.510010</ele>
<time>2022-05-05T07:31:31.539Z</time>
</trkpt>
<trkpt lat="31.8043000" lon="35.0732500">
<ele>537.739990</ele>
<time>2022-05-05T07:31:31.539Z</time>
</trkpt>
<trkpt lat="31.8042000" lon="35.0733000">
<ele>537.250000</ele>
<time>2022-05-05T07:31:31.539Z</time>
</trkpt>
<trkpt lat="31.8041100" lon="35.0733700">
<ele>537.719971</ele>
<time>2022-05-05T07:31:31.540Z</time>
</trkpt>
<trkpt lat="31.8040600" lon="35.0734300">
<ele>538.409973</ele>
<time>2022-05-05T07:31:31.540Z</time>
</trkpt>
<trkpt lat="31.8039500" lon="35.0735400">
<ele>539.049988</ele>
<time>2022-05-05T07:31:31.540Z</time>
</trkpt>
<trkpt lat="31.8037900" lon="35.0737900">
<ele>543.330017</ele>
<time>2022-05-05T07:31:31.540Z</time>
</trkpt>
<trkpt lat="31.8037300" lon="35.0739000">
<ele>544.500000</ele>
<time>2022-05-05T07:31:31.540Z</time>
</trkpt>
<trkpt lat="31.8036800" lon="35.0740800">
<ele>547.010010</ele>
<time>2022-05-05T07:31:31.540Z</time>
</trkpt>
<trkpt lat="31.8036300" lon="35.0743800">
<ele>547.410034</ele>
<time>2022-05-05T07:31:31.540Z</time>
</trkpt>
<trkpt lat="31.8036800" lon="35.0747200">
<ele>547.250000</ele>
<time>2022-05-05T07:31:31.540Z</time>
</trkpt>
<trkpt lat="31.8037600" lon="35.0750300">
<ele>550.159973</ele>
<time>2022-05-05T07:31:31.540Z</time>
</trkpt>
<trkpt lat="31.8038100" lon="35.0751300">
<ele>550.289978</ele>
<time>2022-05-05T07:31:31.540Z</time>
</trkpt>
<trkpt lat="31.8039300" lon="35.0753200">
<ele>551.229980</ele>
<time>2022-05-05T07:31:31.540Z</time>
</trkpt>
<trkpt lat="31.8040500" lon="35.0756500">
<ele>556.669983</ele>
<time>2022-05-05T07:31:31.540Z</time>
</trkpt>
<trkpt lat="31.8041100" lon="35.0758600">
<ele>558.729980</ele>
<time>2022-05-05T07:31:31.540Z</time>
</trkpt>
<trkpt lat="31.8042600" lon="35.0763200">
<ele>563.940002</ele>
<time>2022-05-05T07:31:31.540Z</time>
</trkpt>
<trkpt lat="31.8044500" lon="35.0768600">
<ele>568.390015</ele>
<time>2022-05-05T07:31:31.540Z</time>
</trkpt>
<trkpt lat="31.8045200" lon="35.0769900">
<ele>568.770020</ele>
<time>2022-05-05T07:31:31.540Z</time>
</trkpt>
<trkpt lat="31.8049300" lon="35.0775700">
<ele>568.809998</ele>
<time>2022-05-05T07:31:31.540Z</time>
</trkpt>
<trkpt lat="31.8049900" lon="35.0777200">
<ele>569.750000</ele>
<time>2022-05-05T07:31:31.540Z</time>
</trkpt>
<trkpt lat="31.8049800" lon="35.0778000">
<ele>570.010010</ele>
<time>2022-05-05T07:31:31.540Z</time>
</trkpt>
<trkpt lat="31.8049000" lon="35.0779900">
<ele>570.400024</ele>
<time>2022-05-05T07:31:31.540Z</time>
</trkpt>
<trkpt lat="31.8047900" lon="35.0785100">
<ele>574.059998</ele>
<time>2022-05-05T07:31:31.540Z</time>
</trkpt>
<trkpt lat="31.8047800" lon="35.0787900">
<ele>575.869995</ele>
<time>2022-05-05T07:31:31.541Z</time>
</trkpt>
<trkpt lat="31.8047700" lon="35.0788500">
<ele>576.380005</ele>
<time>2022-05-05T07:31:31.541Z</time>
</trkpt>
<trkpt lat="31.8047600" lon="35.0789000">
<ele>576.849976</ele>
<time>2022-05-05T07:31:31.541Z</time>
</trkpt>
<trkpt lat="31.8046800" lon="35.0791400">
<ele>580.960022</ele>
<time>2022-05-05T07:31:31.541Z</time>
</trkpt>
<trkpt lat="31.8046400" lon="35.0793000">
<ele>581.799988</ele>
<time>2022-05-05T07:31:31.541Z</time>
</trkpt>
<trkpt lat="31.8045600" lon="35.0801000">
<ele>586.219971</ele>
<time>2022-05-05T07:31:31.541Z</time>
</trkpt>
<trkpt lat="31.8045700" lon="35.0804700">
<ele>584.809998</ele>
<time>2022-05-05T07:31:31.541Z</time>
</trkpt>
<trkpt lat="31.8045500" lon="35.0805600">
<ele>584.029968</ele>
<time>2022-05-05T07:31:31.541Z</time>
</trkpt>
<trkpt lat="31.8043500" lon="35.0810800">
<ele>590.350037</ele>
<time>2022-05-05T07:31:31.541Z</time>
</trkpt>
<trkpt lat="31.8042600" lon="35.0815600">
<ele>594.690002</ele>
<time>2022-05-05T07:31:31.541Z</time>
</trkpt>
<trkpt lat="31.8042000" lon="35.0822100">
<ele>594.320007</ele>
<time>2022-05-05T07:31:31.541Z</time>
</trkpt>
<trkpt lat="31.8041900" lon="35.0825800">
<ele>597.309998</ele>
<time>2022-05-05T07:31:31.541Z</time>
</trkpt>
<trkpt lat="31.8041400" lon="35.0829000">
<ele>598.640015</ele>
<time>2022-05-05T07:31:31.541Z</time>
</trkpt>
<trkpt lat="31.8041300" lon="35.0831400">
<ele>599.700012</ele>
<time>2022-05-05T07:31:31.541Z</time>
</trkpt>
<trkpt lat="31.8039500" lon="35.0839000">
<ele>602.720032</ele>
<time>2022-05-05T07:31:31.541Z</time>
</trkpt>
<trkpt lat="31.8038800" lon="35.0840600">
<ele>602.779968</ele>
<time>2022-05-05T07:31:31.541Z</time>
</trkpt>
<trkpt lat="31.8038200" lon="35.0844100">
<ele>606.190002</ele>
<time>2022-05-05T07:31:31.541Z</time>
</trkpt>
<trkpt lat="31.8038300" lon="35.0846200">
<ele>608.320007</ele>
<time>2022-05-05T07:31:31.541Z</time>
</trkpt>
<trkpt lat="31.8039500" lon="35.0851500">
<ele>619.200012</ele>
<time>2022-05-05T07:31:31.541Z</time>
</trkpt>
<trkpt lat="31.8040300" lon="35.0854500">
<ele>620.989990</ele>
<time>2022-05-05T07:31:31.542Z</time>
</trkpt>
<trkpt lat="31.8040400" lon="35.0855800">
<ele>621.010010</ele>
<time>2022-05-05T07:31:31.542Z</time>
</trkpt>
<trkpt lat="31.8040200" lon="35.0857100">
<ele>620.969971</ele>
<time>2022-05-05T07:31:31.542Z</time>
</trkpt>
<trkpt lat="31.8039100" lon="35.0861200">
<ele>620.570007</ele>
<time>2022-05-05T07:31:31.542Z</time>
</trkpt>
<trkpt lat="31.8038200" lon="35.0863700">
<ele>620.929993</ele>
<time>2022-05-05T07:31:31.542Z</time>
</trkpt>
<trkpt lat="31.8037700" lon="35.0864400">
<ele>621.600037</ele>
<time>2022-05-05T07:31:31.542Z</time>
</trkpt>
<trkpt lat="31.8037100" lon="35.0864900">
<ele>621.880005</ele>
<time>2022-05-05T07:31:31.542Z</time>
</trkpt>
<trkpt lat="31.8035700" lon="35.0865500">
<ele>621.580017</ele>
<time>2022-05-05T07:31:31.542Z</time>
</trkpt>
<trkpt lat="31.8034600" lon="35.0866700">
<ele>622.020020</ele>
<time>2022-05-05T07:31:31.542Z</time>
</trkpt>
<trkpt lat="31.8033700" lon="35.0868900">
<ele>622.909973</ele>
<time>2022-05-05T07:31:31.542Z</time>
</trkpt>
<trkpt lat="31.8033100" lon="35.0872400">
<ele>627.280029</ele>
<time>2022-05-05T07:31:31.542Z</time>
</trkpt>
<trkpt lat="31.8032500" lon="35.0874600">
<ele>631.070007</ele>
<time>2022-05-05T07:31:31.542Z</time>
</trkpt>
<trkpt lat="31.8032100" lon="35.0876600">
<ele>634.359985</ele>
<time>2022-05-05T07:31:31.542Z</time>
</trkpt>
<trkpt lat="31.8032100" lon="35.0877900">
<ele>636.910034</ele>
<time>2022-05-05T07:31:31.542Z</time>
</trkpt>
<trkpt lat="31.8032700" lon="35.0881700">
<ele>643.500000</ele>
<time>2022-05-05T07:31:31.542Z</time>
</trkpt>
<trkpt lat="31.8034200" lon="35.0885400">
<ele>646.960022</ele>
<time>2022-05-05T07:31:31.542Z</time>
</trkpt>
<trkpt lat="31.8034700" lon="35.0888300">
<ele>649.459961</ele>
<time>2022-05-05T07:31:31.542Z</time>
</trkpt>
<trkpt lat="31.8035600" lon="35.0890400">
<ele>651.859985</ele>
<time>2022-05-05T07:31:31.542Z</time>
</trkpt>
<trkpt lat="31.8037000" lon="35.0892000">
<ele>655.760010</ele>
<time>2022-05-05T07:31:31.542Z</time>
</trkpt>
<trkpt lat="31.8038300" lon="35.0892800">
<ele>658.000000</ele>
<time>2022-05-05T07:31:31.543Z</time>
</trkpt>
<trkpt lat="31.8039400" lon="35.0892900">
<ele>660.480042</ele>
<time>2022-05-05T07:31:31.543Z</time>
</trkpt>
<trkpt lat="31.8040900" lon="35.0892600">
<ele>664.640015</ele>
<time>2022-05-05T07:31:31.543Z</time>
</trkpt>
<trkpt lat="31.8041800" lon="35.0892900">
<ele>666.669983</ele>
<time>2022-05-05T07:31:31.543Z</time>
</trkpt>
<trkpt lat="31.8042200" lon="35.0893300">
<ele>666.909973</ele>
<time>2022-05-05T07:31:31.543Z</time>
</trkpt>
<trkpt lat="31.8043500" lon="35.0895800">
<ele>667.329956</ele>
<time>2022-05-05T07:31:31.543Z</time>
</trkpt>
<trkpt lat="31.8044100" lon="35.0896700">
<ele>667.719971</ele>
<time>2022-05-05T07:31:31.543Z</time>
</trkpt>
<trkpt lat="31.8044800" lon="35.0897000">
<ele>668.440002</ele>
<time>2022-05-05T07:31:31.543Z</time>
</trkpt>
<trkpt lat="31.8047000" lon="35.0897500">
<ele>670.550049</ele>
<time>2022-05-05T07:31:31.543Z</time>
</trkpt>
<trkpt lat="31.8048100" lon="35.0897700">
<ele>670.080017</ele>
<time>2022-05-05T07:31:31.543Z</time>
</trkpt>
<trkpt lat="31.8048700" lon="35.0898100">
<ele>669.469971</ele>
<time>2022-05-05T07:31:31.543Z</time>
</trkpt>
<trkpt lat="31.8050000" lon="35.0899600">
<ele>668.139954</ele>
<time>2022-05-05T07:31:31.543Z</time>
</trkpt>
<trkpt lat="31.8050000" lon="35.0899600">
<ele>668.139954</ele>
<time>2022-05-05T07:31:31.543Z</time>
</trkpt>
<trkpt lat="31.8050000" lon="35.0899600">
<ele>668.139954</ele>
<time>2022-05-05T07:31:31.543Z</time>
</trkpt>
<trkpt lat="31.8051100" lon="35.0901000">
<ele>666.599976</ele>
<time>2022-05-05T07:31:31.543Z</time>
</trkpt>
<trkpt lat="31.8052300" lon="35.0902200">
<ele>664.869995</ele>
<time>2022-05-05T07:31:31.543Z</time>
</trkpt>
<trkpt lat="31.8053000" lon="35.0902700">
<ele>664.059998</ele>
<time>2022-05-05T07:31:31.543Z</time>
</trkpt>
<trkpt lat="31.8053800" lon="35.0903100">
<ele>663.830017</ele>
<time>2022-05-05T07:31:31.543Z</time>
</trkpt>
<trkpt lat="31.8054000" lon="35.0903000">
<ele>663.710022</ele>
<time>2022-05-05T07:31:31.543Z</time>
</trkpt>
<trkpt lat="31.8055900" lon="35.0903100">
<ele>663.859985</ele>
<time>2022-05-05T07:31:31.543Z</time>
</trkpt>
<trkpt lat="31.8060200" lon="35.0902200">
<ele>671.589966</ele>
<time>2022-05-05T07:31:31.544Z</time>
</trkpt>
<trkpt lat="31.8060300" lon="35.0901700">
<ele>672.300049</ele>
<time>2022-05-05T07:31:31.544Z</time>
</trkpt>
<trkpt lat="31.8060900" lon="35.0898800">
<ele>676.760010</ele>
<time>2022-05-05T07:31:31.544Z</time>
</trkpt>
<trkpt lat="31.8061500" lon="35.0895700">
<ele>679.279968</ele>
<time>2022-05-05T07:31:31.544Z</time>
</trkpt>
<trkpt lat="31.8061700" lon="35.0894300">
<ele>679.359985</ele>
<time>2022-05-05T07:31:31.544Z</time>
</trkpt>
<trkpt lat="31.8063300" lon="35.0884900">
<ele>672.909973</ele>
<time>2022-05-05T07:31:31.544Z</time>
</trkpt>
<trkpt lat="31.8063300" lon="35.0884900">
<ele>672.909973</ele>
<time>2022-05-05T07:31:31.544Z</time>
</trkpt>
<trkpt lat="31.8063300" lon="35.0884900">
<ele>672.909973</ele>
<time>2022-05-05T07:31:31.544Z</time>
</trkpt>
<trkpt lat="31.8063400" lon="35.0884300">
<ele>672.889954</ele>
<time>2022-05-05T07:31:31.544Z</time>
</trkpt>
<trkpt lat="31.8063500" lon="35.0882600">
<ele>672.559998</ele>
<time>2022-05-05T07:31:31.544Z</time>
</trkpt>
<trkpt lat="31.8063400" lon="35.0882000">
<ele>672.260010</ele>
<time>2022-05-05T07:31:31.544Z</time>
</trkpt>
<trkpt lat="31.8063300" lon="35.0881300">
<ele>671.899963</ele>
<time>2022-05-05T07:31:31.544Z</time>
</trkpt>
<trkpt lat="31.8063100" lon="35.0881000">
<ele>671.639954</ele>
<time>2022-05-05T07:31:31.545Z</time>
</trkpt>
<trkpt lat="31.8063000" lon="35.0880500">
<ele>671.320007</ele>
<time>2022-05-05T07:31:31.545Z</time>
</trkpt>
<trkpt lat="31.8063000" lon="35.0880100">
<ele>671.030029</ele>
<time>2022-05-05T07:31:31.545Z</time>
</trkpt>
<trkpt lat="31.8063100" lon="35.0879800">
<ele>670.890015</ele>
<time>2022-05-05T07:31:31.545Z</time>
</trkpt>
<trkpt lat="31.8063400" lon="35.0879400">
<ele>670.820007</ele>
<time>2022-05-05T07:31:31.545Z</time>
</trkpt>
<trkpt lat="31.8063700" lon="35.0879200">
<ele>670.890015</ele>
<time>2022-05-05T07:31:31.545Z</time>
</trkpt>
<trkpt lat="31.8064100" lon="35.0878400">
<ele>670.569946</ele>
<time>2022-05-05T07:31:31.545Z</time>
</trkpt>
<trkpt lat="31.8064400" lon="35.0877200">
<ele>670.119995</ele>
<time>2022-05-05T07:31:31.545Z</time>
</trkpt>
<trkpt lat="31.8064500" lon="35.0876200">
<ele>669.750000</ele>
<time>2022-05-05T07:31:31.545Z</time>
</trkpt>
<trkpt lat="31.8065000" lon="35.0869100">
<ele>669.549988</ele>
<time>2022-05-05T07:31:31.545Z</time>
</trkpt>
<trkpt lat="31.8065000" lon="35.0868700">
<ele>669.489990</ele>
<time>2022-05-05T07:31:31.545Z</time>
</trkpt>
<trkpt lat="31.8065000" lon="35.0868700">
<ele>669.489990</ele>
<time>2022-05-05T07:31:31.545Z</time>
</trkpt>
<trkpt lat="31.8066100" lon="35.0863400">
<ele>670.589966</ele>
<time>2022-05-05T07:31:31.545Z</time>
</trkpt>
<trkpt lat="31.8067200" lon="35.0858100">
<ele>671.739990</ele>
<time>2022-05-05T07:31:31.545Z</time>
</trkpt>
<trkpt lat="31.8067200" lon="35.0858100">
<ele>671.739990</ele>
<time>2022-05-05T07:31:31.545Z</time>
</trkpt>
<trkpt lat="31.8069400" lon="35.0851200">
<ele>669.850037</ele>
<time>2022-05-05T07:31:31.545Z</time>
</trkpt>
<trkpt lat="31.8069400" lon="35.0851200">
<ele>669.850037</ele>
<time>2022-05-05T07:31:31.545Z</time>
</trkpt>
<trkpt lat="31.8069500" lon="35.0850800">
<ele>669.610046</ele>
<time>2022-05-05T07:31:31.545Z</time>
</trkpt>
<trkpt lat="31.8069800" lon="35.0849500">
<ele>668.739990</ele>
<time>2022-05-05T07:31:31.545Z</time>
</trkpt>
<trkpt lat="31.8070100" lon="35.0848000">
<ele>667.479980</ele>
<time>2022-05-05T07:31:31.546Z</time>
</trkpt>
<trkpt lat="31.8070600" lon="35.0844400">
<ele>664.990051</ele>
<time>2022-05-05T07:31:31.546Z</time>
</trkpt>
<trkpt lat="31.8070800" lon="35.0843900">
<ele>664.899963</ele>
<time>2022-05-05T07:31:31.546Z</time>
</trkpt>
<trkpt lat="31.8071000" lon="35.0843400">
<ele>664.789978</ele>
<time>2022-05-05T07:31:31.546Z</time>
</trkpt>
<trkpt lat="31.8071300" lon="35.0843000">
<ele>664.650024</ele>
<time>2022-05-05T07:31:31.546Z</time>
</trkpt>
<trkpt lat="31.8071500" lon="35.0842700">
<ele>664.539978</ele>
<time>2022-05-05T07:31:31.546Z</time>
</trkpt>
<trkpt lat="31.8071800" lon="35.0842500">
<ele>664.409973</ele>
<time>2022-05-05T07:31:31.546Z</time>
</trkpt>
<trkpt lat="31.8072100" lon="35.0842300">
<ele>664.260010</ele>
<time>2022-05-05T07:31:31.546Z</time>
</trkpt>
<trkpt lat="31.8072200" lon="35.0842000">
<ele>664.130005</ele>
<time>2022-05-05T07:31:31.546Z</time>
</trkpt>
<trkpt lat="31.8072300" lon="35.0841600">
<ele>664.019958</ele>
<time>2022-05-05T07:31:31.546Z</time>
</trkpt>
<trkpt lat="31.8072300" lon="35.0841200">
<ele>664.279968</ele>
<time>2022-05-05T07:31:31.546Z</time>
</trkpt>
<trkpt lat="31.8072100" lon="35.0840900">
<ele>664.609985</ele>
<time>2022-05-05T07:31:31.546Z</time>
</trkpt>
<trkpt lat="31.8072000" lon="35.0839900">
<ele>665.399963</ele>
<time>2022-05-05T07:31:31.546Z</time>
</trkpt>
<trkpt lat="31.8072100" lon="35.0838900">
<ele>666.079956</ele>
<time>2022-05-05T07:31:31.546Z</time>
</trkpt>
<trkpt lat="31.8072800" lon="35.0836400">
<ele>666.920044</ele>
<time>2022-05-05T07:31:31.546Z</time>
</trkpt>
<trkpt lat="31.8072900" lon="35.0835700">
<ele>667.619995</ele>
<time>2022-05-05T07:31:31.546Z</time>
</trkpt>
<trkpt lat="31.8073900" lon="35.0831900">
<ele>671.239990</ele>
<time>2022-05-05T07:31:31.546Z</time>
</trkpt>
<trkpt lat="31.8074500" lon="35.0830100">
<ele>672.789978</ele>
<time>2022-05-05T07:31:31.546Z</time>
</trkpt>
<trkpt lat="31.8074900" lon="35.0829300">
<ele>673.400024</ele>
<time>2022-05-05T07:31:31.547Z</time>
</trkpt>
<trkpt lat="31.8075500" lon="35.0827700">
<ele>675.709961</ele>
<time>2022-05-05T07:31:31.547Z</time>
</trkpt>
<trkpt lat="31.8076800" lon="35.0825300">
<ele>676.440002</ele>
<time>2022-05-05T07:31:31.547Z</time>
</trkpt>
<trkpt lat="31.8077400" lon="35.0824300">
<ele>676.039978</ele>
<time>2022-05-05T07:31:31.547Z</time>
</trkpt>
<trkpt lat="31.8078100" lon="35.0823100">
<ele>675.410034</ele>
<time>2022-05-05T07:31:31.547Z</time>
</trkpt>
<trkpt lat="31.8078100" lon="35.0823100">
<ele>675.410034</ele>
<time>2022-05-05T07:31:31.547Z</time>
</trkpt>
<trkpt lat="31.8078100" lon="35.0823000">
<ele>675.289978</ele>
<time>2022-05-05T07:31:31.547Z</time>
</trkpt>
<trkpt lat="31.8079100" lon="35.0821700">
<ele>675.339966</ele>
<time>2022-05-05T07:31:31.547Z</time>
</trkpt>
<trkpt lat="31.8081300" lon="35.0818700">
<ele>675.179993</ele>
<time>2022-05-05T07:31:31.547Z</time>
</trkpt>
<trkpt lat="31.8086200" lon="35.0812300">
<ele>662.830017</ele>
<time>2022-05-05T07:31:31.547Z</time>
</trkpt>
<trkpt lat="31.8090800" lon="35.0806400">
<ele>657.939941</ele>
<time>2022-05-05T07:31:31.547Z</time>
</trkpt>
<trkpt lat="31.8094900" lon="35.0800700">
<ele>651.880005</ele>
<time>2022-05-05T07:31:31.547Z</time>
</trkpt>
<trkpt lat="31.8095200" lon="35.0800200">
<ele>651.469971</ele>
<time>2022-05-05T07:31:31.547Z</time>
</trkpt>
<trkpt lat="31.8096000" lon="35.0799100">
<ele>651.240051</ele>
<time>2022-05-05T07:31:31.547Z</time>
</trkpt>
<trkpt lat="31.8096300" lon="35.0798900">
<ele>651.270020</ele>
<time>2022-05-05T07:31:31.547Z</time>
</trkpt>
<trkpt lat="31.8097600" lon="35.0797300">
<ele>651.030029</ele>
<time>2022-05-05T07:31:31.547Z</time>
</trkpt>
<trkpt lat="31.8098400" lon="35.0796300">
<ele>650.619995</ele>
<time>2022-05-05T07:31:31.547Z</time>
</trkpt>
<trkpt lat="31.8098800" lon="35.0795900">
<ele>650.590027</ele>
<time>2022-05-05T07:31:31.547Z</time>
</trkpt>
<trkpt lat="31.8099500" lon="35.0795200">
<ele>650.739990</ele>
<time>2022-05-05T07:31:31.548Z</time>
</trkpt>
<trkpt lat="31.8100200" lon="35.0794500">
<ele>650.789978</ele>
<time>2022-05-05T07:31:31.548Z</time>
</trkpt>
<trkpt lat="31.8100200" lon="35.0794500">
<ele>650.789978</ele>
<time>2022-05-05T07:31:31.548Z</time>
</trkpt>
<trkpt lat="31.8100500" lon="35.0794100">
<ele>650.130005</ele>
<time>2022-05-05T07:31:31.548Z</time>
</trkpt>
<trkpt lat="31.8100900" lon="35.0793700">
<ele>649.399963</ele>
<time>2022-05-05T07:31:31.548Z</time>
</trkpt>
<trkpt lat="31.8101200" lon="35.0793100">
<ele>648.669983</ele>
<time>2022-05-05T07:31:31.548Z</time>
</trkpt>
<trkpt lat="31.8101400" lon="35.0792600">
<ele>648.169983</ele>
<time>2022-05-05T07:31:31.548Z</time>
</trkpt>
<trkpt lat="31.8101500" lon="35.0792100">
<ele>647.759949</ele>
<time>2022-05-05T07:31:31.548Z</time>
</trkpt>
<trkpt lat="31.8101500" lon="35.0791600">
<ele>647.419983</ele>
<time>2022-05-05T07:31:31.548Z</time>
</trkpt>
<trkpt lat="31.8101400" lon="35.0791200">
<ele>647.239990</ele>
<time>2022-05-05T07:31:31.548Z</time>
</trkpt>
<trkpt lat="31.8101200" lon="35.0790700">
<ele>647.020020</ele>
<time>2022-05-05T07:31:31.548Z</time>
</trkpt>
<trkpt lat="31.8101000" lon="35.0790300">
<ele>646.830017</ele>
<time>2022-05-05T07:31:31.548Z</time>
</trkpt>
<trkpt lat="31.8100700" lon="35.0789900">
<ele>646.639954</ele>
<time>2022-05-05T07:31:31.548Z</time>
</trkpt>
<trkpt lat="31.8095700" lon="35.0784900">
<ele>645.929993</ele>
<time>2022-05-05T07:31:31.548Z</time>
</trkpt>
<trkpt lat="31.8094700" lon="35.0783800">
<ele>644.109985</ele>
<time>2022-05-05T07:31:31.548Z</time>
</trkpt>
<trkpt lat="31.8094400" lon="35.0783300">
<ele>642.929993</ele>
<time>2022-05-05T07:31:31.548Z</time>
</trkpt>
<trkpt lat="31.8094200" lon="35.0782600">
<ele>642.010010</ele>
<time>2022-05-05T07:31:31.548Z</time>
</trkpt>
<trkpt lat="31.8094200" lon="35.0781900">
<ele>641.229980</ele>
<time>2022-05-05T07:31:31.548Z</time>
</trkpt>
<trkpt lat="31.8094200" lon="35.0781600">
<ele>640.899963</ele>
<time>2022-05-05T07:31:31.548Z</time>
</trkpt>
<trkpt lat="31.8094100" lon="35.0781100">
<ele>640.239990</ele>
<time>2022-05-05T07:31:31.548Z</time>
</trkpt>
<trkpt lat="31.8094000" lon="35.0780600">
<ele>639.569946</ele>
<time>2022-05-05T07:31:31.548Z</time>
</trkpt>
<trkpt lat="31.8094000" lon="35.0780200">
<ele>639.109985</ele>
<time>2022-05-05T07:31:31.548Z</time>
</trkpt>
<trkpt lat="31.8094000" lon="35.0779700">
<ele>638.530029</ele>
<time>2022-05-05T07:31:31.549Z</time>
</trkpt>
<trkpt lat="31.8094200" lon="35.0779200">
<ele>638.000000</ele>
<time>2022-05-05T07:31:31.549Z</time>
</trkpt>
<trkpt lat="31.8095400" lon="35.0776700">
<ele>635.259949</ele>
<time>2022-05-05T07:31:31.549Z</time>
</trkpt>
<trkpt lat="31.8095600" lon="35.0775800">
<ele>634.700012</ele>
<time>2022-05-05T07:31:31.549Z</time>
</trkpt>
<trkpt lat="31.8095700" lon="35.0775400">
<ele>634.390015</ele>
<time>2022-05-05T07:31:31.549Z</time>
</trkpt>
<trkpt lat="31.8095900" lon="35.0774100">
<ele>633.559998</ele>
<time>2022-05-05T07:31:31.549Z</time>
</trkpt>
<trkpt lat="31.8096000" lon="35.0772700">
<ele>632.830017</ele>
<time>2022-05-05T07:31:31.549Z</time>
</trkpt>
<trkpt lat="31.8095300" lon="35.0762400">
<ele>626.370056</ele>
<time>2022-05-05T07:31:31.549Z</time>
</trkpt>
<trkpt lat="31.8095300" lon="35.0762400">
<ele>626.370056</ele>
<time>2022-05-05T07:31:31.549Z</time>
</trkpt>
<trkpt lat="31.8095300" lon="35.0762400">
<ele>626.370056</ele>
<time>2022-05-05T07:31:31.549Z</time>
</trkpt>
<trkpt lat="31.8095200" lon="35.0760200">
<ele>624.950012</ele>
<time>2022-05-05T07:31:31.549Z</time>
</trkpt>
<trkpt lat="31.8095700" lon="35.0758400">
<ele>622.869995</ele>
<time>2022-05-05T07:31:31.549Z</time>
</trkpt>
<trkpt lat="31.8097300" lon="35.0758500">
<ele>619.030029</ele>
<time>2022-05-05T07:31:31.549Z</time>
</trkpt>
<trkpt lat="31.8098300" lon="35.0758600">
<ele>617.950012</ele>
<time>2022-05-05T07:31:31.549Z</time>
</trkpt>
<trkpt lat="31.8100300" lon="35.0760300">
<ele>615.880005</ele>
<time>2022-05-05T07:31:31.550Z</time>
</trkpt>
<trkpt lat="31.8101600" lon="35.0763200">
<ele>616.239990</ele>
<time>2022-05-05T07:31:31.550Z</time>
</trkpt>
<trkpt lat="31.8102400" lon="35.0763600">
<ele>615.409973</ele>
<time>2022-05-05T07:31:31.550Z</time>
</trkpt>
<trkpt lat="31.8103100" lon="35.0763900">
<ele>614.660034</ele>
<time>2022-05-05T07:31:31.550Z</time>
</trkpt>
<trkpt lat="31.8103300" lon="35.0765700">
<ele>616.150024</ele>
<time>2022-05-05T07:31:31.550Z</time>
</trkpt>
<trkpt lat="31.8103300" lon="35.0771000">
<ele>622.460022</ele>
<time>2022-05-05T07:31:31.550Z</time>
</trkpt>
<trkpt lat="31.8105300" lon="35.0775200">
<ele>631.210022</ele>
<time>2022-05-05T07:31:31.550Z</time>
</trkpt>
<trkpt lat="31.8111600" lon="35.0780600">
<ele>622.479980</ele>
<time>2022-05-05T07:31:31.550Z</time>
</trkpt>
<trkpt lat="31.8113300" lon="35.0782100">
<ele>619.130005</ele>
<time>2022-05-05T07:31:31.550Z</time>
</trkpt>
<trkpt lat="31.8115300" lon="35.0784500">
<ele>617.209961</ele>
<time>2022-05-05T07:31:31.550Z</time>
</trkpt>
<trkpt lat="31.8117100" lon="35.0787600">
<ele>617.289978</ele>
<time>2022-05-05T07:31:31.550Z</time>
</trkpt>
<trkpt lat="31.8117600" lon="35.0787300">
<ele>615.839966</ele>
<time>2022-05-05T07:31:31.550Z</time>
</trkpt>
<trkpt lat="31.8117800" lon="35.0785700">
<ele>612.989990</ele>
<time>2022-05-05T07:31:31.550Z</time>
</trkpt>
<trkpt lat="31.8118700" lon="35.0785600">
<ele>610.789978</ele>
<time>2022-05-05T07:31:31.550Z</time>
</trkpt>
<trkpt lat="31.8122100" lon="35.0789500">
<ele>608.739990</ele>
<time>2022-05-05T07:31:31.550Z</time>
</trkpt>
<trkpt lat="31.8126700" lon="35.0793500">
<ele>602.489990</ele>
<time>2022-05-05T07:31:31.550Z</time>
</trkpt>
<trkpt lat="31.8127100" lon="35.0795100">
<ele>601.369995</ele>
<time>2022-05-05T07:31:31.551Z</time>
</trkpt>
<trkpt lat="31.8125500" lon="35.0798800">
<ele>596.520020</ele>
<time>2022-05-05T07:31:31.551Z</time>
</trkpt>
<trkpt lat="31.8126100" lon="35.0800000">
<ele>593.419983</ele>
<time>2022-05-05T07:31:31.551Z</time>
</trkpt>
<trkpt lat="31.8129100" lon="35.0800900">
<ele>587.799988</ele>
<time>2022-05-05T07:31:31.551Z</time>
</trkpt>
<trkpt lat="31.8132700" lon="35.0800300">
<ele>583.739990</ele>
<time>2022-05-05T07:31:31.551Z</time>
</trkpt>
<trkpt lat="31.8133000" lon="35.0801200">
<ele>582.149963</ele>
<time>2022-05-05T07:31:31.551Z</time>
</trkpt>
<trkpt lat="31.8129000" lon="35.0804800">
<ele>579.380005</ele>
<time>2022-05-05T07:31:31.551Z</time>
</trkpt>
<trkpt lat="31.8129700" lon="35.0805800">
<ele>576.900024</ele>
<time>2022-05-05T07:31:31.551Z</time>
</trkpt>
<trkpt lat="31.8135000" lon="35.0805600">
<ele>570.690002</ele>
<time>2022-05-05T07:31:31.551Z</time>
</trkpt>
<trkpt lat="31.8136400" lon="35.0806400">
<ele>565.549988</ele>
<time>2022-05-05T07:31:31.551Z</time>
</trkpt>
<trkpt lat="31.8137400" lon="35.0806200">
<ele>563.820007</ele>
<time>2022-05-05T07:31:31.551Z</time>
</trkpt>
<trkpt lat="31.8143800" lon="35.0803000">
<ele>557.109985</ele>
<time>2022-05-05T07:31:31.551Z</time>
</trkpt>
<trkpt lat="31.8147800" lon="35.0802100">
<ele>552.010010</ele>
<time>2022-05-05T07:31:31.551Z</time>
</trkpt>
<trkpt lat="31.8149100" lon="35.0801300">
<ele>550.849976</ele>
<time>2022-05-05T07:31:31.551Z</time>
</trkpt>
<trkpt lat="31.8151800" lon="35.0796200">
<ele>544.400024</ele>
<time>2022-05-05T07:31:31.551Z</time>
</trkpt>
<trkpt lat="31.8154200" lon="35.0793400">
<ele>537.000000</ele>
<time>2022-05-05T07:31:31.551Z</time>
</trkpt>
<trkpt lat="31.8154800" lon="35.0793600">
<ele>536.119995</ele>
<time>2022-05-05T07:31:31.551Z</time>
</trkpt>
<trkpt lat="31.8155100" lon="35.0794600">
<ele>536.640015</ele>
<time>2022-05-05T07:31:31.551Z</time>
</trkpt>
<trkpt lat="31.8155500" lon="35.0794500">
<ele>536.059998</ele>
<time>2022-05-05T07:31:31.551Z</time>
</trkpt>
<trkpt lat="31.8156900" lon="35.0792000">
<ele>529.829956</ele>
<time>2022-05-05T07:31:31.551Z</time>
</trkpt>
<trkpt lat="31.8159700" lon="35.0789500">
<ele>522.369995</ele>
<time>2022-05-05T07:31:31.551Z</time>
</trkpt>
<trkpt lat="31.8163100" lon="35.0780000">
<ele>509.639984</ele>
<time>2022-05-05T07:31:31.552Z</time>
</trkpt>
<trkpt lat="31.8164100" lon="35.0774300">
<ele>508.670013</ele>
<time>2022-05-05T07:31:31.552Z</time>
</trkpt>
<trkpt lat="31.8164600" lon="35.0774200">
<ele>506.759979</ele>
<time>2022-05-05T07:31:31.552Z</time>
</trkpt>
<trkpt lat="31.8164900" lon="35.0775300">
<ele>504.709991</ele>
<time>2022-05-05T07:31:31.552Z</time>
</trkpt>
<trkpt lat="31.8165800" lon="35.0786700">
<ele>497.910004</ele>
<time>2022-05-05T07:31:31.552Z</time>
</trkpt>
<trkpt lat="31.8165500" lon="35.0788700">
<ele>498.919983</ele>
<time>2022-05-05T07:31:31.552Z</time>
</trkpt>
<trkpt lat="31.8163900" lon="35.0794900">
<ele>502.129974</ele>
<time>2022-05-05T07:31:31.552Z</time>
</trkpt>
<trkpt lat="31.8163400" lon="35.0799500">
<ele>504.860016</ele>
<time>2022-05-05T07:31:31.552Z</time>
</trkpt>
<trkpt lat="31.8161800" lon="35.0804600">
<ele>507.009979</ele>
<time>2022-05-05T07:31:31.552Z</time>
</trkpt>
<trkpt lat="31.8160600" lon="35.0811100">
<ele>501.559998</ele>
<time>2022-05-05T07:31:31.552Z</time>
</trkpt>
<trkpt lat="31.8159700" lon="35.0813200">
<ele>498.730011</ele>
<time>2022-05-05T07:31:31.552Z</time>
</trkpt>
<trkpt lat="31.8159700" lon="35.0813200">
<ele>498.730011</ele>
<time>2022-05-05T07:31:31.552Z</time>
</trkpt>
<trkpt lat="31.8159700" lon="35.0813200">
<ele>498.730011</ele>
<time>2022-05-05T07:31:31.552Z</time>
</trkpt>
<trkpt lat="31.8157800" lon="35.0817400">
<ele>498.480011</ele>
<time>2022-05-05T07:31:31.552Z</time>
</trkpt>
<trkpt lat="31.8157200" lon="35.0820900">
<ele>495.339996</ele>
<time>2022-05-05T07:31:31.552Z</time>
</trkpt>
<trkpt lat="31.8156900" lon="35.0822000">
<ele>494.529999</ele>
<time>2022-05-05T07:31:31.552Z</time>
</trkpt>
<trkpt lat="31.8158100" lon="35.0822300">
<ele>495.830017</ele>
<time>2022-05-05T07:31:31.552Z</time>
</trkpt>
<trkpt lat="31.8158400" lon="35.0822300">
<ele>496.229980</ele>
<time>2022-05-05T07:31:31.553Z</time>
</trkpt>
<trkpt lat="31.8159100" lon="35.0822100">
<ele>497.710022</ele>
<time>2022-05-05T07:31:31.553Z</time>
</trkpt>
<trkpt lat="31.8162500" lon="35.0820600">
<ele>503.119995</ele>
<time>2022-05-05T07:31:31.553Z</time>
</trkpt>
<trkpt lat="31.8163400" lon="35.0820000">
<ele>503.840027</ele>
<time>2022-05-05T07:31:31.553Z</time>
</trkpt>
<trkpt lat="31.8165600" lon="35.0817800">
<ele>509.749969</ele>
<time>2022-05-05T07:31:31.553Z</time>
</trkpt>
<trkpt lat="31.8167900" lon="35.0815200">
<ele>516.440002</ele>
<time>2022-05-05T07:31:31.553Z</time>
</trkpt>
<trkpt lat="31.8169900" lon="35.0812200">
<ele>519.720032</ele>
<time>2022-05-05T07:31:31.553Z</time>
</trkpt>
<trkpt lat="31.8170500" lon="35.0811700">
<ele>521.140015</ele>
<time>2022-05-05T07:31:31.553Z</time>
</trkpt>
<trkpt lat="31.8170800" lon="35.0811700">
<ele>522.130005</ele>
<time>2022-05-05T07:31:31.553Z</time>
</trkpt>
<trkpt lat="31.8170900" lon="35.0812500">
<ele>523.479980</ele>
<time>2022-05-05T07:31:31.553Z</time>
</trkpt>
<trkpt lat="31.8169500" lon="35.0816900">
<ele>523.390015</ele>
<time>2022-05-05T07:31:31.553Z</time>
</trkpt>
<trkpt lat="31.8168200" lon="35.0824300">
<ele>530.270020</ele>
<time>2022-05-05T07:31:31.553Z</time>
</trkpt>
<trkpt lat="31.8167800" lon="35.0827300">
<ele>534.979980</ele>
<time>2022-05-05T07:31:31.553Z</time>
</trkpt>
<trkpt lat="31.8167800" lon="35.0830200">
<ele>537.979980</ele>
<time>2022-05-05T07:31:31.553Z</time>
</trkpt>
<trkpt lat="31.8168700" lon="35.0835700">
<ele>541.619995</ele>
<time>2022-05-05T07:31:31.553Z</time>
</trkpt>
<trkpt lat="31.8168800" lon="35.0838600">
<ele>543.220032</ele>
<time>2022-05-05T07:31:31.553Z</time>
</trkpt>
<trkpt lat="31.8168400" lon="35.0840700">
<ele>544.320007</ele>
<time>2022-05-05T07:31:31.553Z</time>
</trkpt>
<trkpt lat="31.8165700" lon="35.0850800">
<ele>552.739990</ele>
<time>2022-05-05T07:31:31.554Z</time>
</trkpt>
<trkpt lat="31.8165200" lon="35.0854600">
<ele>558.979980</ele>
<time>2022-05-05T07:31:31.554Z</time>
</trkpt>
<trkpt lat="31.8164800" lon="35.0859200">
<ele>563.690002</ele>
<time>2022-05-05T07:31:31.554Z</time>
</trkpt>
<trkpt lat="31.8164800" lon="35.0876600">
<ele>574.479980</ele>
<time>2022-05-05T07:31:31.554Z</time>
</trkpt>
<trkpt lat="31.8164500" lon="35.0887200">
<ele>586.059998</ele>
<time>2022-05-05T07:31:31.554Z</time>
</trkpt>
<trkpt lat="31.8164500" lon="35.0892700">
<ele>593.099976</ele>
<time>2022-05-05T07:31:31.554Z</time>
</trkpt>
<trkpt lat="31.8164700" lon="35.0895700">
<ele>596.850037</ele>
<time>2022-05-05T07:31:31.554Z</time>
</trkpt>
<trkpt lat="31.8165100" lon="35.0897300">
<ele>599.510010</ele>
<time>2022-05-05T07:31:31.554Z</time>
</trkpt>
<trkpt lat="31.8165800" lon="35.0899300">
<ele>601.460022</ele>
<time>2022-05-05T07:31:31.554Z</time>
</trkpt>
<trkpt lat="31.8167400" lon="35.0902600">
<ele>604.770020</ele>
<time>2022-05-05T07:31:31.554Z</time>
</trkpt>
<trkpt lat="31.8170100" lon="35.0906600">
<ele>604.650024</ele>
<time>2022-05-05T07:31:31.554Z</time>
</trkpt>
<trkpt lat="31.8170800" lon="35.0908100">
<ele>604.010010</ele>
<time>2022-05-05T07:31:31.554Z</time>
</trkpt>
<trkpt lat="31.8171600" lon="35.0910000">
<ele>605.519958</ele>
<time>2022-05-05T07:31:31.554Z</time>
</trkpt>
<trkpt lat="31.8171700" lon="35.0910800">
<ele>605.590027</ele>
<time>2022-05-05T07:31:31.554Z</time>
</trkpt>
<trkpt lat="31.8171800" lon="35.0912100">
<ele>607.210022</ele>
<time>2022-05-05T07:31:31.554Z</time>
</trkpt>
<trkpt lat="31.8171600" lon="35.0916300">
<ele>614.219971</ele>
<time>2022-05-05T07:31:31.554Z</time>
</trkpt>
<trkpt lat="31.8170900" lon="35.0925200">
<ele>621.409973</ele>
<time>2022-05-05T07:31:31.554Z</time>
</trkpt>
<trkpt lat="31.8170500" lon="35.0931500">
<ele>625.480042</ele>
<time>2022-05-05T07:31:31.554Z</time>
</trkpt>
<trkpt lat="31.8170500" lon="35.0935800">
<ele>627.899963</ele>
<time>2022-05-05T07:31:31.554Z</time>
</trkpt>
<trkpt lat="31.8170800" lon="35.0939600">
<ele>631.289978</ele>
<time>2022-05-05T07:31:31.554Z</time>
</trkpt>
<trkpt lat="31.8171200" lon="35.0942100">
<ele>632.149963</ele>
<time>2022-05-05T07:31:31.554Z</time>
</trkpt>
<trkpt lat="31.8171200" lon="35.0942100">
<ele>632.149963</ele>
<time>2022-05-05T07:31:31.554Z</time>
</trkpt>
<trkpt lat="31.8171500" lon="35.0943300">
<ele>633.899963</ele>
<time>2022-05-05T07:31:31.554Z</time>
</trkpt>
<trkpt lat="31.8172700" lon="35.0948100">
<ele>641.150024</ele>
<time>2022-05-05T07:31:31.554Z</time>
</trkpt>
<trkpt lat="31.8173100" lon="35.0950700">
<ele>643.760010</ele>
<time>2022-05-05T07:31:31.555Z</time>
</trkpt>
<trkpt lat="31.8173200" lon="35.0952800">
<ele>645.829956</ele>
<time>2022-05-05T07:31:31.555Z</time>
</trkpt>
<trkpt lat="31.8173000" lon="35.0953900">
<ele>646.049988</ele>
<time>2022-05-05T07:31:31.555Z</time>
</trkpt>
<trkpt lat="31.8172900" lon="35.0954400">
<ele>646.119995</ele>
<time>2022-05-05T07:31:31.555Z</time>
</trkpt>
<trkpt lat="31.8172500" lon="35.0955600">
<ele>645.849976</ele>
<time>2022-05-05T07:31:31.555Z</time>
</trkpt>
<trkpt lat="31.8165800" lon="35.0969300">
<ele>650.900024</ele>
<time>2022-05-05T07:31:31.555Z</time>
</trkpt>
<trkpt lat="31.8161900" lon="35.0976200">
<ele>660.320007</ele>
<time>2022-05-05T07:31:31.555Z</time>
</trkpt>
<trkpt lat="31.8161000" lon="35.0978100">
<ele>663.279968</ele>
<time>2022-05-05T07:31:31.555Z</time>
</trkpt>
<trkpt lat="31.8160500" lon="35.0979300">
<ele>664.450012</ele>
<time>2022-05-05T07:31:31.555Z</time>
</trkpt>
<trkpt lat="31.8160200" lon="35.0980000">
<ele>665.349976</ele>
<time>2022-05-05T07:31:31.555Z</time>
</trkpt>
<trkpt lat="31.8158900" lon="35.0986600">
<ele>674.960022</ele>
<time>2022-05-05T07:31:31.555Z</time>
</trkpt>
<trkpt lat="31.8158600" lon="35.0989100">
<ele>677.840027</ele>
<time>2022-05-05T07:31:31.555Z</time>
</trkpt>
<trkpt lat="31.8158900" lon="35.0994200">
<ele>680.840027</ele>
<time>2022-05-05T07:31:31.555Z</time>
</trkpt>
<trkpt lat="31.8159200" lon="35.0996800">
<ele>682.389954</ele>
<time>2022-05-05T07:31:31.555Z</time>
</trkpt>
<trkpt lat="31.8159700" lon="35.0999500">
<ele>684.349976</ele>
<time>2022-05-05T07:31:31.555Z</time>
</trkpt>
<trkpt lat="31.8160500" lon="35.1001500">
<ele>686.219971</ele>
<time>2022-05-05T07:31:31.555Z</time>
</trkpt>
<trkpt lat="31.8161100" lon="35.1002500">
<ele>687.960022</ele>
<time>2022-05-05T07:31:31.555Z</time>
</trkpt>
<trkpt lat="31.8166800" lon="35.1009600">
<ele>699.219971</ele>
<time>2022-05-05T07:31:31.555Z</time>
</trkpt>
<trkpt lat="31.8167600" lon="35.1011000">
<ele>700.359985</ele>
<time>2022-05-05T07:31:31.555Z</time>
</trkpt>
<trkpt lat="31.8167900" lon="35.1012700">
<ele>702.490051</ele>
<time>2022-05-05T07:31:31.555Z</time>
</trkpt>
<trkpt lat="31.8167800" lon="35.1014800">
<ele>704.619995</ele>
<time>2022-05-05T07:31:31.555Z</time>
</trkpt>
<trkpt lat="31.8167400" lon="35.1017700">
<ele>707.370056</ele>
<time>2022-05-05T07:31:31.555Z</time>
</trkpt>
<trkpt lat="31.8164700" lon="35.1027400">
<ele>718.580017</ele>
<time>2022-05-05T07:31:31.555Z</time>
</trkpt>
<trkpt lat="31.8164400" lon="35.1029000">
<ele>720.140015</ele>
<time>2022-05-05T07:31:31.556Z</time>
</trkpt>
<trkpt lat="31.8164200" lon="35.1030700">
<ele>721.719971</ele>
<time>2022-05-05T07:31:31.556Z</time>
</trkpt>
<trkpt lat="31.8164600" lon="35.1032800">
<ele>724.700012</ele>
<time>2022-05-05T07:31:31.556Z</time>
</trkpt>
<trkpt lat="31.8166100" lon="35.1036600">
<ele>729.320007</ele>
<time>2022-05-05T07:31:31.556Z</time>
</trkpt>
<trkpt lat="31.8166400" lon="35.1037800">
<ele>730.169983</ele>
<time>2022-05-05T07:31:31.556Z</time>
</trkpt>
<trkpt lat="31.8166500" lon="35.1038200">
<ele>730.470032</ele>
<time>2022-05-05T07:31:31.556Z</time>
</trkpt>
<trkpt lat="31.8166600" lon="35.1038500">
<ele>730.739990</ele>
<time>2022-05-05T07:31:31.556Z</time>
</trkpt>
<trkpt lat="31.8166500" lon="35.1038500">
<ele>730.570007</ele>
<time>2022-05-05T07:31:31.556Z</time>
</trkpt>
<trkpt lat="31.8166500" lon="35.1038500">
<ele>730.570007</ele>
<time>2022-05-05T07:31:31.556Z</time>
</trkpt>
<trkpt lat="31.8166600" lon="35.1038500">
<ele>730.739990</ele>
<time>2022-05-05T07:31:31.556Z</time>
</trkpt>
<trkpt lat="31.8166700" lon="35.1040400">
<ele>731.619995</ele>
<time>2022-05-05T07:31:31.556Z</time>
</trkpt>
<trkpt lat="31.8166500" lon="35.1044600">
<ele>732.859985</ele>
<time>2022-05-05T07:31:31.556Z</time>
</trkpt>
<trkpt lat="31.8166100" lon="35.1045700">
<ele>733.149963</ele>
<time>2022-05-05T07:31:31.556Z</time>
</trkpt>
<trkpt lat="31.8165000" lon="35.1046900">
<ele>731.590027</ele>
<time>2022-05-05T07:31:31.556Z</time>
</trkpt>
<trkpt lat="31.8164000" lon="35.1047400">
<ele>729.660034</ele>
<time>2022-05-05T07:31:31.556Z</time>
</trkpt>
<trkpt lat="31.8160900" lon="35.1048400">
<ele>730.000000</ele>
<time>2022-05-05T07:31:31.556Z</time>
</trkpt>
<trkpt lat="31.8160100" lon="35.1049200">
<ele>731.090027</ele>
<time>2022-05-05T07:31:31.556Z</time>
</trkpt>
<trkpt lat="31.8160000" lon="35.1050000">
<ele>732.599976</ele>
<time>2022-05-05T07:31:31.557Z</time>
</trkpt>
<trkpt lat="31.8158900" lon="35.1051200">
<ele>735.480042</ele>
<time>2022-05-05T07:31:31.557Z</time>
</trkpt>
<trkpt lat="31.8156000" lon="35.1052000">
<ele>736.320007</ele>
<time>2022-05-05T07:31:31.557Z</time>
</trkpt>
<trkpt lat="31.8154300" lon="35.1052400">
<ele>736.840027</ele>
<time>2022-05-05T07:31:31.557Z</time>
</trkpt>
<trkpt lat="31.8152000" lon="35.1052900">
<ele>736.829956</ele>
<time>2022-05-05T07:31:31.557Z</time>
</trkpt>
<trkpt lat="31.8148800" lon="35.1053900">
<ele>733.899963</ele>
<time>2022-05-05T07:31:31.557Z</time>
</trkpt>
<trkpt lat="31.8147200" lon="35.1054400">
<ele>731.309998</ele>
<time>2022-05-05T07:31:31.557Z</time>
</trkpt>
<trkpt lat="31.8144000" lon="35.1055800">
<ele>729.309998</ele>
<time>2022-05-05T07:31:31.557Z</time>
</trkpt>
<trkpt lat="31.8143400" lon="35.1055800">
<ele>729.250000</ele>
<time>2022-05-05T07:31:31.557Z</time>
</trkpt>
<trkpt lat="31.8139300" lon="35.1058000">
<ele>728.380005</ele>
<time>2022-05-05T07:31:31.557Z</time>
</trkpt>
<trkpt lat="31.8136600" lon="35.1059600">
<ele>730.630005</ele>
<time>2022-05-05T07:31:31.557Z</time>
</trkpt>
<trkpt lat="31.8135400" lon="35.1060600">
<ele>731.720032</ele>
<time>2022-05-05T07:31:31.557Z</time>
</trkpt>
<trkpt lat="31.8132600" lon="35.1063100">
<ele>736.630005</ele>
<time>2022-05-05T07:31:31.557Z</time>
</trkpt>
<trkpt lat="31.8132600" lon="35.1063100">
<ele>736.630005</ele>
<time>2022-05-05T07:31:31.557Z</time>
</trkpt>
<trkpt lat="31.8125400" lon="35.1059400">
<ele>723.779968</ele>
<time>2022-05-05T07:31:31.557Z</time>
</trkpt>
<trkpt lat="31.8122700" lon="35.1058000">
<ele>720.940002</ele>
<time>2022-05-05T07:31:31.557Z</time>
</trkpt>
<trkpt lat="31.8120000" lon="35.1056900">
<ele>718.289978</ele>
<time>2022-05-05T07:31:31.557Z</time>
</trkpt>
<trkpt lat="31.8117800" lon="35.1055900">
<ele>714.970032</ele>
<time>2022-05-05T07:31:31.557Z</time>
</trkpt>
<trkpt lat="31.8116300" lon="35.1056700">
<ele>712.510010</ele>
<time>2022-05-05T07:31:31.557Z</time>
</trkpt>
<trkpt lat="31.8113600" lon="35.1058700">
<ele>711.840027</ele>
<time>2022-05-05T07:31:31.557Z</time>
</trkpt>
<trkpt lat="31.8111500" lon="35.1060500">
<ele>709.880005</ele>
<time>2022-05-05T07:31:31.557Z</time>
</trkpt>
<trkpt lat="31.8107600" lon="35.1063400">
<ele>699.869995</ele>
<time>2022-05-05T07:31:31.557Z</time>
</trkpt>
<trkpt lat="31.8105700" lon="35.1064900">
<ele>697.140015</ele>
<time>2022-05-05T07:31:31.557Z</time>
</trkpt>
<trkpt lat="31.8103400" lon="35.1066600">
<ele>698.569946</ele>
<time>2022-05-05T07:31:31.558Z</time>
</trkpt>
<trkpt lat="31.8106000" lon="35.1067800">
<ele>696.780029</ele>
<time>2022-05-05T07:31:31.558Z</time>
</trkpt>
<trkpt lat="31.8107700" lon="35.1069700">
<ele>695.630005</ele>
<time>2022-05-05T07:31:31.558Z</time>
</trkpt>
<trkpt lat="31.8108500" lon="35.1071100">
<ele>693.679993</ele>
<time>2022-05-05T07:31:31.558Z</time>
</trkpt>
<trkpt lat="31.8109200" lon="35.1073200">
<ele>691.010010</ele>
<time>2022-05-05T07:31:31.558Z</time>
</trkpt>
<trkpt lat="31.8109400" lon="35.1075300">
<ele>688.660034</ele>
<time>2022-05-05T07:31:31.558Z</time>
</trkpt>
<trkpt lat="31.8109200" lon="35.1077300">
<ele>687.800049</ele>
<time>2022-05-05T07:31:31.559Z</time>
</trkpt>
<trkpt lat="31.8108500" lon="35.1079000">
<ele>687.120056</ele>
<time>2022-05-05T07:31:31.559Z</time>
</trkpt>
<trkpt lat="31.8107300" lon="35.1081600">
<ele>685.740051</ele>
<time>2022-05-05T07:31:31.559Z</time>
</trkpt>
<trkpt lat="31.8106700" lon="35.1081400">
<ele>685.339966</ele>
<time>2022-05-05T07:31:31.559Z</time>
</trkpt>
<trkpt lat="31.8106000" lon="35.1081400">
<ele>684.760010</ele>
<time>2022-05-05T07:31:31.559Z</time>
</trkpt>
<trkpt lat="31.8105400" lon="35.1081800">
<ele>683.959961</ele>
<time>2022-05-05T07:31:31.559Z</time>
</trkpt>
<trkpt lat="31.8105000" lon="35.1082400">
<ele>683.199951</ele>
<time>2022-05-05T07:31:31.559Z</time>
</trkpt>
<trkpt lat="31.8104900" lon="35.1083200">
<ele>682.610046</ele>
<time>2022-05-05T07:31:31.559Z</time>
</trkpt>
<trkpt lat="31.8105000" lon="35.1083900">
<ele>682.359985</ele>
<time>2022-05-05T07:31:31.559Z</time>
</trkpt>
<trkpt lat="31.8101700" lon="35.1085600">
<ele>678.659973</ele>
<time>2022-05-05T07:31:31.559Z</time>
</trkpt>
<trkpt lat="31.8097000" lon="35.1087400">
<ele>678.410034</ele>
<time>2022-05-05T07:31:31.559Z</time>
</trkpt>
<trkpt lat="31.8088000" lon="35.1091500">
<ele>675.839966</ele>
<time>2022-05-05T07:31:31.559Z</time>
</trkpt>
<trkpt lat="31.8086200" lon="35.1093700">
<ele>672.950012</ele>
<time>2022-05-05T07:31:31.559Z</time>
</trkpt>
<trkpt lat="31.8086000" lon="35.1094000">
<ele>672.559998</ele>
<time>2022-05-05T07:31:31.559Z</time>
</trkpt>
<trkpt lat="31.8084000" lon="35.1097200">
<ele>668.910034</ele>
<time>2022-05-05T07:31:31.559Z</time>
</trkpt>
<trkpt lat="31.8080600" lon="35.1103300">
<ele>666.330017</ele>
<time>2022-05-05T07:31:31.559Z</time>
</trkpt>
<trkpt lat="31.8075800" lon="35.1119400">
<ele>668.590027</ele>
<time>2022-05-05T07:31:31.559Z</time>
</trkpt>
<trkpt lat="31.8072500" lon="35.1128300">
<ele>663.090027</ele>
<time>2022-05-05T07:31:31.559Z</time>
</trkpt>
<trkpt lat="31.8070400" lon="35.1134400">
<ele>659.729980</ele>
<time>2022-05-05T07:31:31.559Z</time>
</trkpt>
<trkpt lat="31.8068800" lon="35.1137700">
<ele>658.390015</ele>
<time>2022-05-05T07:31:31.559Z</time>
</trkpt>
<trkpt lat="31.8065200" lon="35.1142700">
<ele>653.929993</ele>
<time>2022-05-05T07:31:31.559Z</time>
</trkpt>
<trkpt lat="31.8061600" lon="35.1147700">
<ele>647.440002</ele>
<time>2022-05-05T07:31:31.559Z</time>
</trkpt>
<trkpt lat="31.8059800" lon="35.1150100">
<ele>645.099976</ele>
<time>2022-05-05T07:31:31.559Z</time>
</trkpt>
<trkpt lat="31.8059800" lon="35.1150100">
<ele>645.099976</ele>
<time>2022-05-05T07:31:31.559Z</time>
</trkpt>
<trkpt lat="31.8053600" lon="35.1158500">
<ele>640.020020</ele>
<time>2022-05-05T07:31:31.559Z</time>
</trkpt>
<trkpt lat="31.8043300" lon="35.1171400">
<ele>638.830017</ele>
<time>2022-05-05T07:31:31.559Z</time>
</trkpt>
<trkpt lat="31.8041400" lon="35.1173400">
<ele>636.820007</ele>
<time>2022-05-05T07:31:31.559Z</time>
</trkpt>
<trkpt lat="31.8024300" lon="35.1190300">
<ele>619.380005</ele>
<time>2022-05-05T07:31:31.559Z</time>
</trkpt>
<trkpt lat="31.8019500" lon="35.1195700">
<ele>613.619995</ele>
<time>2022-05-05T07:31:31.559Z</time>
</trkpt>
<trkpt lat="31.8017200" lon="35.1198800">
<ele>613.460022</ele>
<time>2022-05-05T07:31:31.559Z</time>
</trkpt>
<trkpt lat="31.8014500" lon="35.1204200">
<ele>615.900024</ele>
<time>2022-05-05T07:31:31.559Z</time>
</trkpt>
<trkpt lat="31.8013800" lon="35.1209600">
<ele>616.010010</ele>
<time>2022-05-05T07:31:31.560Z</time>
</trkpt>
<trkpt lat="31.8013300" lon="35.1218900">
<ele>617.250000</ele>
<time>2022-05-05T07:31:31.560Z</time>
</trkpt>
<trkpt lat="31.8012700" lon="35.1221900">
<ele>614.570007</ele>
<time>2022-05-05T07:31:31.560Z</time>
</trkpt>
<trkpt lat="31.8012600" lon="35.1222800">
<ele>614.239990</ele>
<time>2022-05-05T07:31:31.560Z</time>
</trkpt>
<trkpt lat="31.8012500" lon="35.1223100">
<ele>614.159973</ele>
<time>2022-05-05T07:31:31.560Z</time>
</trkpt>
<trkpt lat="31.8012500" lon="35.1223300">
<ele>614.190002</ele>
<time>2022-05-05T07:31:31.560Z</time>
</trkpt>
<trkpt lat="31.8012400" lon="35.1223600">
<ele>614.119995</ele>
<time>2022-05-05T07:31:31.560Z</time>
</trkpt>
<trkpt lat="31.8012300" lon="35.1223900">
<ele>614.059998</ele>
<time>2022-05-05T07:31:31.560Z</time>
</trkpt>
<trkpt lat="31.8012300" lon="35.1224200">
<ele>614.119995</ele>
<time>2022-05-05T07:31:31.560Z</time>
</trkpt>
<trkpt lat="31.8012200" lon="35.1224500">
<ele>614.070007</ele>
<time>2022-05-05T07:31:31.560Z</time>
</trkpt>
<trkpt lat="31.8012100" lon="35.1224800">
<ele>614.020020</ele>
<time>2022-05-05T07:31:31.560Z</time>
</trkpt>
<trkpt lat="31.8012000" lon="35.1225000">
<ele>613.960022</ele>
<time>2022-05-05T07:31:31.560Z</time>
</trkpt>
<trkpt lat="31.8011900" lon="35.1225400">
<ele>614.140015</ele>
<time>2022-05-05T07:31:31.560Z</time>
</trkpt>
<trkpt lat="31.8011800" lon="35.1225600">
<ele>614.179993</ele>
<time>2022-05-05T07:31:31.560Z</time>
</trkpt>
<trkpt lat="31.8010100" lon="35.1230000">
<ele>615.070007</ele>
<time>2022-05-05T07:31:31.560Z</time>
</trkpt>
<trkpt lat="31.8010000" lon="35.1230200">
<ele>615.090027</ele>
<time>2022-05-05T07:31:31.560Z</time>
</trkpt>
<trkpt lat="31.8009900" lon="35.1230400">
<ele>615.119995</ele>
<time>2022-05-05T07:31:31.560Z</time>
</trkpt>
<trkpt lat="31.8009700" lon="35.1230600">
<ele>615.010010</ele>
<time>2022-05-05T07:31:31.560Z</time>
</trkpt>
<trkpt lat="31.8009600" lon="35.1230900">
<ele>615.140015</ele>
<time>2022-05-05T07:31:31.560Z</time>
</trkpt>
<trkpt lat="31.8009500" lon="35.1231100">
<ele>615.190002</ele>
<time>2022-05-05T07:31:31.560Z</time>
</trkpt>
<trkpt lat="31.8009300" lon="35.1231400">
<ele>615.200012</ele>
<time>2022-05-05T07:31:31.560Z</time>
</trkpt>
<trkpt lat="31.8009200" lon="35.1231600">
<ele>615.260010</ele>
<time>2022-05-05T07:31:31.561Z</time>
</trkpt>
<trkpt lat="31.8009100" lon="35.1231900">
<ele>615.419983</ele>
<time>2022-05-05T07:31:31.561Z</time>
</trkpt>
<trkpt lat="31.8009000" lon="35.1232200">
<ele>615.590027</ele>
<time>2022-05-05T07:31:31.561Z</time>
</trkpt>
<trkpt lat="31.8008900" lon="35.1232500">
<ele>615.770020</ele>
<time>2022-05-05T07:31:31.561Z</time>
</trkpt>
<trkpt lat="31.8008900" lon="35.1232700">
<ele>615.969971</ele>
<time>2022-05-05T07:31:31.561Z</time>
</trkpt>
<trkpt lat="31.8008800" lon="35.1233000">
<ele>616.160034</ele>
<time>2022-05-05T07:31:31.561Z</time>
</trkpt>
<trkpt lat="31.8008800" lon="35.1233300">
<ele>616.470032</ele>
<time>2022-05-05T07:31:31.561Z</time>
</trkpt>
<trkpt lat="31.8008700" lon="35.1233600">
<ele>616.830017</ele>
<time>2022-05-05T07:31:31.561Z</time>
</trkpt>
<trkpt lat="31.8008700" lon="35.1233900">
<ele>617.309998</ele>
<time>2022-05-05T07:31:31.561Z</time>
</trkpt>
<trkpt lat="31.8008700" lon="35.1234200">
<ele>617.790039</ele>
<time>2022-05-05T07:31:31.561Z</time>
</trkpt>
<trkpt lat="31.8008600" lon="35.1234400">
<ele>618.059998</ele>
<time>2022-05-05T07:31:31.561Z</time>
</trkpt>
<trkpt lat="31.8008500" lon="35.1234700">
<ele>618.520020</ele>
<time>2022-05-05T07:31:31.562Z</time>
</trkpt>
<trkpt lat="31.8008400" lon="35.1234900">
<ele>618.839966</ele>
<time>2022-05-05T07:31:31.562Z</time>
</trkpt>
<trkpt lat="31.8008300" lon="35.1235200">
<ele>619.330017</ele>
<time>2022-05-05T07:31:31.562Z</time>
</trkpt>
<trkpt lat="31.8008100" lon="35.1235300">
<ele>619.309998</ele>
<time>2022-05-05T07:31:31.562Z</time>
</trkpt>
<trkpt lat="31.8008000" lon="35.1235500">
<ele>619.570007</ele>
<time>2022-05-05T07:31:31.562Z</time>
</trkpt>
<trkpt lat="31.8007800" lon="35.1235800">
<ele>619.890015</ele>
<time>2022-05-05T07:31:31.562Z</time>
</trkpt>
<trkpt lat="31.8007600" lon="35.1236100">
<ele>620.190002</ele>
<time>2022-05-05T07:31:31.562Z</time>
</trkpt>
<trkpt lat="31.8007500" lon="35.1236500">
<ele>620.039978</ele>
<time>2022-05-05T07:31:31.562Z</time>
</trkpt>
<trkpt lat="31.8007400" lon="35.1236900">
<ele>619.899963</ele>
<time>2022-05-05T07:31:31.562Z</time>
</trkpt>
<trkpt lat="31.8007400" lon="35.1237400">
<ele>619.840027</ele>
<time>2022-05-05T07:31:31.562Z</time>
</trkpt>
<trkpt lat="31.8007400" lon="35.1237800">
<ele>619.789978</ele>
<time>2022-05-05T07:31:31.562Z</time>
</trkpt>
<trkpt lat="31.8007500" lon="35.1238200">
<ele>619.799988</ele>
<time>2022-05-05T07:31:31.562Z</time>
</trkpt>
<trkpt lat="31.8007400" lon="35.1238900">
<ele>619.669983</ele>
<time>2022-05-05T07:31:31.562Z</time>
</trkpt>
<trkpt lat="31.8007300" lon="35.1239500">
<ele>619.769958</ele>
<time>2022-05-05T07:31:31.562Z</time>
</trkpt>
<trkpt lat="31.8007100" lon="35.1240100">
<ele>619.799988</ele>
<time>2022-05-05T07:31:31.562Z</time>
</trkpt>
<trkpt lat="31.8006800" lon="35.1240700">
<ele>619.739990</ele>
<time>2022-05-05T07:31:31.562Z</time>
</trkpt>
<trkpt lat="31.8006500" lon="35.1241300">
<ele>619.639954</ele>
<time>2022-05-05T07:31:31.562Z</time>
</trkpt>
<trkpt lat="31.8006200" lon="35.1241800">
<ele>619.450012</ele>
<time>2022-05-05T07:31:31.562Z</time>
</trkpt>
<trkpt lat="31.8005800" lon="35.1242300">
<ele>619.160034</ele>
<time>2022-05-05T07:31:31.562Z</time>
</trkpt>
<trkpt lat="31.8005500" lon="35.1242700">
<ele>619.039978</ele>
<time>2022-05-05T07:31:31.562Z</time>
</trkpt>
<trkpt lat="31.8005300" lon="35.1243100">
<ele>619.179993</ele>
<time>2022-05-05T07:31:31.562Z</time>
</trkpt>
<trkpt lat="31.8005100" lon="35.1243300">
<ele>619.330017</ele>
<time>2022-05-05T07:31:31.562Z</time>
</trkpt>
<trkpt lat="31.8004900" lon="35.1243500">
<ele>619.469971</ele>
<time>2022-05-05T07:31:31.562Z</time>
</trkpt>
<trkpt lat="31.8000700" lon="35.1248600">
<ele>621.380005</ele>
<time>2022-05-05T07:31:31.562Z</time>
</trkpt>
<trkpt lat="31.8000500" lon="35.1248800">
<ele>621.279968</ele>
<time>2022-05-05T07:31:31.562Z</time>
</trkpt>
<trkpt lat="31.7999600" lon="35.1249700">
<ele>621.020020</ele>
<time>2022-05-05T07:31:31.562Z</time>
</trkpt>
<trkpt lat="31.7999300" lon="35.1250100">
<ele>620.950012</ele>
<time>2022-05-05T07:31:31.562Z</time>
</trkpt>
<trkpt lat="31.7998900" lon="35.1250500">
<ele>620.750000</ele>
<time>2022-05-05T07:31:31.562Z</time>
</trkpt>
<trkpt lat="31.7998600" lon="35.1250800">
<ele>620.570007</ele>
<time>2022-05-05T07:31:31.562Z</time>
</trkpt>
<trkpt lat="31.7998300" lon="35.1251100">
<ele>620.359985</ele>
<time>2022-05-05T07:31:31.563Z</time>
</trkpt>
<trkpt lat="31.7997900" lon="35.1251400">
<ele>620.109985</ele>
<time>2022-05-05T07:31:31.563Z</time>
</trkpt>
<trkpt lat="31.7997600" lon="35.1251600">
<ele>619.929993</ele>
<time>2022-05-05T07:31:31.563Z</time>
</trkpt>
<trkpt lat="31.7997200" lon="35.1251800">
<ele>619.700012</ele>
<time>2022-05-05T07:31:31.563Z</time>
</trkpt>
<trkpt lat="31.7997000" lon="35.1251800">
<ele>619.679993</ele>
<time>2022-05-05T07:31:31.563Z</time>
</trkpt>
<trkpt lat="31.7996700" lon="35.1252000">
<ele>619.510010</ele>
<time>2022-05-05T07:31:31.563Z</time>
</trkpt>
<trkpt lat="31.7996400" lon="35.1252200">
<ele>619.349976</ele>
<time>2022-05-05T07:31:31.563Z</time>
</trkpt>
<trkpt lat="31.7996100" lon="35.1252500">
<ele>619.160034</ele>
<time>2022-05-05T07:31:31.563Z</time>
</trkpt>
<trkpt lat="31.7995900" lon="35.1252800">
<ele>618.989990</ele>
<time>2022-05-05T07:31:31.563Z</time>
</trkpt>
<trkpt lat="31.7995800" lon="35.1252900">
<ele>618.950012</ele>
<time>2022-05-05T07:31:31.563Z</time>
</trkpt>
<trkpt lat="31.7995700" lon="35.1253200">
<ele>618.829956</ele>
<time>2022-05-05T07:31:31.563Z</time>
</trkpt>
<trkpt lat="31.7995600" lon="35.1253300">
<ele>618.780029</ele>
<time>2022-05-05T07:31:31.563Z</time>
</trkpt>
<trkpt lat="31.7995400" lon="35.1253700">
<ele>618.559998</ele>
<time>2022-05-05T07:31:31.563Z</time>
</trkpt>
<trkpt lat="31.7995200" lon="35.1253900">
<ele>618.409973</ele>
<time>2022-05-05T07:31:31.563Z</time>
</trkpt>
<trkpt lat="31.7995000" lon="35.1254200">
<ele>618.179993</ele>
<time>2022-05-05T07:31:31.563Z</time>
</trkpt>
<trkpt lat="31.7994800" lon="35.1254400">
<ele>617.979980</ele>
<time>2022-05-05T07:31:31.563Z</time>
</trkpt>
<trkpt lat="31.7994600" lon="35.1254500">
<ele>617.830017</ele>
<time>2022-05-05T07:31:31.563Z</time>
</trkpt>
<trkpt lat="31.7994400" lon="35.1254700">
<ele>617.559998</ele>
<time>2022-05-05T07:31:31.563Z</time>
</trkpt>
<trkpt lat="31.7994100" lon="35.1254900">
<ele>617.029968</ele>
<time>2022-05-05T07:31:31.563Z</time>
</trkpt>
<trkpt lat="31.7993800" lon="35.1255000">
<ele>616.559998</ele>
<time>2022-05-05T07:31:31.563Z</time>
</trkpt>
<trkpt lat="31.7993600" lon="35.1255200">
<ele>616.119995</ele>
<time>2022-05-05T07:31:31.563Z</time>
</trkpt>
<trkpt lat="31.7993300" lon="35.1255300">
<ele>615.609985</ele>
<time>2022-05-05T07:31:31.563Z</time>
</trkpt>
<trkpt lat="31.7988400" lon="35.1257100">
<ele>603.559998</ele>
<time>2022-05-05T07:31:31.563Z</time>
</trkpt>
<trkpt lat="31.7988300" lon="35.1257100">
<ele>603.489990</ele>
<time>2022-05-05T07:31:31.563Z</time>
</trkpt>
<trkpt lat="31.7988300" lon="35.1257100">
<ele>603.489990</ele>
<time>2022-05-05T07:31:31.563Z</time>
</trkpt>
<trkpt lat="31.7986600" lon="35.1257700">
<ele>602.260010</ele>
<time>2022-05-05T07:31:31.563Z</time>
</trkpt>
<trkpt lat="31.7985000" lon="35.1258100">
<ele>602.429993</ele>
<time>2022-05-05T07:31:31.563Z</time>
</trkpt>
<trkpt lat="31.7983400" lon="35.1258400">
<ele>603.099976</ele>
<time>2022-05-05T07:31:31.563Z</time>
</trkpt>
<trkpt lat="31.7981900" lon="35.1258400">
<ele>603.070007</ele>
<time>2022-05-05T07:31:31.563Z</time>
</trkpt>
<trkpt lat="31.7980700" lon="35.1258200">
<ele>603.140015</ele>
<time>2022-05-05T07:31:31.563Z</time>
</trkpt>
<trkpt lat="31.7979700" lon="35.1257900">
<ele>605.219971</ele>
<time>2022-05-05T07:31:31.563Z</time>
</trkpt>
<trkpt lat="31.7978000" lon="35.1257200">
<ele>608.989990</ele>
<time>2022-05-05T07:31:31.563Z</time>
</trkpt>
<trkpt lat="31.7974900" lon="35.1255400">
<ele>614.109985</ele>
<time>2022-05-05T07:31:31.563Z</time>
</trkpt>
<trkpt lat="31.7972400" lon="35.1253700">
<ele>614.089966</ele>
<time>2022-05-05T07:31:31.563Z</time>
</trkpt>
<trkpt lat="31.7970200" lon="35.1251900">
<ele>615.359985</ele>
<time>2022-05-05T07:31:31.563Z</time>
</trkpt>
<trkpt lat="31.7969200" lon="35.1250900">
<ele>616.500000</ele>
<time>2022-05-05T07:31:31.563Z</time>
</trkpt>
<trkpt lat="31.7968400" lon="35.1250000">
<ele>617.380005</ele>
<time>2022-05-05T07:31:31.563Z</time>
</trkpt>
<trkpt lat="31.7967500" lon="35.1248900">
<ele>617.739990</ele>
<time>2022-05-05T07:31:31.563Z</time>
</trkpt>
<trkpt lat="31.7966800" lon="35.1247600">
<ele>616.510010</ele>
<time>2022-05-05T07:31:31.563Z</time>
</trkpt>
<trkpt lat="31.7966200" lon="35.1246100">
<ele>615.829956</ele>
<time>2022-05-05T07:31:31.563Z</time>
</trkpt>
<trkpt lat="31.7963600" lon="35.1238900">
<ele>615.789978</ele>
<time>2022-05-05T07:31:31.563Z</time>
</trkpt>
<trkpt lat="31.7963200" lon="35.1237500">
<ele>615.130005</ele>
<time>2022-05-05T07:31:31.563Z</time>
</trkpt>
<trkpt lat="31.7962900" lon="35.1235900">
<ele>614.070007</ele>
<time>2022-05-05T07:31:31.563Z</time>
</trkpt>
<trkpt lat="31.7962700" lon="35.1234000">
<ele>612.340027</ele>
<time>2022-05-05T07:31:31.564Z</time>
</trkpt>
<trkpt lat="31.7962500" lon="35.1230300">
<ele>609.320007</ele>
<time>2022-05-05T07:31:31.564Z</time>
</trkpt>
<trkpt lat="31.7962800" lon="35.1230200">
<ele>609.780029</ele>
<time>2022-05-05T07:31:31.564Z</time>
</trkpt>
<trkpt lat="31.7963100" lon="35.1229900">
<ele>610.109985</ele>
<time>2022-05-05T07:31:31.564Z</time>
</trkpt>
<trkpt lat="31.7963200" lon="35.1229500">
<ele>610.000000</ele>
<time>2022-05-05T07:31:31.564Z</time>
</trkpt>
<trkpt lat="31.7963300" lon="35.1229200">
<ele>609.960022</ele>
<time>2022-05-05T07:31:31.564Z</time>
</trkpt>
<trkpt lat="31.7963200" lon="35.1228800">
<ele>609.500000</ele>
<time>2022-05-05T07:31:31.564Z</time>
</trkpt>
<trkpt lat="31.7963100" lon="35.1228500">
<ele>609.100037</ele>
<time>2022-05-05T07:31:31.564Z</time>
</trkpt>
<trkpt lat="31.7962800" lon="35.1228200">
<ele>608.339966</ele>
<time>2022-05-05T07:31:31.564Z</time>
</trkpt>
<trkpt lat="31.7962500" lon="35.1228000">
<ele>607.659973</ele>
<time>2022-05-05T07:31:31.564Z</time>
</trkpt>
<trkpt lat="31.7962300" lon="35.1228000">
<ele>607.299988</ele>
<time>2022-05-05T07:31:31.564Z</time>
</trkpt>
<trkpt lat="31.7962200" lon="35.1225300">
<ele>605.720032</ele>
<time>2022-05-05T07:31:31.564Z</time>
</trkpt>
<trkpt lat="31.7962000" lon="35.1221600">
<ele>603.400024</ele>
<time>2022-05-05T07:31:31.564Z</time>
</trkpt>
<trkpt lat="31.7962000" lon="35.1221600">
<ele>603.400024</ele>
<time>2022-05-05T07:31:31.564Z</time>
</trkpt>
<trkpt lat="31.7962000" lon="35.1221600">
<ele>603.400024</ele>
<time>2022-05-05T07:31:31.564Z</time>
</trkpt>
<trkpt lat="31.7961800" lon="35.1218900">
<ele>602.970032</ele>
<time>2022-05-05T07:31:31.564Z</time>
</trkpt>
<trkpt lat="31.7961700" lon="35.1216400">
<ele>599.600037</ele>
<time>2022-05-05T07:31:31.564Z</time>
</trkpt>
<trkpt lat="31.7961300" lon="35.1212900">
<ele>597.640015</ele>
<time>2022-05-05T07:31:31.564Z</time>
</trkpt>
<trkpt lat="31.7960900" lon="35.1210400">
<ele>594.260010</ele>
<time>2022-05-05T07:31:31.564Z</time>
</trkpt>
<trkpt lat="31.7960200" lon="35.1207100">
<ele>591.429993</ele>
<time>2022-05-05T07:31:31.564Z</time>
</trkpt>
<trkpt lat="31.7959800" lon="35.1206000">
<ele>590.350037</ele>
<time>2022-05-05T07:31:31.564Z</time>
</trkpt>
<trkpt lat="31.7959400" lon="35.1205200">
<ele>589.280029</ele>
<time>2022-05-05T07:31:31.564Z</time>
</trkpt>
<trkpt lat="31.7958900" lon="35.1204700">
<ele>588.200012</ele>
<time>2022-05-05T07:31:31.564Z</time>
</trkpt>
<trkpt lat="31.7958600" lon="35.1204400">
<ele>587.549988</ele>
<time>2022-05-05T07:31:31.564Z</time>
</trkpt>
<trkpt lat="31.7958000" lon="35.1204000">
<ele>586.520020</ele>
<time>2022-05-05T07:31:31.564Z</time>
</trkpt>
<trkpt lat="31.7957500" lon="35.1203800">
<ele>585.840027</ele>
<time>2022-05-05T07:31:31.565Z</time>
</trkpt>
<trkpt lat="31.7956800" lon="35.1203800">
<ele>585.080017</ele>
<time>2022-05-05T07:31:31.565Z</time>
</trkpt>
<trkpt lat="31.7952900" lon="35.1204300">
<ele>584.000000</ele>
<time>2022-05-05T07:31:31.565Z</time>
</trkpt>
<trkpt lat="31.7952700" lon="35.1203900">
<ele>584.159973</ele>
<time>2022-05-05T07:31:31.565Z</time>
</trkpt>
<trkpt lat="31.7952400" lon="35.1203700">
<ele>584.770020</ele>
<time>2022-05-05T07:31:31.565Z</time>
</trkpt>
<trkpt lat="31.7952100" lon="35.1203700">
<ele>585.380005</ele>
<time>2022-05-05T07:31:31.565Z</time>
</trkpt>
<trkpt lat="31.7952000" lon="35.1203700">
<ele>585.590027</ele>
<time>2022-05-05T07:31:31.566Z</time>
</trkpt>
<trkpt lat="31.7951700" lon="35.1203800">
<ele>586.190002</ele>
<time>2022-05-05T07:31:31.566Z</time>
</trkpt>
<trkpt lat="31.7951400" lon="35.1202300">
<ele>586.889954</ele>
<time>2022-05-05T07:31:31.566Z</time>
</trkpt>
<trkpt lat="31.7951300" lon="35.1201600">
<ele>586.989990</ele>
<time>2022-05-05T07:31:31.566Z</time>
</trkpt>
<trkpt lat="31.7951400" lon="35.1199600">
<ele>586.690002</ele>
<time>2022-05-05T07:31:31.566Z</time>
</trkpt>
<trkpt lat="31.7952200" lon="35.1193800">
<ele>589.359985</ele>
<time>2022-05-05T07:31:31.566Z</time>
</trkpt>
<trkpt lat="31.7952200" lon="35.1189900">
<ele>592.669983</ele>
<time>2022-05-05T07:31:31.566Z</time>
</trkpt>
<trkpt lat="31.7951700" lon="35.1186300">
<ele>593.600037</ele>
<time>2022-05-05T07:31:31.566Z</time>
</trkpt>
<trkpt lat="31.7950600" lon="35.1184000">
<ele>592.859985</ele>
<time>2022-05-05T07:31:31.566Z</time>
</trkpt>
<trkpt lat="31.7949300" lon="35.1181800">
<ele>593.750000</ele>
<time>2022-05-05T07:31:31.566Z</time>
</trkpt>
<trkpt lat="31.7946600" lon="35.1177900">
<ele>594.320007</ele>
<time>2022-05-05T07:31:31.566Z</time>
</trkpt>
<trkpt lat="31.7943500" lon="35.1174700">
<ele>595.339966</ele>
<time>2022-05-05T07:31:31.566Z</time>
</trkpt>
<trkpt lat="31.7940200" lon="35.1172200">
<ele>596.520020</ele>
<time>2022-05-05T07:31:31.566Z</time>
</trkpt>
<trkpt lat="31.7939500" lon="35.1171800">
<ele>596.040039</ele>
<time>2022-05-05T07:31:31.566Z</time>
</trkpt>
<trkpt lat="31.7939500" lon="35.1171800">
<ele>596.040039</ele>
<time>2022-05-05T07:31:31.566Z</time>
</trkpt>
<trkpt lat="31.7939500" lon="35.1171800">
<ele>596.040039</ele>
<time>2022-05-05T07:31:31.566Z</time>
</trkpt>
<trkpt lat="31.7935300" lon="35.1169700">
<ele>598.090027</ele>
<time>2022-05-05T07:31:31.566Z</time>
</trkpt>
<trkpt lat="31.7934900" lon="35.1169600">
<ele>598.299988</ele>
<time>2022-05-05T07:31:31.566Z</time>
</trkpt>
<trkpt lat="31.7933600" lon="35.1169200">
<ele>598.669983</ele>
<time>2022-05-05T07:31:31.566Z</time>
</trkpt>
<trkpt lat="31.7932200" lon="35.1168800">
<ele>597.450012</ele>
<time>2022-05-05T07:31:31.566Z</time>
</trkpt>
<trkpt lat="31.7929400" lon="35.1167600">
<ele>590.890015</ele>
<time>2022-05-05T07:31:31.566Z</time>
</trkpt>
<trkpt lat="31.7928200" lon="35.1167000">
<ele>586.830017</ele>
<time>2022-05-05T07:31:31.566Z</time>
</trkpt>
<trkpt lat="31.7923600" lon="35.1166000">
<ele>583.209961</ele>
<time>2022-05-05T07:31:31.566Z</time>
</trkpt>
<trkpt lat="31.7918400" lon="35.1168500">
<ele>586.380005</ele>
<time>2022-05-05T07:31:31.566Z</time>
</trkpt>
<trkpt lat="31.7915500" lon="35.1167300">
<ele>585.429993</ele>
<time>2022-05-05T07:31:31.566Z</time>
</trkpt>
<trkpt lat="31.7915000" lon="35.1164300">
<ele>584.010010</ele>
<time>2022-05-05T07:31:31.566Z</time>
</trkpt>
<trkpt lat="31.7914100" lon="35.1161300">
<ele>581.039978</ele>
<time>2022-05-05T07:31:31.566Z</time>
</trkpt>
<trkpt lat="31.7913700" lon="35.1159000">
<ele>577.320007</ele>
<time>2022-05-05T07:31:31.566Z</time>
</trkpt>
<trkpt lat="31.7912800" lon="35.1155500">
<ele>573.780029</ele>
<time>2022-05-05T07:31:31.566Z</time>
</trkpt>
<trkpt lat="31.7912300" lon="35.1153900">
<ele>573.799988</ele>
<time>2022-05-05T07:31:31.566Z</time>
</trkpt>
<trkpt lat="31.7912200" lon="35.1153200">
<ele>573.700012</ele>
<time>2022-05-05T07:31:31.566Z</time>
</trkpt>
<trkpt lat="31.7910900" lon="35.1150500">
<ele>573.409973</ele>
<time>2022-05-05T07:31:31.566Z</time>
</trkpt>
<trkpt lat="31.7910300" lon="35.1149100">
<ele>573.419983</ele>
<time>2022-05-05T07:31:31.567Z</time>
</trkpt>
<trkpt lat="31.7910000" lon="35.1148000">
<ele>573.340027</ele>
<time>2022-05-05T07:31:31.567Z</time>
</trkpt>
<trkpt lat="31.7907900" lon="35.1138300">
<ele>570.650024</ele>
<time>2022-05-05T07:31:31.567Z</time>
</trkpt>
<trkpt lat="31.7907400" lon="35.1137200">
<ele>571.409973</ele>
<time>2022-05-05T07:31:31.567Z</time>
</trkpt>
<trkpt lat="31.7907300" lon="35.1136900">
<ele>571.570007</ele>
<time>2022-05-05T07:31:31.567Z</time>
</trkpt>
<trkpt lat="31.7906300" lon="35.1135600">
<ele>572.460022</ele>
<time>2022-05-05T07:31:31.567Z</time>
</trkpt>
<trkpt lat="31.7905600" lon="35.1135100">
<ele>572.970032</ele>
<time>2022-05-05T07:31:31.567Z</time>
</trkpt>
<trkpt lat="31.7905000" lon="35.1133300">
<ele>573.179993</ele>
<time>2022-05-05T07:31:31.567Z</time>
</trkpt>
<trkpt lat="31.7904900" lon="35.1132100">
<ele>572.479980</ele>
<time>2022-05-05T07:31:31.567Z</time>
</trkpt>
<trkpt lat="31.7905100" lon="35.1131200">
<ele>572.020020</ele>
<time>2022-05-05T07:31:31.567Z</time>
</trkpt>
<trkpt lat="31.7906100" lon="35.1128100">
<ele>569.150024</ele>
<time>2022-05-05T07:31:31.567Z</time>
</trkpt>
<trkpt lat="31.7907100" lon="35.1125800">
<ele>568.679993</ele>
<time>2022-05-05T07:31:31.567Z</time>
</trkpt>
<trkpt lat="31.7907600" lon="35.1124300">
<ele>568.190002</ele>
<time>2022-05-05T07:31:31.567Z</time>
</trkpt>
<trkpt lat="31.7907700" lon="35.1123900">
<ele>568.090027</ele>
<time>2022-05-05T07:31:31.567Z</time>
</trkpt>
<trkpt lat="31.7908000" lon="35.1122900">
<ele>567.660034</ele>
<time>2022-05-05T07:31:31.567Z</time>
</trkpt>
<trkpt lat="31.7908000" lon="35.1121900">
<ele>567.719971</ele>
<time>2022-05-05T07:31:31.567Z</time>
</trkpt>
<trkpt lat="31.7908200" lon="35.1120700">
<ele>567.289978</ele>
<time>2022-05-05T07:31:31.568Z</time>
</trkpt>
<trkpt lat="31.7908500" lon="35.1119000">
<ele>566.700012</ele>
<time>2022-05-05T07:31:31.568Z</time>
</trkpt>
<trkpt lat="31.7908900" lon="35.1118000">
<ele>565.979980</ele>
<time>2022-05-05T07:31:31.568Z</time>
</trkpt>
<trkpt lat="31.7908900" lon="35.1118000">
<ele>565.979980</ele>
<time>2022-05-05T07:31:31.568Z</time>
</trkpt>
<trkpt lat="31.7908900" lon="35.1118000">
<ele>565.979980</ele>
<time>2022-05-05T07:31:31.568Z</time>
</trkpt>
<trkpt lat="31.7909500" lon="35.1116700">
<ele>564.899963</ele>
<time>2022-05-05T07:31:31.568Z</time>
</trkpt>
<trkpt lat="31.7911300" lon="35.1112600">
<ele>563.730042</ele>
<time>2022-05-05T07:31:31.568Z</time>
</trkpt>
<trkpt lat="31.7912900" lon="35.1109100">
<ele>562.679993</ele>
<time>2022-05-05T07:31:31.568Z</time>
</trkpt>
<trkpt lat="31.7915300" lon="35.1104800">
<ele>563.830017</ele>
<time>2022-05-05T07:31:31.568Z</time>
</trkpt>
<trkpt lat="31.7917000" lon="35.1102500">
<ele>564.989990</ele>
<time>2022-05-05T07:31:31.568Z</time>
</trkpt>
<trkpt lat="31.7918300" lon="35.1101100">
<ele>565.330017</ele>
<time>2022-05-05T07:31:31.568Z</time>
</trkpt>
<trkpt lat="31.7921600" lon="35.1098400">
<ele>562.140015</ele>
<time>2022-05-05T07:31:31.568Z</time>
</trkpt>
<trkpt lat="31.7924900" lon="35.1095100">
<ele>560.539978</ele>
<time>2022-05-05T07:31:31.568Z</time>
</trkpt>
<trkpt lat="31.7927500" lon="35.1092100">
<ele>561.650024</ele>
<time>2022-05-05T07:31:31.568Z</time>
</trkpt>
<trkpt lat="31.7929800" lon="35.1088800">
<ele>558.550049</ele>
<time>2022-05-05T07:31:31.568Z</time>
</trkpt>
<trkpt lat="31.7931700" lon="35.1086700">
<ele>557.679993</ele>
<time>2022-05-05T07:31:31.568Z</time>
</trkpt>
<trkpt lat="31.7932500" lon="35.1085400">
<ele>557.630005</ele>
<time>2022-05-05T07:31:31.568Z</time>
</trkpt>
<trkpt lat="31.7933000" lon="35.1084200">
<ele>557.890015</ele>
<time>2022-05-05T07:31:31.568Z</time>
</trkpt>
<trkpt lat="31.7933100" lon="35.1083400">
<ele>558.140015</ele>
<time>2022-05-05T07:31:31.568Z</time>
</trkpt>
<trkpt lat="31.7932900" lon="35.1081700">
<ele>558.720032</ele>
<time>2022-05-05T07:31:31.568Z</time>
</trkpt>
<trkpt lat="31.7931000" lon="35.1077600">
<ele>558.940002</ele>
<time>2022-05-05T07:31:31.568Z</time>
</trkpt>
<trkpt lat="31.7930300" lon="35.1076600">
<ele>558.769958</ele>
<time>2022-05-05T07:31:31.568Z</time>
</trkpt>
<trkpt lat="31.7929500" lon="35.1075400">
<ele>558.630005</ele>
<time>2022-05-05T07:31:31.568Z</time>
</trkpt>
<trkpt lat="31.7928500" lon="35.1073400">
<ele>556.739990</ele>
<time>2022-05-05T07:31:31.568Z</time>
</trkpt>
<trkpt lat="31.7927000" lon="35.1069100">
<ele>552.330017</ele>
<time>2022-05-05T07:31:31.568Z</time>
</trkpt>
<trkpt lat="31.7926400" lon="35.1066900">
<ele>550.710022</ele>
<time>2022-05-05T07:31:31.568Z</time>
</trkpt>
<trkpt lat="31.7925200" lon="35.1063200">
<ele>548.750000</ele>
<time>2022-05-05T07:31:31.568Z</time>
</trkpt>
<trkpt lat="31.7924800" lon="35.1060600">
<ele>548.029968</ele>
<time>2022-05-05T07:31:31.568Z</time>
</trkpt>
<trkpt lat="31.7924000" lon="35.1051800">
<ele>548.849976</ele>
<time>2022-05-05T07:31:31.569Z</time>
</trkpt>
<trkpt lat="31.7924100" lon="35.1048600">
<ele>548.630005</ele>
<time>2022-05-05T07:31:31.569Z</time>
</trkpt>
<trkpt lat="31.7925000" lon="35.1041900">
<ele>547.919983</ele>
<time>2022-05-05T07:31:31.569Z</time>
</trkpt>
<trkpt lat="31.7925000" lon="35.1040200">
<ele>548.000000</ele>
<time>2022-05-05T07:31:31.569Z</time>
</trkpt>
<trkpt lat="31.7924900" lon="35.1038100">
<ele>547.590027</ele>
<time>2022-05-05T07:31:31.569Z</time>
</trkpt>
<trkpt lat="31.7924900" lon="35.1035700">
<ele>545.890015</ele>
<time>2022-05-05T07:31:31.569Z</time>
</trkpt>
<trkpt lat="31.7924900" lon="35.1034600">
<ele>545.109985</ele>
<time>2022-05-05T07:31:31.569Z</time>
</trkpt>
<trkpt lat="31.7924600" lon="35.1031000">
<ele>544.500000</ele>
<time>2022-05-05T07:31:31.569Z</time>
</trkpt>
<trkpt lat="31.7924400" lon="35.1029900">
<ele>544.779968</ele>
<time>2022-05-05T07:31:31.569Z</time>
</trkpt>
<trkpt lat="31.7922400" lon="35.1024200">
<ele>546.890015</ele>
<time>2022-05-05T07:31:31.569Z</time>
</trkpt>
<trkpt lat="31.7921800" lon="35.1022900">
<ele>547.359985</ele>
<time>2022-05-05T07:31:31.569Z</time>
</trkpt>
<trkpt lat="31.7920300" lon="35.1020700">
<ele>548.049988</ele>
<time>2022-05-05T07:31:31.569Z</time>
</trkpt>
<trkpt lat="31.7919500" lon="35.1019600">
<ele>547.970032</ele>
<time>2022-05-05T07:31:31.569Z</time>
</trkpt>
<trkpt lat="31.7913500" lon="35.1012700">
<ele>550.109985</ele>
<time>2022-05-05T07:31:31.569Z</time>
</trkpt>
<trkpt lat="31.7910100" lon="35.1009600">
<ele>552.500000</ele>
<time>2022-05-05T07:31:31.569Z</time>
</trkpt>
<trkpt lat="31.7908800" lon="35.1008300">
<ele>551.929993</ele>
<time>2022-05-05T07:31:31.569Z</time>
</trkpt>
<trkpt lat="31.7907700" lon="35.1007100">
<ele>549.160034</ele>
<time>2022-05-05T07:31:31.569Z</time>
</trkpt>
<trkpt lat="31.7906600" lon="35.1005500">
<ele>547.219971</ele>
<time>2022-05-05T07:31:31.569Z</time>
</trkpt>
<trkpt lat="31.7904900" lon="35.1003900">
<ele>547.039978</ele>
<time>2022-05-05T07:31:31.569Z</time>
</trkpt>
<trkpt lat="31.7904000" lon="35.1002800">
<ele>546.580017</ele>
<time>2022-05-05T07:31:31.569Z</time>
</trkpt>
<trkpt lat="31.7903200" lon="35.1001600">
<ele>545.279968</ele>
<time>2022-05-05T07:31:31.569Z</time>
</trkpt>
<trkpt lat="31.7901000" lon="35.0996900">
<ele>542.130005</ele>
<time>2022-05-05T07:31:31.569Z</time>
</trkpt>
<trkpt lat="31.7900500" lon="35.0995400">
<ele>541.559998</ele>
<time>2022-05-05T07:31:31.569Z</time>
</trkpt>
<trkpt lat="31.7900400" lon="35.0991300">
<ele>538.040039</ele>
<time>2022-05-05T07:31:31.570Z</time>
</trkpt>
<trkpt lat="31.7900700" lon="35.0988300">
<ele>536.440002</ele>
<time>2022-05-05T07:31:31.570Z</time>
</trkpt>
<trkpt lat="31.7902600" lon="35.0976200">
<ele>535.179993</ele>
<time>2022-05-05T07:31:31.570Z</time>
</trkpt>
<trkpt lat="31.7903800" lon="35.0971200">
<ele>533.869995</ele>
<time>2022-05-05T07:31:31.570Z</time>
</trkpt>
<trkpt lat="31.7903900" lon="35.0969800">
<ele>534.159973</ele>
<time>2022-05-05T07:31:31.570Z</time>
</trkpt>
<trkpt lat="31.7903800" lon="35.0968200">
<ele>534.100037</ele>
<time>2022-05-05T07:31:31.570Z</time>
</trkpt>
<trkpt lat="31.7904100" lon="35.0966000">
<ele>533.710022</ele>
<time>2022-05-05T07:31:31.570Z</time>
</trkpt>
<trkpt lat="31.7906900" lon="35.0958900">
<ele>526.260010</ele>
<time>2022-05-05T07:31:31.570Z</time>
</trkpt>
<trkpt lat="31.7907700" lon="35.0957400">
<ele>525.609985</ele>
<time>2022-05-05T07:31:31.570Z</time>
</trkpt>
<trkpt lat="31.7909200" lon="35.0956300">
<ele>525.679993</ele>
<time>2022-05-05T07:31:31.570Z</time>
</trkpt>
<trkpt lat="31.7911400" lon="35.0954000">
<ele>524.190002</ele>
<time>2022-05-05T07:31:31.570Z</time>
</trkpt>
<trkpt lat="31.7913100" lon="35.0952800">
<ele>520.900024</ele>
<time>2022-05-05T07:31:31.570Z</time>
</trkpt>
<trkpt lat="31.7914600" lon="35.0952100">
<ele>521.529968</ele>
<time>2022-05-05T07:31:31.570Z</time>
</trkpt>
<trkpt lat="31.7919500" lon="35.0951100">
<ele>525.359985</ele>
<time>2022-05-05T07:31:31.570Z</time>
</trkpt>
<trkpt lat="31.7920600" lon="35.0951300">
<ele>526.849976</ele>
<time>2022-05-05T07:31:31.570Z</time>
</trkpt>
<trkpt lat="31.7922500" lon="35.0952200">
<ele>527.299988</ele>
<time>2022-05-05T07:31:31.570Z</time>
</trkpt>
<trkpt lat="31.7935800" lon="35.0955000">
<ele>519.669983</ele>
<time>2022-05-05T07:31:31.570Z</time>
</trkpt>
<trkpt lat="31.7940100" lon="35.0955600">
<ele>517.119995</ele>
<time>2022-05-05T07:31:31.570Z</time>
</trkpt>
<trkpt lat="31.7942400" lon="35.0955400">
<ele>516.020020</ele>
<time>2022-05-05T07:31:31.570Z</time>
</trkpt>
<trkpt lat="31.7944000" lon="35.0954900">
<ele>514.630005</ele>
<time>2022-05-05T07:31:31.570Z</time>
</trkpt>
<trkpt lat="31.7944600" lon="35.0954800">
<ele>514.929993</ele>
<time>2022-05-05T07:31:31.570Z</time>
</trkpt>
<trkpt lat="31.7945500" lon="35.0954300">
<ele>518.179993</ele>
<time>2022-05-05T07:31:31.570Z</time>
</trkpt>
<trkpt lat="31.7947800" lon="35.0950800">
<ele>517.140015</ele>
<time>2022-05-05T07:31:31.570Z</time>
</trkpt>
<trkpt lat="31.7948900" lon="35.0949600">
<ele>515.700012</ele>
<time>2022-05-05T07:31:31.570Z</time>
</trkpt>
<trkpt lat="31.7952600" lon="35.0946200">
<ele>513.649963</ele>
<time>2022-05-05T07:31:31.570Z</time>
</trkpt>
<trkpt lat="31.7953100" lon="35.0945600">
<ele>514.239990</ele>
<time>2022-05-05T07:31:31.570Z</time>
</trkpt>
<trkpt lat="31.7953800" lon="35.0944300">
<ele>515.450012</ele>
<time>2022-05-05T07:31:31.570Z</time>
</trkpt>
<trkpt lat="31.7954700" lon="35.0941700">
<ele>515.019958</ele>
<time>2022-05-05T07:31:31.570Z</time>
</trkpt>
<trkpt lat="31.7955000" lon="35.0939900">
<ele>516.529968</ele>
<time>2022-05-05T07:31:31.570Z</time>
</trkpt>
<trkpt lat="31.7955000" lon="35.0939900">
<ele>516.529968</ele>
<time>2022-05-05T07:31:31.570Z</time>
</trkpt>
<trkpt lat="31.7955000" lon="35.0939900">
<ele>516.529968</ele>
<time>2022-05-05T07:31:31.570Z</time>
</trkpt>
<trkpt lat="31.7955100" lon="35.0939400">
<ele>516.899963</ele>
<time>2022-05-05T07:31:31.570Z</time>
</trkpt>
<trkpt lat="31.7955500" lon="35.0933300">
<ele>520.169983</ele>
<time>2022-05-05T07:31:31.570Z</time>
</trkpt>
<trkpt lat="31.7955200" lon="35.0930400">
<ele>521.900024</ele>
<time>2022-05-05T07:31:31.570Z</time>
</trkpt>
<trkpt lat="31.7955000" lon="35.0929000">
<ele>523.320007</ele>
<time>2022-05-05T07:31:31.570Z</time>
</trkpt>
<trkpt lat="31.7954500" lon="35.0927400">
<ele>524.239990</ele>
<time>2022-05-05T07:31:31.570Z</time>
</trkpt>
<trkpt lat="31.7953200" lon="35.0924800">
<ele>523.789978</ele>
<time>2022-05-05T07:31:31.570Z</time>
</trkpt>
<trkpt lat="31.7952700" lon="35.0922100">
<ele>523.080017</ele>
<time>2022-05-05T07:31:31.570Z</time>
</trkpt>
<trkpt lat="31.7951700" lon="35.0919300">
<ele>523.780029</ele>
<time>2022-05-05T07:31:31.570Z</time>
</trkpt>
<trkpt lat="31.7951500" lon="35.0918800">
<ele>523.849976</ele>
<time>2022-05-05T07:31:31.570Z</time>
</trkpt>
<trkpt lat="31.7951000" lon="35.0915600">
<ele>523.360046</ele>
<time>2022-05-05T07:31:31.570Z</time>
</trkpt>
<trkpt lat="31.7949300" lon="35.0911600">
<ele>522.410034</ele>
<time>2022-05-05T07:31:31.570Z</time>
</trkpt>
<trkpt lat="31.7949000" lon="35.0910500">
<ele>522.280029</ele>
<time>2022-05-05T07:31:31.570Z</time>
</trkpt>
<trkpt lat="31.7947700" lon="35.0905000">
<ele>522.320007</ele>
<time>2022-05-05T07:31:31.570Z</time>
</trkpt>
<trkpt lat="31.7946900" lon="35.0900300">
<ele>519.099976</ele>
<time>2022-05-05T07:31:31.570Z</time>
</trkpt>
<trkpt lat="31.7946300" lon="35.0894000">
<ele>519.049988</ele>
<time>2022-05-05T07:31:31.570Z</time>
</trkpt>
<trkpt lat="31.7946400" lon="35.0891300">
<ele>519.260010</ele>
<time>2022-05-05T07:31:31.570Z</time>
</trkpt>
<trkpt lat="31.7946300" lon="35.0889900">
<ele>519.119995</ele>
<time>2022-05-05T07:31:31.570Z</time>
</trkpt>
<trkpt lat="31.7946700" lon="35.0873800">
<ele>514.029968</ele>
<time>2022-05-05T07:31:31.570Z</time>
</trkpt>
<trkpt lat="31.7947100" lon="35.0869900">
<ele>513.760010</ele>
<time>2022-05-05T07:31:31.570Z</time>
</trkpt>
<trkpt lat="31.7948000" lon="35.0863600">
<ele>513.980042</ele>
<time>2022-05-05T07:31:31.571Z</time>
</trkpt>
<trkpt lat="31.7948400" lon="35.0862000">
<ele>512.859985</ele>
<time>2022-05-05T07:31:31.572Z</time>
</trkpt>
<trkpt lat="31.7948600" lon="35.0860700">
<ele>512.330017</ele>
<time>2022-05-05T07:31:31.572Z</time>
</trkpt>
<trkpt lat="31.7949100" lon="35.0858800">
<ele>512.260010</ele>
<time>2022-05-05T07:31:31.572Z</time>
</trkpt>
<trkpt lat="31.7950900" lon="35.0854100">
<ele>509.089996</ele>
<time>2022-05-05T07:31:31.572Z</time>
</trkpt>
<trkpt lat="31.7951300" lon="35.0852600">
<ele>507.959991</ele>
<time>2022-05-05T07:31:31.572Z</time>
</trkpt>
<trkpt lat="31.7952000" lon="35.0851000">
<ele>508.100006</ele>
<time>2022-05-05T07:31:31.572Z</time>
</trkpt>
<trkpt lat="31.7952800" lon="35.0849600">
<ele>508.760010</ele>
<time>2022-05-05T07:31:31.572Z</time>
</trkpt>
<trkpt lat="31.7954300" lon="35.0847400">
<ele>510.929993</ele>
<time>2022-05-05T07:31:31.572Z</time>
</trkpt>
<trkpt lat="31.7957800" lon="35.0843600">
<ele>517.469971</ele>
<time>2022-05-05T07:31:31.572Z</time>
</trkpt>
<trkpt lat="31.7958800" lon="35.0842200">
<ele>518.789978</ele>
<time>2022-05-05T07:31:31.572Z</time>
</trkpt>
<trkpt lat="31.7959700" lon="35.0840500">
<ele>519.679993</ele>
<time>2022-05-05T07:31:31.572Z</time>
</trkpt>
<trkpt lat="31.7959900" lon="35.0839300">
<ele>520.169983</ele>
<time>2022-05-05T07:31:31.572Z</time>
</trkpt>
<trkpt lat="31.7960800" lon="35.0832800">
<ele>517.869995</ele>
<time>2022-05-05T07:31:31.572Z</time>
</trkpt>
<trkpt lat="31.7960800" lon="35.0829700">
<ele>518.320007</ele>
<time>2022-05-05T07:31:31.572Z</time>
</trkpt>
<trkpt lat="31.7961000" lon="35.0827300">
<ele>520.530029</ele>
<time>2022-05-05T07:31:31.572Z</time>
</trkpt>
<trkpt lat="31.7960800" lon="35.0824100">
<ele>524.919983</ele>
<time>2022-05-05T07:31:31.572Z</time>
</trkpt>
<trkpt lat="31.7961100" lon="35.0821200">
<ele>528.719971</ele>
<time>2022-05-05T07:31:31.572Z</time>
</trkpt>
<trkpt lat="31.7963300" lon="35.0812000">
<ele>526.760010</ele>
<time>2022-05-05T07:31:31.572Z</time>
</trkpt>
<trkpt lat="31.7963900" lon="35.0810500">
<ele>528.029968</ele>
<time>2022-05-05T07:31:31.572Z</time>
</trkpt>
<trkpt lat="31.7965600" lon="35.0807600">
<ele>532.489990</ele>
<time>2022-05-05T07:31:31.572Z</time>
</trkpt>
<trkpt lat="31.7966000" lon="35.0806300">
<ele>534.760010</ele>
<time>2022-05-05T07:31:31.572Z</time>
</trkpt>
<trkpt lat="31.7965900" lon="35.0804900">
<ele>536.349976</ele>
<time>2022-05-05T07:31:31.572Z</time>
</trkpt>
<trkpt lat="31.7965600" lon="35.0802000">
<ele>540.480042</ele>
<time>2022-05-05T07:31:31.572Z</time>
</trkpt>
<trkpt lat="31.7965900" lon="35.0797000">
<ele>550.419983</ele>
<time>2022-05-05T07:31:31.572Z</time>
</trkpt>
<trkpt lat="31.7965700" lon="35.0795000">
<ele>553.010010</ele>
<time>2022-05-05T07:31:31.572Z</time>
</trkpt>
<trkpt lat="31.7965600" lon="35.0794500">
<ele>553.459961</ele>
<time>2022-05-05T07:31:31.572Z</time>
</trkpt>
<trkpt lat="31.7965600" lon="35.0794500">
<ele>553.459961</ele>
<time>2022-05-05T07:31:31.572Z</time>
</trkpt>
<trkpt lat="31.7965600" lon="35.0794500">
<ele>553.459961</ele>
<time>2022-05-05T07:31:31.572Z</time>
</trkpt>
<trkpt lat="31.7964400" lon="35.0788000">
<ele>554.429993</ele>
<time>2022-05-05T07:31:31.572Z</time>
</trkpt>
<trkpt lat="31.7963500" lon="35.0786500">
<ele>554.659973</ele>
<time>2022-05-05T07:31:31.572Z</time>
</trkpt>
<trkpt lat="31.7962500" lon="35.0785600">
<ele>556.010010</ele>
<time>2022-05-05T07:31:31.573Z</time>
</trkpt>
<trkpt lat="31.7958500" lon="35.0782500">
<ele>562.130005</ele>
<time>2022-05-05T07:31:31.573Z</time>
</trkpt>
<trkpt lat="31.7957500" lon="35.0781900">
<ele>562.760010</ele>
<time>2022-05-05T07:31:31.573Z</time>
</trkpt>
<trkpt lat="31.7956400" lon="35.0781600">
<ele>562.799988</ele>
<time>2022-05-05T07:31:31.573Z</time>
</trkpt>
<trkpt lat="31.7959200" lon="35.0781700">
<ele>563.280029</ele>
<time>2022-05-05T07:31:31.573Z</time>
</trkpt>
<trkpt lat="31.7964900" lon="35.0782900">
<ele>564.679993</ele>
<time>2022-05-05T07:31:31.573Z</time>
</trkpt>
<trkpt lat="31.7967900" lon="35.0783100">
<ele>569.030029</ele>
<time>2022-05-05T07:31:31.573Z</time>
</trkpt>
<trkpt lat="31.7968800" lon="35.0783500">
<ele>569.649963</ele>
<time>2022-05-05T07:31:31.573Z</time>
</trkpt>
<trkpt lat="31.7969000" lon="35.0784700">
<ele>568.650024</ele>
<time>2022-05-05T07:31:31.574Z</time>
</trkpt>
<trkpt lat="31.7969600" lon="35.0789200">
<ele>564.320007</ele>
<time>2022-05-05T07:31:31.574Z</time>
</trkpt>
<trkpt lat="31.7970500" lon="35.0791900">
<ele>564.679993</ele>
<time>2022-05-05T07:31:31.574Z</time>
</trkpt>
<trkpt lat="31.7971200" lon="35.0794200">
<ele>564.000000</ele>
<time>2022-05-05T07:31:31.574Z</time>
</trkpt>
<trkpt lat="31.7973600" lon="35.0799000">
<ele>566.830017</ele>
<time>2022-05-05T07:31:31.574Z</time>
</trkpt>
<trkpt lat="31.7975900" lon="35.0803300">
<ele>571.369995</ele>
<time>2022-05-05T07:31:31.574Z</time>
</trkpt>
<trkpt lat="31.7976400" lon="35.0804400">
<ele>571.940002</ele>
<time>2022-05-05T07:31:31.574Z</time>
</trkpt>
<trkpt lat="31.7976400" lon="35.0803700">
<ele>572.190002</ele>
<time>2022-05-05T07:31:31.574Z</time>
</trkpt>
<trkpt lat="31.7976400" lon="35.0802700">
<ele>572.580017</ele>
<time>2022-05-05T07:31:31.574Z</time>
</trkpt>
<trkpt lat="31.7976100" lon="35.0801300">
<ele>572.820007</ele>
<time>2022-05-05T07:31:31.574Z</time>
</trkpt>
<trkpt lat="31.7975500" lon="35.0799400">
<ele>571.950012</ele>
<time>2022-05-05T07:31:31.574Z</time>
</trkpt>
<trkpt lat="31.7975000" lon="35.0797800">
<ele>570.790039</ele>
<time>2022-05-05T07:31:31.574Z</time>
</trkpt>
<trkpt lat="31.7974700" lon="35.0796200">
<ele>571.959961</ele>
<time>2022-05-05T07:31:31.574Z</time>
</trkpt>
<trkpt lat="31.7974600" lon="35.0795300">
<ele>573.149963</ele>
<time>2022-05-05T07:31:31.574Z</time>
</trkpt>
<trkpt lat="31.7974600" lon="35.0795300">
<ele>573.149963</ele>
<time>2022-05-05T07:31:31.574Z</time>
</trkpt>
<trkpt lat="31.7974600" lon="35.0795300">
<ele>573.149963</ele>
<time>2022-05-05T07:31:31.574Z</time>
</trkpt>
<trkpt lat="31.7974500" lon="35.0794300">
<ele>574.219971</ele>
<time>2022-05-05T07:31:31.574Z</time>
</trkpt>
<trkpt lat="31.7974500" lon="35.0792700">
<ele>574.429993</ele>
<time>2022-05-05T07:31:31.574Z</time>
</trkpt>
<trkpt lat="31.7974500" lon="35.0791300">
<ele>574.979980</ele>
<time>2022-05-05T07:31:31.574Z</time>
</trkpt>
<trkpt lat="31.7974400" lon="35.0790300">
<ele>575.849976</ele>
<time>2022-05-05T07:31:31.574Z</time>
</trkpt>
<trkpt lat="31.7974100" lon="35.0789200">
<ele>576.359985</ele>
<time>2022-05-05T07:31:31.574Z</time>
</trkpt>
<trkpt lat="31.7972900" lon="35.0781200">
<ele>582.070007</ele>
<time>2022-05-05T07:31:31.574Z</time>
</trkpt>
<trkpt lat="31.7972800" lon="35.0780300">
<ele>582.789978</ele>
<time>2022-05-05T07:31:31.574Z</time>
</trkpt>
<trkpt lat="31.7972300" lon="35.0777000">
<ele>586.520020</ele>
<time>2022-05-05T07:31:31.574Z</time>
</trkpt>
<trkpt lat="31.7972100" lon="35.0776400">
<ele>587.660034</ele>
<time>2022-05-05T07:31:31.574Z</time>
</trkpt>
<trkpt lat="31.7971900" lon="35.0775800">
<ele>589.119995</ele>
<time>2022-05-05T07:31:31.574Z</time>
</trkpt>
<trkpt lat="31.7971600" lon="35.0775200">
<ele>590.919983</ele>
<time>2022-05-05T07:31:31.574Z</time>
</trkpt>
<trkpt lat="31.7971300" lon="35.0774600">
<ele>592.859985</ele>
<time>2022-05-05T07:31:31.574Z</time>
</trkpt>
<trkpt lat="31.7971000" lon="35.0774100">
<ele>594.580017</ele>
<time>2022-05-05T07:31:31.574Z</time>
</trkpt>
<trkpt lat="31.7970600" lon="35.0773600">
<ele>596.529968</ele>
<time>2022-05-05T07:31:31.574Z</time>
</trkpt>
<trkpt lat="31.7970100" lon="35.0773100">
<ele>598.690002</ele>
<time>2022-05-05T07:31:31.574Z</time>
</trkpt>
<trkpt lat="31.7969600" lon="35.0772700">
<ele>600.630005</ele>
<time>2022-05-05T07:31:31.574Z</time>
</trkpt>
<trkpt lat="31.7969100" lon="35.0772300">
<ele>601.210022</ele>
<time>2022-05-05T07:31:31.574Z</time>
</trkpt>
<trkpt lat="31.7968500" lon="35.0772000">
<ele>600.700012</ele>
<time>2022-05-05T07:31:31.574Z</time>
</trkpt>
<trkpt lat="31.7964400" lon="35.0770300">
<ele>598.020020</ele>
<time>2022-05-05T07:31:31.574Z</time>
</trkpt>
<trkpt lat="31.7964000" lon="35.0770100">
<ele>597.609985</ele>
<time>2022-05-05T07:31:31.575Z</time>
</trkpt>
<trkpt lat="31.7963600" lon="35.0769800">
<ele>597.690002</ele>
<time>2022-05-05T07:31:31.575Z</time>
</trkpt>
<trkpt lat="31.7963300" lon="35.0769600">
<ele>597.760010</ele>
<time>2022-05-05T07:31:31.575Z</time>
</trkpt>
<trkpt lat="31.7963000" lon="35.0769200">
<ele>597.960022</ele>
<time>2022-05-05T07:31:31.575Z</time>
</trkpt>
<trkpt lat="31.7962800" lon="35.0768900">
<ele>597.940002</ele>
<time>2022-05-05T07:31:31.575Z</time>
</trkpt>
<trkpt lat="31.7962600" lon="35.0768500">
<ele>598.010010</ele>
<time>2022-05-05T07:31:31.575Z</time>
</trkpt>
<trkpt lat="31.7962400" lon="35.0768100">
<ele>598.049988</ele>
<time>2022-05-05T07:31:31.575Z</time>
</trkpt>
<trkpt lat="31.7962300" lon="35.0767600">
<ele>598.320007</ele>
<time>2022-05-05T07:31:31.575Z</time>
</trkpt>
<trkpt lat="31.7962300" lon="35.0767500">
<ele>598.409973</ele>
<time>2022-05-05T07:31:31.575Z</time>
</trkpt>
<trkpt lat="31.7962300" lon="35.0767500">
<ele>598.409973</ele>
<time>2022-05-05T07:31:31.575Z</time>
</trkpt>
<trkpt lat="31.7962300" lon="35.0767100">
<ele>598.760010</ele>
<time>2022-05-05T07:31:31.575Z</time>
</trkpt>
<trkpt lat="31.7962300" lon="35.0766500">
<ele>599.369995</ele>
<time>2022-05-05T07:31:31.575Z</time>
</trkpt>
<trkpt lat="31.7962500" lon="35.0766500">
<ele>599.739990</ele>
<time>2022-05-05T07:31:31.575Z</time>
</trkpt>
<trkpt lat="31.7962900" lon="35.0766500">
<ele>600.479980</ele>
<time>2022-05-05T07:31:31.575Z</time>
</trkpt>
<trkpt lat="31.7963200" lon="35.0766500">
<ele>601.029968</ele>
<time>2022-05-05T07:31:31.575Z</time>
</trkpt>
<trkpt lat="31.7963600" lon="35.0766500">
<ele>601.770020</ele>
<time>2022-05-05T07:31:31.575Z</time>
</trkpt>
<trkpt lat="31.7964000" lon="35.0766500">
<ele>602.529968</ele>
<time>2022-05-05T07:31:31.575Z</time>
</trkpt>
<trkpt lat="31.7965200" lon="35.0766400">
<ele>605.089966</ele>
<time>2022-05-05T07:31:31.575Z</time>
</trkpt>
<trkpt lat="31.7966400" lon="35.0766300">
<ele>607.489990</ele>
<time>2022-05-05T07:31:31.575Z</time>
</trkpt>
<trkpt lat="31.7967600" lon="35.0766200">
<ele>607.940002</ele>
<time>2022-05-05T07:31:31.575Z</time>
</trkpt>
<trkpt lat="31.7967900" lon="35.0766100">
<ele>607.909973</ele>
<time>2022-05-05T07:31:31.575Z</time>
</trkpt>
<trkpt lat="31.7968800" lon="35.0766000">
<ele>607.820007</ele>
<time>2022-05-05T07:31:31.575Z</time>
</trkpt>
<trkpt lat="31.7970000" lon="35.0765900">
<ele>607.489990</ele>
<time>2022-05-05T07:31:31.575Z</time>
</trkpt>
<trkpt lat="31.7971200" lon="35.0765700">
<ele>607.049988</ele>
<time>2022-05-05T07:31:31.575Z</time>
</trkpt>
<trkpt lat="31.7972400" lon="35.0765600">
<ele>606.729980</ele>
<time>2022-05-05T07:31:31.575Z</time>
</trkpt>
<trkpt lat="31.7973600" lon="35.0765400">
<ele>606.640015</ele>
<time>2022-05-05T07:31:31.575Z</time>
</trkpt>
<trkpt lat="31.7974500" lon="35.0765300">
<ele>606.570007</ele>
<time>2022-05-05T07:31:31.575Z</time>
</trkpt>
<trkpt lat="31.7974500" lon="35.0765300">
<ele>606.570007</ele>
<time>2022-05-05T07:31:31.576Z</time>
</trkpt>
<trkpt lat="31.7974500" lon="35.0765300">
<ele>606.570007</ele>
<time>2022-05-05T07:31:31.576Z</time>
</trkpt>
<trkpt lat="31.7974800" lon="35.0765200">
<ele>606.619995</ele>
<time>2022-05-05T07:31:31.576Z</time>
</trkpt>
<trkpt lat="31.7976000" lon="35.0765100">
<ele>609.059998</ele>
<time>2022-05-05T07:31:31.576Z</time>
</trkpt>
<trkpt lat="31.7976300" lon="35.0765000">
<ele>609.890015</ele>
<time>2022-05-05T07:31:31.576Z</time>
</trkpt>
<trkpt lat="31.7976600" lon="35.0764900">
<ele>610.730042</ele>
<time>2022-05-05T07:31:31.576Z</time>
</trkpt>
<trkpt lat="31.7976900" lon="35.0764800">
<ele>611.580017</ele>
<time>2022-05-05T07:31:31.576Z</time>
</trkpt>
<trkpt lat="31.7977100" lon="35.0764700">
<ele>612.200012</ele>
<time>2022-05-05T07:31:31.576Z</time>
</trkpt>
<trkpt lat="31.7977300" lon="35.0764500">
<ele>612.950012</ele>
<time>2022-05-05T07:31:31.576Z</time>
</trkpt>
<trkpt lat="31.7977500" lon="35.0764400">
<ele>613.580017</ele>
<time>2022-05-05T07:31:31.576Z</time>
</trkpt>
<trkpt lat="31.7977600" lon="35.0764200">
<ele>614.109985</ele>
<time>2022-05-05T07:31:31.576Z</time>
</trkpt>
<trkpt lat="31.7977700" lon="35.0764000">
<ele>614.650024</ele>
<time>2022-05-05T07:31:31.576Z</time>
</trkpt>
<trkpt lat="31.7977800" lon="35.0763900">
<ele>615.019958</ele>
<time>2022-05-05T07:31:31.576Z</time>
</trkpt>
<trkpt lat="31.7977900" lon="35.0763700">
<ele>615.179993</ele>
<time>2022-05-05T07:31:31.576Z</time>
</trkpt>
<trkpt lat="31.7978000" lon="35.0763500">
<ele>615.320007</ele>
<time>2022-05-05T07:31:31.576Z</time>
</trkpt>
<trkpt lat="31.7978100" lon="35.0763300">
<ele>615.460022</ele>
<time>2022-05-05T07:31:31.576Z</time>
</trkpt>
<trkpt lat="31.7978200" lon="35.0763100">
<ele>615.609985</ele>
<time>2022-05-05T07:31:31.576Z</time>
</trkpt>
<trkpt lat="31.7978400" lon="35.0762900">
<ele>615.900024</ele>
<time>2022-05-05T07:31:31.576Z</time>
</trkpt>
<trkpt lat="31.7978500" lon="35.0762800">
<ele>616.040039</ele>
<time>2022-05-05T07:31:31.576Z</time>
</trkpt>
<trkpt lat="31.7978600" lon="35.0762600">
<ele>616.179993</ele>
<time>2022-05-05T07:31:31.576Z</time>
</trkpt>
<trkpt lat="31.7978700" lon="35.0762500">
<ele>616.330017</ele>
<time>2022-05-05T07:31:31.576Z</time>
</trkpt>
<trkpt lat="31.7978900" lon="35.0762400">
<ele>616.619995</ele>
<time>2022-05-05T07:31:31.576Z</time>
</trkpt>
<trkpt lat="31.7979000" lon="35.0762300">
<ele>616.760010</ele>
<time>2022-05-05T07:31:31.576Z</time>
</trkpt>
<trkpt lat="31.7979200" lon="35.0762200">
<ele>617.049988</ele>
<time>2022-05-05T07:31:31.576Z</time>
</trkpt>
<trkpt lat="31.7979300" lon="35.0762100">
<ele>617.190002</ele>
<time>2022-05-05T07:31:31.576Z</time>
</trkpt>
<trkpt lat="31.7979600" lon="35.0762000">
<ele>617.619995</ele>
<time>2022-05-05T07:31:31.576Z</time>
</trkpt>
<trkpt lat="31.7979800" lon="35.0761900">
<ele>617.910034</ele>
<time>2022-05-05T07:31:31.576Z</time>
</trkpt>
<trkpt lat="31.7980000" lon="35.0761700">
<ele>618.200012</ele>
<time>2022-05-05T07:31:31.577Z</time>
</trkpt>
<trkpt lat="31.7980100" lon="35.0761500">
<ele>618.340027</ele>
<time>2022-05-05T07:31:31.577Z</time>
</trkpt>
<trkpt lat="31.7980200" lon="35.0761200">
<ele>618.489990</ele>
<time>2022-05-05T07:31:31.577Z</time>
</trkpt>
<trkpt lat="31.7980300" lon="35.0761000">
<ele>618.590027</ele>
<time>2022-05-05T07:31:31.577Z</time>
</trkpt>
<trkpt lat="31.7980400" lon="35.0760700">
<ele>618.619995</ele>
<time>2022-05-05T07:31:31.577Z</time>
</trkpt>
<trkpt lat="31.7980400" lon="35.0760400">
<ele>618.510010</ele>
<time>2022-05-05T07:31:31.577Z</time>
</trkpt>
<trkpt lat="31.7980400" lon="35.0760100">
<ele>618.390015</ele>
<time>2022-05-05T07:31:31.577Z</time>
</trkpt>
<trkpt lat="31.7980300" lon="35.0759800">
<ele>618.119995</ele>
<time>2022-05-05T07:31:31.577Z</time>
</trkpt>
<trkpt lat="31.7980200" lon="35.0759500">
<ele>617.830017</ele>
<time>2022-05-05T07:31:31.577Z</time>
</trkpt>
<trkpt lat="31.7980100" lon="35.0759300">
<ele>617.589966</ele>
<time>2022-05-05T07:31:31.577Z</time>
</trkpt>
<trkpt lat="31.7980000" lon="35.0759100">
<ele>617.329956</ele>
<time>2022-05-05T07:31:31.577Z</time>
</trkpt>
<trkpt lat="31.7979800" lon="35.0758800">
<ele>616.850037</ele>
<time>2022-05-05T07:31:31.577Z</time>
</trkpt>
<trkpt lat="31.7979800" lon="35.0758500">
<ele>616.720032</ele>
<time>2022-05-05T07:31:31.577Z</time>
</trkpt>
<trkpt lat="31.7979800" lon="35.0758300">
<ele>616.609985</ele>
<time>2022-05-05T07:31:31.577Z</time>
</trkpt>
<trkpt lat="31.7979700" lon="35.0758000">
<ele>616.179993</ele>
<time>2022-05-05T07:31:31.577Z</time>
</trkpt>
<trkpt lat="31.7979700" lon="35.0757700">
<ele>615.929993</ele>
<time>2022-05-05T07:31:31.577Z</time>
</trkpt>
<trkpt lat="31.7979800" lon="35.0757400">
<ele>615.880005</ele>
<time>2022-05-05T07:31:31.577Z</time>
</trkpt>
<trkpt lat="31.7979800" lon="35.0757200">
<ele>615.709961</ele>
<time>2022-05-05T07:31:31.577Z</time>
</trkpt>
<trkpt lat="31.7979800" lon="35.0756900">
<ele>615.470032</ele>
<time>2022-05-05T07:31:31.577Z</time>
</trkpt>
<trkpt lat="31.7979900" lon="35.0756600">
<ele>615.419983</ele>
<time>2022-05-05T07:31:31.577Z</time>
</trkpt>
<trkpt lat="31.7980000" lon="35.0756300">
<ele>615.390015</ele>
<time>2022-05-05T07:31:31.577Z</time>
</trkpt>
<trkpt lat="31.7980200" lon="35.0755800">
<ele>615.419983</ele>
<time>2022-05-05T07:31:31.577Z</time>
</trkpt>
<trkpt lat="31.7980500" lon="35.0755500">
<ele>615.919983</ele>
<time>2022-05-05T07:31:31.577Z</time>
</trkpt>
<trkpt lat="31.7980800" lon="35.0755100">
<ele>616.919983</ele>
<time>2022-05-05T07:31:31.577Z</time>
</trkpt>
<trkpt lat="31.7981100" lon="35.0754900">
<ele>617.750000</ele>
<time>2022-05-05T07:31:31.577Z</time>
</trkpt>
<trkpt lat="31.7981400" lon="35.0754700">
<ele>618.559998</ele>
<time>2022-05-05T07:31:31.577Z</time>
</trkpt>
<trkpt lat="31.7981700" lon="35.0754600">
<ele>619.290039</ele>
<time>2022-05-05T07:31:31.577Z</time>
</trkpt>
<trkpt lat="31.7982100" lon="35.0754500">
<ele>620.230042</ele>
<time>2022-05-05T07:31:31.578Z</time>
</trkpt>
<trkpt lat="31.7982400" lon="35.0754500">
<ele>620.900024</ele>
<time>2022-05-05T07:31:31.578Z</time>
</trkpt>
<trkpt lat="31.7982700" lon="35.0754400">
<ele>621.590027</ele>
<time>2022-05-05T07:31:31.578Z</time>
</trkpt>
<trkpt lat="31.7982900" lon="35.0754400">
<ele>622.039978</ele>
<time>2022-05-05T07:31:31.578Z</time>
</trkpt>
<trkpt lat="31.7985200" lon="35.0754900">
<ele>622.650024</ele>
<time>2022-05-05T07:31:31.578Z</time>
</trkpt>
<trkpt lat="31.7985900" lon="35.0755000">
<ele>622.450012</ele>
<time>2022-05-05T07:31:31.578Z</time>
</trkpt>
<trkpt lat="31.7986600" lon="35.0755200">
<ele>621.250000</ele>
<time>2022-05-05T07:31:31.578Z</time>
</trkpt>
<trkpt lat="31.7987200" lon="35.0755300">
<ele>619.899963</ele>
<time>2022-05-05T07:31:31.578Z</time>
</trkpt>
<trkpt lat="31.7987800" lon="35.0755500">
<ele>618.419983</ele>
<time>2022-05-05T07:31:31.578Z</time>
</trkpt>
<trkpt lat="31.7988200" lon="35.0755600">
<ele>617.479980</ele>
<time>2022-05-05T07:31:31.578Z</time>
</trkpt>
<trkpt lat="31.7988200" lon="35.0755600">
<ele>617.479980</ele>
<time>2022-05-05T07:31:31.578Z</time>
</trkpt>
<trkpt lat="31.7988200" lon="35.0755600">
<ele>617.479980</ele>
<time>2022-05-05T07:31:31.578Z</time>
</trkpt>
<trkpt lat="31.7988300" lon="35.0755600">
<ele>617.270020</ele>
<time>2022-05-05T07:31:31.578Z</time>
</trkpt>
<trkpt lat="31.7988900" lon="35.0755800">
<ele>615.979980</ele>
<time>2022-05-05T07:31:31.578Z</time>
</trkpt>
<trkpt lat="31.7989400" lon="35.0756000">
<ele>614.899963</ele>
<time>2022-05-05T07:31:31.578Z</time>
</trkpt>
<trkpt lat="31.7989800" lon="35.0756200">
<ele>614.030029</ele>
<time>2022-05-05T07:31:31.578Z</time>
</trkpt>
<trkpt lat="31.7990300" lon="35.0756500">
<ele>612.950012</ele>
<time>2022-05-05T07:31:31.578Z</time>
</trkpt>
<trkpt lat="31.7990700" lon="35.0756700">
<ele>612.090027</ele>
<time>2022-05-05T07:31:31.578Z</time>
</trkpt>
<trkpt lat="31.7992800" lon="35.0757700">
<ele>608.270020</ele>
<time>2022-05-05T07:31:31.578Z</time>
</trkpt>
<trkpt lat="31.7995500" lon="35.0759000">
<ele>607.480042</ele>
<time>2022-05-05T07:31:31.578Z</time>
</trkpt>
<trkpt lat="31.8005900" lon="35.0763300">
<ele>607.820007</ele>
<time>2022-05-05T07:31:31.578Z</time>
</trkpt>
<trkpt lat="31.8006300" lon="35.0763500">
<ele>607.429993</ele>
<time>2022-05-05T07:31:31.578Z</time>
</trkpt>
<trkpt lat="31.8006800" lon="35.0763800">
<ele>607.080017</ele>
<time>2022-05-05T07:31:31.578Z</time>
</trkpt>
<trkpt lat="31.8007000" lon="35.0764000">
<ele>607.059998</ele>
<time>2022-05-05T07:31:31.578Z</time>
</trkpt>
<trkpt lat="31.8007200" lon="35.0764200">
<ele>607.029968</ele>
<time>2022-05-05T07:31:31.578Z</time>
</trkpt>
<trkpt lat="31.8007400" lon="35.0764500">
<ele>607.149963</ele>
<time>2022-05-05T07:31:31.578Z</time>
</trkpt>
<trkpt lat="31.8007600" lon="35.0764700">
<ele>607.149963</ele>
<time>2022-05-05T07:31:31.578Z</time>
</trkpt>
<trkpt lat="31.8007800" lon="35.0764900">
<ele>607.149963</ele>
<time>2022-05-05T07:31:31.578Z</time>
</trkpt>
<trkpt lat="31.8008000" lon="35.0765200">
<ele>607.309998</ele>
<time>2022-05-05T07:31:31.579Z</time>
</trkpt>
<trkpt lat="31.8008100" lon="35.0765400">
<ele>607.470032</ele>
<time>2022-05-05T07:31:31.579Z</time>
</trkpt>
<trkpt lat="31.8008400" lon="35.0765800">
<ele>607.679993</ele>
<time>2022-05-05T07:31:31.579Z</time>
</trkpt>
<trkpt lat="31.8008500" lon="35.0766000">
<ele>607.859985</ele>
<time>2022-05-05T07:31:31.579Z</time>
</trkpt>
<trkpt lat="31.8008600" lon="35.0766200">
<ele>608.039978</ele>
<time>2022-05-05T07:31:31.579Z</time>
</trkpt>
<trkpt lat="31.8008700" lon="35.0766300">
<ele>608.080017</ele>
<time>2022-05-05T07:31:31.579Z</time>
</trkpt>
<trkpt lat="31.8008900" lon="35.0766500">
<ele>608.150024</ele>
<time>2022-05-05T07:31:31.579Z</time>
</trkpt>
<trkpt lat="31.8009100" lon="35.0766600">
<ele>608.080017</ele>
<time>2022-05-05T07:31:31.579Z</time>
</trkpt>
<trkpt lat="31.8009300" lon="35.0766600">
<ele>607.859985</ele>
<time>2022-05-05T07:31:31.579Z</time>
</trkpt>
<trkpt lat="31.8009500" lon="35.0766600">
<ele>607.640015</ele>
<time>2022-05-05T07:31:31.579Z</time>
</trkpt>
<trkpt lat="31.8009700" lon="35.0766600">
<ele>607.429993</ele>
<time>2022-05-05T07:31:31.579Z</time>
</trkpt>
<trkpt lat="31.8009900" lon="35.0766600">
<ele>607.210022</ele>
<time>2022-05-05T07:31:31.579Z</time>
</trkpt>
<trkpt lat="31.8010100" lon="35.0766500">
<ele>606.849976</ele>
<time>2022-05-05T07:31:31.579Z</time>
</trkpt>
<trkpt lat="31.8010300" lon="35.0766300">
<ele>606.349976</ele>
<time>2022-05-05T07:31:31.579Z</time>
</trkpt>
<trkpt lat="31.8010500" lon="35.0766200">
<ele>605.989990</ele>
<time>2022-05-05T07:31:31.579Z</time>
</trkpt>
<trkpt lat="31.8010600" lon="35.0766000">
<ele>605.590027</ele>
<time>2022-05-05T07:31:31.579Z</time>
</trkpt>
<trkpt lat="31.8010700" lon="35.0765800">
<ele>605.200012</ele>
<time>2022-05-05T07:31:31.579Z</time>
</trkpt>
<trkpt lat="31.8010800" lon="35.0765600">
<ele>604.799988</ele>
<time>2022-05-05T07:31:31.579Z</time>
</trkpt>
<trkpt lat="31.8010800" lon="35.0765300">
<ele>604.369995</ele>
<time>2022-05-05T07:31:31.579Z</time>
</trkpt>
<trkpt lat="31.8011600" lon="35.0765600">
<ele>604.440002</ele>
<time>2022-05-05T07:31:31.579Z</time>
</trkpt>
<trkpt lat="31.8012300" lon="35.0766300">
<ele>605.729980</ele>
<time>2022-05-05T07:31:31.579Z</time>
</trkpt>
<trkpt lat="31.8012600" lon="35.0766900">
<ele>606.790039</ele>
<time>2022-05-05T07:31:31.579Z</time>
</trkpt>
<trkpt lat="31.8012800" lon="35.0767600">
<ele>607.619995</ele>
<time>2022-05-05T07:31:31.579Z</time>
</trkpt>
<trkpt lat="31.8012800" lon="35.0768000">
<ele>608.049988</ele>
<time>2022-05-05T07:31:31.579Z</time>
</trkpt>
<trkpt lat="31.8012700" lon="35.0768400">
<ele>608.440002</ele>
<time>2022-05-05T07:31:31.579Z</time>
</trkpt>
<trkpt lat="31.8011900" lon="35.0770200">
<ele>609.750000</ele>
<time>2022-05-05T07:31:31.579Z</time>
</trkpt>
<trkpt lat="31.8012800" lon="35.0770600">
<ele>610.190002</ele>
<time>2022-05-05T07:31:31.580Z</time>
</trkpt>
<trkpt lat="31.8014500" lon="35.0771300">
<ele>611.250000</ele>
<time>2022-05-05T07:31:31.580Z</time>
</trkpt>
<trkpt lat="31.8015600" lon="35.0771500">
<ele>612.429993</ele>
<time>2022-05-05T07:31:31.580Z</time>
</trkpt>
<trkpt lat="31.8016200" lon="35.0771200">
<ele>612.820007</ele>
<time>2022-05-05T07:31:31.580Z</time>
</trkpt>
<trkpt lat="31.8016500" lon="35.0770500">
<ele>612.619995</ele>
<time>2022-05-05T07:31:31.580Z</time>
</trkpt>
<trkpt lat="31.8016700" lon="35.0770000">
<ele>612.500000</ele>
<time>2022-05-05T07:31:31.580Z</time>
</trkpt>
<trkpt lat="31.8016900" lon="35.0767400">
<ele>609.599976</ele>
<time>2022-05-05T07:31:31.580Z</time>
</trkpt>
<trkpt lat="31.8016800" lon="35.0766100">
<ele>606.839966</ele>
<time>2022-05-05T07:31:31.580Z</time>
</trkpt>
<trkpt lat="31.8016600" lon="35.0764800">
<ele>603.270020</ele>
<time>2022-05-05T07:31:31.580Z</time>
</trkpt>
<trkpt lat="31.8016700" lon="35.0763600">
<ele>600.219971</ele>
<time>2022-05-05T07:31:31.580Z</time>
</trkpt>
<trkpt lat="31.8017100" lon="35.0762700">
<ele>598.330017</ele>
<time>2022-05-05T07:31:31.580Z</time>
</trkpt>
<trkpt lat="31.8018500" lon="35.0761400">
<ele>597.650024</ele>
<time>2022-05-05T07:31:31.580Z</time>
</trkpt>
<trkpt lat="31.8019000" lon="35.0760700">
<ele>596.830017</ele>
<time>2022-05-05T07:31:31.580Z</time>
</trkpt>
<trkpt lat="31.8019700" lon="35.0759400">
<ele>594.830017</ele>
<time>2022-05-05T07:31:31.580Z</time>
</trkpt>
<trkpt lat="31.8020800" lon="35.0756800">
<ele>588.789978</ele>
<time>2022-05-05T07:31:31.580Z</time>
</trkpt>
<trkpt lat="31.8021500" lon="35.0755800">
<ele>585.840027</ele>
<time>2022-05-05T07:31:31.580Z</time>
</trkpt>
<trkpt lat="31.8022900" lon="35.0755100">
<ele>585.090027</ele>
<time>2022-05-05T07:31:31.580Z</time>
</trkpt>
<trkpt lat="31.8024600" lon="35.0753900">
<ele>583.369995</ele>
<time>2022-05-05T07:31:31.580Z</time>
</trkpt>
<trkpt lat="31.8025600" lon="35.0753200">
<ele>581.000000</ele>
<time>2022-05-05T07:31:31.580Z</time>
</trkpt>
<trkpt lat="31.8024900" lon="35.0753000">
<ele>581.419983</ele>
<time>2022-05-05T07:31:31.580Z</time>
</trkpt>
<trkpt lat="31.8021800" lon="35.0752300">
<ele>574.419983</ele>
<time>2022-05-05T07:31:31.580Z</time>
</trkpt>
<trkpt lat="31.8020400" lon="35.0752200">
<ele>571.260010</ele>
<time>2022-05-05T07:31:31.580Z</time>
</trkpt>
<trkpt lat="31.8018300" lon="35.0752900">
<ele>570.559998</ele>
<time>2022-05-05T07:31:31.580Z</time>
</trkpt>
<trkpt lat="31.8016900" lon="35.0754400">
<ele>573.400024</ele>
<time>2022-05-05T07:31:31.580Z</time>
</trkpt>
<trkpt lat="31.8014700" lon="35.0756500">
<ele>577.059998</ele>
<time>2022-05-05T07:31:31.580Z</time>
</trkpt>
<trkpt lat="31.8013600" lon="35.0756900">
<ele>578.219971</ele>
<time>2022-05-05T07:31:31.580Z</time>
</trkpt>
<trkpt lat="31.8013100" lon="35.0756800">
<ele>579.440002</ele>
<time>2022-05-05T07:31:31.580Z</time>
</trkpt>
<trkpt lat="31.8012500" lon="35.0756500">
<ele>580.539978</ele>
<time>2022-05-05T07:31:31.580Z</time>
</trkpt>
<trkpt lat="31.8012100" lon="35.0755100">
<ele>579.359985</ele>
<time>2022-05-05T07:31:31.581Z</time>
</trkpt>
<trkpt lat="31.8011900" lon="35.0753700">
<ele>578.630005</ele>
<time>2022-05-05T07:31:31.581Z</time>
</trkpt>
<trkpt lat="31.8011700" lon="35.0752300">
<ele>577.820007</ele>
<time>2022-05-05T07:31:31.581Z</time>
</trkpt>
<trkpt lat="31.8011500" lon="35.0748900">
<ele>575.729980</ele>
<time>2022-05-05T07:31:31.581Z</time>
</trkpt>
<trkpt lat="31.8011800" lon="35.0747900">
<ele>574.880005</ele>
<time>2022-05-05T07:31:31.581Z</time>
</trkpt>
<trkpt lat="31.8011800" lon="35.0747900">
<ele>574.880005</ele>
<time>2022-05-05T07:31:31.581Z</time>
</trkpt>
<trkpt lat="31.8011800" lon="35.0747900">
<ele>574.880005</ele>
<time>2022-05-05T07:31:31.581Z</time>
</trkpt>
<trkpt lat="31.8012200" lon="35.0746400">
<ele>574.519958</ele>
<time>2022-05-05T07:31:31.581Z</time>
</trkpt>
<trkpt lat="31.8015900" lon="35.0733800">
<ele>577.399963</ele>
<time>2022-05-05T07:31:31.581Z</time>
</trkpt>
<trkpt lat="31.8016500" lon="35.0732300">
<ele>577.470032</ele>
<time>2022-05-05T07:31:31.581Z</time>
</trkpt>
<trkpt lat="31.8018200" lon="35.0728000">
<ele>577.529968</ele>
<time>2022-05-05T07:31:31.581Z</time>
</trkpt>
<trkpt lat="31.8022500" lon="35.0721500">
<ele>582.770020</ele>
<time>2022-05-05T07:31:31.581Z</time>
</trkpt>
<trkpt lat="31.8024000" lon="35.0719100">
<ele>582.470032</ele>
<time>2022-05-05T07:31:31.581Z</time>
</trkpt>
<trkpt lat="31.8023900" lon="35.0718500">
<ele>582.130005</ele>
<time>2022-05-05T07:31:31.581Z</time>
</trkpt>
<trkpt lat="31.8023600" lon="35.0717200">
<ele>581.280029</ele>
<time>2022-05-05T07:31:31.581Z</time>
</trkpt>
<trkpt lat="31.8023400" lon="35.0715900">
<ele>580.020020</ele>
<time>2022-05-05T07:31:31.581Z</time>
</trkpt>
<trkpt lat="31.8023500" lon="35.0714400">
<ele>578.469971</ele>
<time>2022-05-05T07:31:31.581Z</time>
</trkpt>
<trkpt lat="31.8024600" lon="35.0712000">
<ele>575.889954</ele>
<time>2022-05-05T07:31:31.581Z</time>
</trkpt>
<trkpt lat="31.8026300" lon="35.0709000">
<ele>575.820007</ele>
<time>2022-05-05T07:31:31.581Z</time>
</trkpt>
<trkpt lat="31.8034200" lon="35.0696500">
<ele>578.419983</ele>
<time>2022-05-05T07:31:31.581Z</time>
</trkpt>
<trkpt lat="31.8037900" lon="35.0691500">
<ele>579.950012</ele>
<time>2022-05-05T07:31:31.581Z</time>
</trkpt>
<trkpt lat="31.8039400" lon="35.0689100">
<ele>581.349976</ele>
<time>2022-05-05T07:31:31.581Z</time>
</trkpt>
<trkpt lat="31.8040600" lon="35.0686700">
<ele>582.609985</ele>
<time>2022-05-05T07:31:31.581Z</time>
</trkpt>
<trkpt lat="31.8042700" lon="35.0681400">
<ele>584.599976</ele>
<time>2022-05-05T07:31:31.581Z</time>
</trkpt>
<trkpt lat="31.8042900" lon="35.0678900">
<ele>585.369995</ele>
<time>2022-05-05T07:31:31.581Z</time>
</trkpt>
<trkpt lat="31.8042900" lon="35.0675500">
<ele>584.500000</ele>
<time>2022-05-05T07:31:31.581Z</time>
</trkpt>
<trkpt lat="31.8043000" lon="35.0673800">
<ele>582.880005</ele>
<time>2022-05-05T07:31:31.581Z</time>
</trkpt>
<trkpt lat="31.8043400" lon="35.0672500">
<ele>582.080017</ele>
<time>2022-05-05T07:31:31.582Z</time>
</trkpt>
<trkpt lat="31.8044300" lon="35.0670800">
<ele>580.669983</ele>
<time>2022-05-05T07:31:31.582Z</time>
</trkpt>
<trkpt lat="31.8046300" lon="35.0668400">
<ele>580.500000</ele>
<time>2022-05-05T07:31:31.582Z</time>
</trkpt>
<trkpt lat="31.8047200" lon="35.0667100">
<ele>580.580017</ele>
<time>2022-05-05T07:31:31.582Z</time>
</trkpt>
<trkpt lat="31.8047700" lon="35.0666200">
<ele>581.039978</ele>
<time>2022-05-05T07:31:31.582Z</time>
</trkpt>
<trkpt lat="31.8047700" lon="35.0666200">
<ele>581.039978</ele>
<time>2022-05-05T07:31:31.582Z</time>
</trkpt>
<trkpt lat="31.8047700" lon="35.0666200">
<ele>581.039978</ele>
<time>2022-05-05T07:31:31.582Z</time>
</trkpt>
<trkpt lat="31.8047700" lon="35.0666100">
<ele>580.970032</ele>
<time>2022-05-05T07:31:31.582Z</time>
</trkpt>
<trkpt lat="31.8048000" lon="35.0665100">
<ele>581.110046</ele>
<time>2022-05-05T07:31:31.582Z</time>
</trkpt>
<trkpt lat="31.8048400" lon="35.0661500">
<ele>578.580017</ele>
<time>2022-05-05T07:31:31.582Z</time>
</trkpt>
<trkpt lat="31.8048800" lon="35.0659700">
<ele>576.080017</ele>
<time>2022-05-05T07:31:31.582Z</time>
</trkpt>
<trkpt lat="31.8049800" lon="35.0657300">
<ele>573.309998</ele>
<time>2022-05-05T07:31:31.582Z</time>
</trkpt>
<trkpt lat="31.8052000" lon="35.0653900">
<ele>568.000000</ele>
<time>2022-05-05T07:31:31.582Z</time>
</trkpt>
<trkpt lat="31.8054500" lon="35.0650600">
<ele>567.369995</ele>
<time>2022-05-05T07:31:31.582Z</time>
</trkpt>
<trkpt lat="31.8062700" lon="35.0637700">
<ele>566.479980</ele>
<time>2022-05-05T07:31:31.582Z</time>
</trkpt>
<trkpt lat="31.8066000" lon="35.0632700">
<ele>566.590027</ele>
<time>2022-05-05T07:31:31.582Z</time>
</trkpt>
<trkpt lat="31.8067700" lon="35.0630700">
<ele>566.290039</ele>
<time>2022-05-05T07:31:31.582Z</time>
</trkpt>
<trkpt lat="31.8073300" lon="35.0624400">
<ele>565.780029</ele>
<time>2022-05-05T07:31:31.582Z</time>
</trkpt>
<trkpt lat="31.8080400" lon="35.0614700">
<ele>559.989990</ele>
<time>2022-05-05T07:31:31.582Z</time>
</trkpt>
<trkpt lat="31.8081800" lon="35.0612500">
<ele>559.960022</ele>
<time>2022-05-05T07:31:31.582Z</time>
</trkpt>
<trkpt lat="31.8083300" lon="35.0609600">
<ele>561.380005</ele>
<time>2022-05-05T07:31:31.582Z</time>
</trkpt>
<trkpt lat="31.8086000" lon="35.0603600">
<ele>558.000000</ele>
<time>2022-05-05T07:31:31.582Z</time>
</trkpt>
<trkpt lat="31.8087600" lon="35.0598900">
<ele>554.679993</ele>
<time>2022-05-05T07:31:31.582Z</time>
</trkpt>
<trkpt lat="31.8088500" lon="35.0595700">
<ele>552.869995</ele>
<time>2022-05-05T07:31:31.582Z</time>
</trkpt>
<trkpt lat="31.8089200" lon="35.0589300">
<ele>547.809998</ele>
<time>2022-05-05T07:31:31.582Z</time>
</trkpt>
<trkpt lat="31.8089200" lon="35.0589200">
<ele>547.700012</ele>
<time>2022-05-05T07:31:31.582Z</time>
</trkpt>
<trkpt lat="31.8089200" lon="35.0589200">
<ele>547.700012</ele>
<time>2022-05-05T07:31:31.583Z</time>
</trkpt>
<trkpt lat="31.8089200" lon="35.0589200">
<ele>547.700012</ele>
<time>2022-05-05T07:31:31.583Z</time>
</trkpt>
<trkpt lat="31.8089400" lon="35.0585600">
<ele>547.400024</ele>
<time>2022-05-05T07:31:31.583Z</time>
</trkpt>
<trkpt lat="31.8089300" lon="35.0580600">
<ele>548.140015</ele>
<time>2022-05-05T07:31:31.583Z</time>
</trkpt>
<trkpt lat="31.8087400" lon="35.0570900">
<ele>547.150024</ele>
<time>2022-05-05T07:31:31.583Z</time>
</trkpt>
<trkpt lat="31.8086100" lon="35.0565400">
<ele>549.349976</ele>
<time>2022-05-05T07:31:31.583Z</time>
</trkpt>
<trkpt lat="31.8085300" lon="35.0560100">
<ele>552.640015</ele>
<time>2022-05-05T07:31:31.583Z</time>
</trkpt>
<trkpt lat="31.8084700" lon="35.0552900">
<ele>554.419983</ele>
<time>2022-05-05T07:31:31.583Z</time>
</trkpt>
<trkpt lat="31.8084800" lon="35.0547700">
<ele>552.229980</ele>
<time>2022-05-05T07:31:31.583Z</time>
</trkpt>
<trkpt lat="31.8085400" lon="35.0542100">
<ele>551.700012</ele>
<time>2022-05-05T07:31:31.583Z</time>
</trkpt>
<trkpt lat="31.8085400" lon="35.0540100">
<ele>552.030029</ele>
<time>2022-05-05T07:31:31.583Z</time>
</trkpt>
<trkpt lat="31.8085200" lon="35.0538100">
<ele>552.899963</ele>
<time>2022-05-05T07:31:31.583Z</time>
</trkpt>
<trkpt lat="31.8084000" lon="35.0535100">
<ele>554.399963</ele>
<time>2022-05-05T07:31:31.583Z</time>
</trkpt>
<trkpt lat="31.8081100" lon="35.0529000">
<ele>559.119995</ele>
<time>2022-05-05T07:31:31.583Z</time>
</trkpt>
<trkpt lat="31.8079400" lon="35.0526100">
<ele>562.059998</ele>
<time>2022-05-05T07:31:31.583Z</time>
</trkpt>
<trkpt lat="31.8076200" lon="35.0521200">
<ele>564.020020</ele>
<time>2022-05-05T07:31:31.583Z</time>
</trkpt>
<trkpt lat="31.8074800" lon="35.0518500">
<ele>563.559998</ele>
<time>2022-05-05T07:31:31.583Z</time>
</trkpt>
<trkpt lat="31.8074100" lon="35.0517000">
<ele>563.409973</ele>
<time>2022-05-05T07:31:31.583Z</time>
</trkpt>
<trkpt lat="31.8073600" lon="35.0515100">
<ele>563.600037</ele>
<time>2022-05-05T07:31:31.583Z</time>
</trkpt>
<trkpt lat="31.8073000" lon="35.0511000">
<ele>563.619995</ele>
<time>2022-05-05T07:31:31.583Z</time>
</trkpt>
<trkpt lat="31.8073000" lon="35.0509300">
<ele>560.830017</ele>
<time>2022-05-05T07:31:31.583Z</time>
</trkpt>
<trkpt lat="31.8073300" lon="35.0507800">
<ele>559.190002</ele>
<time>2022-05-05T07:31:31.583Z</time>
</trkpt>
<trkpt lat="31.8073600" lon="35.0506700">
<ele>558.030029</ele>
<time>2022-05-05T07:31:31.583Z</time>
</trkpt>
<trkpt lat="31.8074100" lon="35.0505700">
<ele>557.330017</ele>
<time>2022-05-05T07:31:31.583Z</time>
</trkpt>
<trkpt lat="31.8074600" lon="35.0505000">
<ele>557.159973</ele>
<time>2022-05-05T07:31:31.583Z</time>
</trkpt>
<trkpt lat="31.8075700" lon="35.0504100">
<ele>557.269958</ele>
<time>2022-05-05T07:31:31.583Z</time>
</trkpt>
<trkpt lat="31.8077000" lon="35.0503400">
<ele>557.840027</ele>
<time>2022-05-05T07:31:31.584Z</time>
</trkpt>
<trkpt lat="31.8079100" lon="35.0502600">
<ele>558.820007</ele>
<time>2022-05-05T07:31:31.584Z</time>
</trkpt>
<trkpt lat="31.8081500" lon="35.0501900">
<ele>560.020020</ele>
<time>2022-05-05T07:31:31.584Z</time>
</trkpt>
<trkpt lat="31.8084200" lon="35.0500700">
<ele>558.520020</ele>
<time>2022-05-05T07:31:31.584Z</time>
</trkpt>
<trkpt lat="31.8086100" lon="35.0499100">
<ele>558.320007</ele>
<time>2022-05-05T07:31:31.584Z</time>
</trkpt>
<trkpt lat="31.8086000" lon="35.0497600">
<ele>558.789978</ele>
<time>2022-05-05T07:31:31.584Z</time>
</trkpt>
<trkpt lat="31.8085500" lon="35.0496600">
<ele>558.659973</ele>
<time>2022-05-05T07:31:31.584Z</time>
</trkpt>
<trkpt lat="31.8083800" lon="35.0493900">
<ele>559.260010</ele>
<time>2022-05-05T07:31:31.584Z</time>
</trkpt>
<trkpt lat="31.8082700" lon="35.0491500">
<ele>558.659973</ele>
<time>2022-05-05T07:31:31.584Z</time>
</trkpt>
<trkpt lat="31.8081500" lon="35.0488000">
<ele>555.179993</ele>
<time>2022-05-05T07:31:31.584Z</time>
</trkpt>
<trkpt lat="31.8079000" lon="35.0479000">
<ele>545.830017</ele>
<time>2022-05-05T07:31:31.584Z</time>
</trkpt>
<trkpt lat="31.8078400" lon="35.0475800">
<ele>541.500000</ele>
<time>2022-05-05T07:31:31.584Z</time>
</trkpt>
<trkpt lat="31.8078300" lon="35.0474100">
<ele>539.159973</ele>
<time>2022-05-05T07:31:31.584Z</time>
</trkpt>
<trkpt lat="31.8078200" lon="35.0471300">
<ele>536.809998</ele>
<time>2022-05-05T07:31:31.584Z</time>
</trkpt>
<trkpt lat="31.8078500" lon="35.0468000">
<ele>535.250000</ele>
<time>2022-05-05T07:31:31.584Z</time>
</trkpt>
<trkpt lat="31.8079800" lon="35.0461300">
<ele>532.739990</ele>
<time>2022-05-05T07:31:31.584Z</time>
</trkpt>
<trkpt lat="31.8080600" lon="35.0452800">
<ele>527.070007</ele>
<time>2022-05-05T07:31:31.584Z</time>
</trkpt>
<trkpt lat="31.8080600" lon="35.0443000">
<ele>518.950012</ele>
<time>2022-05-05T07:31:31.584Z</time>
</trkpt>
<trkpt lat="31.8081400" lon="35.0433200">
<ele>509.109985</ele>
<time>2022-05-05T07:31:31.584Z</time>
</trkpt>
<trkpt lat="31.8081200" lon="35.0422400">
<ele>497.470001</ele>
<time>2022-05-05T07:31:31.584Z</time>
</trkpt>
<trkpt lat="31.8081500" lon="35.0419300">
<ele>490.600006</ele>
<time>2022-05-05T07:31:31.584Z</time>
</trkpt>
<trkpt lat="31.8081900" lon="35.0418200">
<ele>487.630005</ele>
<time>2022-05-05T07:31:31.584Z</time>
</trkpt>
<trkpt lat="31.8082300" lon="35.0417700">
<ele>486.370026</ele>
<time>2022-05-05T07:31:31.584Z</time>
</trkpt>
<trkpt lat="31.8083500" lon="35.0416900">
<ele>484.640015</ele>
<time>2022-05-05T07:31:31.584Z</time>
</trkpt>
<trkpt lat="31.8085800" lon="35.0416000">
<ele>484.109985</ele>
<time>2022-05-05T07:31:31.584Z</time>
</trkpt>
<trkpt lat="31.8086500" lon="35.0415600">
<ele>484.109985</ele>
<time>2022-05-05T07:31:31.584Z</time>
</trkpt>
<trkpt lat="31.8087200" lon="35.0414700">
<ele>483.220001</ele>
<time>2022-05-05T07:31:31.584Z</time>
</trkpt>
<trkpt lat="31.8091400" lon="35.0409300">
<ele>478.820007</ele>
<time>2022-05-05T07:31:31.584Z</time>
</trkpt>
<trkpt lat="31.8092100" lon="35.0408200">
<ele>478.110016</ele>
<time>2022-05-05T07:31:31.585Z</time>
</trkpt>
<trkpt lat="31.8092500" lon="35.0407200">
<ele>477.890015</ele>
<time>2022-05-05T07:31:31.585Z</time>
</trkpt>
<trkpt lat="31.8092600" lon="35.0403900">
<ele>476.740021</ele>
<time>2022-05-05T07:31:31.585Z</time>
</trkpt>
<trkpt lat="31.8091800" lon="35.0401500">
<ele>477.299988</ele>
<time>2022-05-05T07:31:31.585Z</time>
</trkpt>
<trkpt lat="31.8089600" lon="35.0397400">
<ele>480.259979</ele>
<time>2022-05-05T07:31:31.585Z</time>
</trkpt>
<trkpt lat="31.8089600" lon="35.0397400">
<ele>480.259979</ele>
<time>2022-05-05T07:31:31.585Z</time>
</trkpt>
<trkpt lat="31.8089600" lon="35.0397400">
<ele>480.259979</ele>
<time>2022-05-05T07:31:31.585Z</time>
</trkpt>
<trkpt lat="31.8087900" lon="35.0394300">
<ele>478.309998</ele>
<time>2022-05-05T07:31:31.585Z</time>
</trkpt>
<trkpt lat="31.8086000" lon="35.0390300">
<ele>475.739990</ele>
<time>2022-05-05T07:31:31.585Z</time>
</trkpt>
<trkpt lat="31.8084100" lon="35.0386500">
<ele>472.130005</ele>
<time>2022-05-05T07:31:31.585Z</time>
</trkpt>
<trkpt lat="31.8083200" lon="35.0384700">
<ele>470.069977</ele>
<time>2022-05-05T07:31:31.585Z</time>
</trkpt>
<trkpt lat="31.8082500" lon="35.0382500">
<ele>466.500000</ele>
<time>2022-05-05T07:31:31.585Z</time>
</trkpt>
<trkpt lat="31.8082000" lon="35.0380200">
<ele>461.330017</ele>
<time>2022-05-05T07:31:31.585Z</time>
</trkpt>
<trkpt lat="31.8081700" lon="35.0377600">
<ele>457.609985</ele>
<time>2022-05-05T07:31:31.585Z</time>
</trkpt>
<trkpt lat="31.8081700" lon="35.0375600">
<ele>456.459991</ele>
<time>2022-05-05T07:31:31.585Z</time>
</trkpt>
<trkpt lat="31.8081900" lon="35.0372700">
<ele>454.359985</ele>
<time>2022-05-05T07:31:31.585Z</time>
</trkpt>
<trkpt lat="31.8082700" lon="35.0369200">
<ele>452.210022</ele>
<time>2022-05-05T07:31:31.585Z</time>
</trkpt>
<trkpt lat="31.8083100" lon="35.0367900">
<ele>450.869995</ele>
<time>2022-05-05T07:31:31.585Z</time>
</trkpt>
<trkpt lat="31.8084000" lon="35.0365900">
<ele>449.369995</ele>
<time>2022-05-05T07:31:31.585Z</time>
</trkpt>
<trkpt lat="31.8086300" lon="35.0362000">
<ele>447.010010</ele>
<time>2022-05-05T07:31:31.585Z</time>
</trkpt>
<trkpt lat="31.8086900" lon="35.0360700">
<ele>446.009979</ele>
<time>2022-05-05T07:31:31.585Z</time>
</trkpt>
<trkpt lat="31.8089200" lon="35.0353400">
<ele>440.709991</ele>
<time>2022-05-05T07:31:31.585Z</time>
</trkpt>
<trkpt lat="31.8090700" lon="35.0350000">
<ele>434.960022</ele>
<time>2022-05-05T07:31:31.585Z</time>
</trkpt>
<trkpt lat="31.8092500" lon="35.0347000">
<ele>431.140015</ele>
<time>2022-05-05T07:31:31.585Z</time>
</trkpt>
<trkpt lat="31.8094900" lon="35.0344200">
<ele>430.580017</ele>
<time>2022-05-05T07:31:31.585Z</time>
</trkpt>
<trkpt lat="31.8096100" lon="35.0343200">
<ele>427.839996</ele>
<time>2022-05-05T07:31:31.585Z</time>
</trkpt>
<trkpt lat="31.8097300" lon="35.0342600">
<ele>425.159973</ele>
<time>2022-05-05T07:31:31.586Z</time>
</trkpt>
<trkpt lat="31.8098700" lon="35.0342200">
<ele>420.199982</ele>
<time>2022-05-05T07:31:31.586Z</time>
</trkpt>
<trkpt lat="31.8101900" lon="35.0342000">
<ele>415.630005</ele>
<time>2022-05-05T07:31:31.586Z</time>
</trkpt>
<trkpt lat="31.8106400" lon="35.0342700">
<ele>411.950012</ele>
<time>2022-05-05T07:31:31.586Z</time>
</trkpt>
<trkpt lat="31.8107900" lon="35.0342700">
<ele>413.229980</ele>
<time>2022-05-05T07:31:31.586Z</time>
</trkpt>
<trkpt lat="31.8108900" lon="35.0342600">
<ele>413.619995</ele>
<time>2022-05-05T07:31:31.586Z</time>
</trkpt>
<trkpt lat="31.8110400" lon="35.0342100">
<ele>413.349976</ele>
<time>2022-05-05T07:31:31.586Z</time>
</trkpt>
<trkpt lat="31.8111400" lon="35.0341400">
<ele>412.829987</ele>
<time>2022-05-05T07:31:31.586Z</time>
</trkpt>
<trkpt lat="31.8113300" lon="35.0340100">
<ele>412.760010</ele>
<time>2022-05-05T07:31:31.586Z</time>
</trkpt>
<trkpt lat="31.8114200" lon="35.0338900">
<ele>412.659973</ele>
<time>2022-05-05T07:31:31.586Z</time>
</trkpt>
<trkpt lat="31.8115200" lon="35.0337000">
<ele>411.110016</ele>
<time>2022-05-05T07:31:31.586Z</time>
</trkpt>
<trkpt lat="31.8117000" lon="35.0332500">
<ele>410.149994</ele>
<time>2022-05-05T07:31:31.586Z</time>
</trkpt>
<trkpt lat="31.8118500" lon="35.0329200">
<ele>409.480011</ele>
<time>2022-05-05T07:31:31.586Z</time>
</trkpt>
<trkpt lat="31.8119300" lon="35.0327000">
<ele>410.609985</ele>
<time>2022-05-05T07:31:31.586Z</time>
</trkpt>
<trkpt lat="31.8120000" lon="35.0324300">
<ele>410.940002</ele>
<time>2022-05-05T07:31:31.586Z</time>
</trkpt>
<trkpt lat="31.8120700" lon="35.0317100">
<ele>399.589996</ele>
<time>2022-05-05T07:31:31.586Z</time>
</trkpt>
<trkpt lat="31.8120900" lon="35.0316300">
<ele>397.450012</ele>
<time>2022-05-05T07:31:31.586Z</time>
</trkpt>
<trkpt lat="31.8121600" lon="35.0315100">
<ele>394.379974</ele>
<time>2022-05-05T07:31:31.586Z</time>
</trkpt>
<trkpt lat="31.8122200" lon="35.0314500">
<ele>392.960022</ele>
<time>2022-05-05T07:31:31.586Z</time>
</trkpt>
<trkpt lat="31.8123200" lon="35.0314000">
<ele>391.350006</ele>
<time>2022-05-05T07:31:31.586Z</time>
</trkpt>
<trkpt lat="31.8124200" lon="35.0313900">
<ele>391.029999</ele>
<time>2022-05-05T07:31:31.586Z</time>
</trkpt>
<trkpt lat="31.8129000" lon="35.0315100">
<ele>387.399994</ele>
<time>2022-05-05T07:31:31.586Z</time>
</trkpt>
<trkpt lat="31.8130400" lon="35.0315300">
<ele>384.879974</ele>
<time>2022-05-05T07:31:31.586Z</time>
</trkpt>
<trkpt lat="31.8133000" lon="35.0315200">
<ele>381.350006</ele>
<time>2022-05-05T07:31:31.586Z</time>
</trkpt>
<trkpt lat="31.8134000" lon="35.0314900">
<ele>381.400024</ele>
<time>2022-05-05T07:31:31.586Z</time>
</trkpt>
<trkpt lat="31.8134000" lon="35.0314900">
<ele>381.400024</ele>
<time>2022-05-05T07:31:31.586Z</time>
</trkpt>
<trkpt lat="31.8134000" lon="35.0314900">
<ele>381.400024</ele>
<time>2022-05-05T07:31:31.586Z</time>
</trkpt>
<trkpt lat="31.8134200" lon="35.0314800">
<ele>381.600006</ele>
<time>2022-05-05T07:31:31.587Z</time>
</trkpt>
<trkpt lat="31.8135600" lon="35.0314100">
<ele>383.859985</ele>
<time>2022-05-05T07:31:31.587Z</time>
</trkpt>
<trkpt lat="31.8136500" lon="35.0313100">
<ele>383.849976</ele>
<time>2022-05-05T07:31:31.587Z</time>
</trkpt>
<trkpt lat="31.8137100" lon="35.0312000">
<ele>382.589996</ele>
<time>2022-05-05T07:31:31.587Z</time>
</trkpt>
<trkpt lat="31.8137600" lon="35.0310500">
<ele>382.420013</ele>
<time>2022-05-05T07:31:31.587Z</time>
</trkpt>
<trkpt lat="31.8137900" lon="35.0308800">
<ele>384.089996</ele>
<time>2022-05-05T07:31:31.587Z</time>
</trkpt>
<trkpt lat="31.8137900" lon="35.0307400">
<ele>385.250000</ele>
<time>2022-05-05T07:31:31.587Z</time>
</trkpt>
<trkpt lat="31.8136000" lon="35.0300700">
<ele>381.639984</ele>
<time>2022-05-05T07:31:31.587Z</time>
</trkpt>
<trkpt lat="31.8135900" lon="35.0299600">
<ele>380.019989</ele>
<time>2022-05-05T07:31:31.587Z</time>
</trkpt>
<trkpt lat="31.8136000" lon="35.0298300">
<ele>377.750000</ele>
<time>2022-05-05T07:31:31.587Z</time>
</trkpt>
<trkpt lat="31.8136400" lon="35.0295700">
<ele>373.679993</ele>
<time>2022-05-05T07:31:31.587Z</time>
</trkpt>
<trkpt lat="31.8137800" lon="35.0291400">
<ele>366.169983</ele>
<time>2022-05-05T07:31:31.587Z</time>
</trkpt>
<trkpt lat="31.8138800" lon="35.0289600">
<ele>360.779999</ele>
<time>2022-05-05T07:31:31.587Z</time>
</trkpt>
<trkpt lat="31.8140000" lon="35.0288300">
<ele>358.220001</ele>
<time>2022-05-05T07:31:31.587Z</time>
</trkpt>
<trkpt lat="31.8141400" lon="35.0287700">
<ele>358.959991</ele>
<time>2022-05-05T07:31:31.588Z</time>
</trkpt>
<trkpt lat="31.8142300" lon="35.0287000">
<ele>358.519989</ele>
<time>2022-05-05T07:31:31.588Z</time>
</trkpt>
<trkpt lat="31.8143500" lon="35.0285600">
<ele>357.949982</ele>
<time>2022-05-05T07:31:31.588Z</time>
</trkpt>
<trkpt lat="31.8144300" lon="35.0284200">
<ele>358.100006</ele>
<time>2022-05-05T07:31:31.588Z</time>
</trkpt>
<trkpt lat="31.8145700" lon="35.0280900">
<ele>355.200012</ele>
<time>2022-05-05T07:31:31.588Z</time>
</trkpt>
<trkpt lat="31.8146300" lon="35.0279100">
<ele>353.079987</ele>
<time>2022-05-05T07:31:31.588Z</time>
</trkpt>
<trkpt lat="31.8146600" lon="35.0277200">
<ele>350.739990</ele>
<time>2022-05-05T07:31:31.588Z</time>
</trkpt>
<trkpt lat="31.8147600" lon="35.0274100">
<ele>345.940002</ele>
<time>2022-05-05T07:31:31.588Z</time>
</trkpt>
<trkpt lat="31.8148900" lon="35.0271700">
<ele>339.740021</ele>
<time>2022-05-05T07:31:31.588Z</time>
</trkpt>
<trkpt lat="31.8150000" lon="35.0270600">
<ele>338.080017</ele>
<time>2022-05-05T07:31:31.588Z</time>
</trkpt>
<trkpt lat="31.8153700" lon="35.0267600">
<ele>337.339996</ele>
<time>2022-05-05T07:31:31.588Z</time>
</trkpt>
<trkpt lat="31.8154600" lon="35.0267000">
<ele>336.580017</ele>
<time>2022-05-05T07:31:31.588Z</time>
</trkpt>
<trkpt lat="31.8155800" lon="35.0266500">
<ele>336.260010</ele>
<time>2022-05-05T07:31:31.588Z</time>
</trkpt>
<trkpt lat="31.8157300" lon="35.0266400">
<ele>338.850006</ele>
<time>2022-05-05T07:31:31.588Z</time>
</trkpt>
<trkpt lat="31.8158500" lon="35.0266700">
<ele>340.929993</ele>
<time>2022-05-05T07:31:31.588Z</time>
</trkpt>
<trkpt lat="31.8160000" lon="35.0267400">
<ele>340.860016</ele>
<time>2022-05-05T07:31:31.588Z</time>
</trkpt>
<trkpt lat="31.8162300" lon="35.0268900">
<ele>340.430023</ele>
<time>2022-05-05T07:31:31.588Z</time>
</trkpt>
<trkpt lat="31.8164400" lon="35.0271200">
<ele>336.010010</ele>
<time>2022-05-05T07:31:31.588Z</time>
</trkpt>
<trkpt lat="31.8167000" lon="35.0275500">
<ele>327.709991</ele>
<time>2022-05-05T07:31:31.588Z</time>
</trkpt>
<trkpt lat="31.8167500" lon="35.0276900">
<ele>324.089996</ele>
<time>2022-05-05T07:31:31.588Z</time>
</trkpt>
<trkpt lat="31.8167600" lon="35.0279000">
<ele>321.369995</ele>
<time>2022-05-05T07:31:31.588Z</time>
</trkpt>
<trkpt lat="31.8167100" lon="35.0282700">
<ele>319.450012</ele>
<time>2022-05-05T07:31:31.588Z</time>
</trkpt>
<trkpt lat="31.8166200" lon="35.0286100">
<ele>319.000000</ele>
<time>2022-05-05T07:31:31.588Z</time>
</trkpt>
<trkpt lat="31.8164500" lon="35.0293800">
<ele>313.630005</ele>
<time>2022-05-05T07:31:31.588Z</time>
</trkpt>
<trkpt lat="31.8163900" lon="35.0296200">
<ele>312.369995</ele>
<time>2022-05-05T07:31:31.588Z</time>
</trkpt>
<trkpt lat="31.8162700" lon="35.0298600">
<ele>310.010010</ele>
<time>2022-05-05T07:31:31.588Z</time>
</trkpt>
<trkpt lat="31.8160400" lon="35.0301700">
<ele>307.550018</ele>
<time>2022-05-05T07:31:31.588Z</time>
</trkpt>
<trkpt lat="31.8160100" lon="35.0302400">
<ele>307.600006</ele>
<time>2022-05-05T07:31:31.588Z</time>
</trkpt>
<trkpt lat="31.8160000" lon="35.0303200">
<ele>307.959991</ele>
<time>2022-05-05T07:31:31.588Z</time>
</trkpt>
<trkpt lat="31.8160400" lon="35.0304000">
<ele>308.739990</ele>
<time>2022-05-05T07:31:31.588Z</time>
</trkpt>
<trkpt lat="31.8161700" lon="35.0304400">
<ele>309.720001</ele>
<time>2022-05-05T07:31:31.588Z</time>
</trkpt>
<trkpt lat="31.8162900" lon="35.0304200">
<ele>310.639984</ele>
<time>2022-05-05T07:31:31.588Z</time>
</trkpt>
<trkpt lat="31.8165800" lon="35.0303200">
<ele>313.580017</ele>
<time>2022-05-05T07:31:31.588Z</time>
</trkpt>
<trkpt lat="31.8166700" lon="35.0303100">
<ele>314.910004</ele>
<time>2022-05-05T07:31:31.589Z</time>
</trkpt>
<trkpt lat="31.8168800" lon="35.0303400">
<ele>309.369995</ele>
<time>2022-05-05T07:31:31.589Z</time>
</trkpt>
<trkpt lat="31.8170400" lon="35.0304000">
<ele>306.639984</ele>
<time>2022-05-05T07:31:31.589Z</time>
</trkpt>
<trkpt lat="31.8171600" lon="35.0305000">
<ele>305.049988</ele>
<time>2022-05-05T07:31:31.589Z</time>
</trkpt>
<trkpt lat="31.8172600" lon="35.0306500">
<ele>305.720001</ele>
<time>2022-05-05T07:31:31.589Z</time>
</trkpt>
<trkpt lat="31.8173300" lon="35.0307900">
<ele>307.619995</ele>
<time>2022-05-05T07:31:31.589Z</time>
</trkpt>
<trkpt lat="31.8173800" lon="35.0308200">
<ele>307.919983</ele>
<time>2022-05-05T07:31:31.589Z</time>
</trkpt>
<trkpt lat="31.8174400" lon="35.0308200">
<ele>307.959991</ele>
<time>2022-05-05T07:31:31.589Z</time>
</trkpt>
<trkpt lat="31.8174800" lon="35.0308000">
<ele>307.970001</ele>
<time>2022-05-05T07:31:31.589Z</time>
</trkpt>
<trkpt lat="31.8175100" lon="35.0307500">
<ele>308.269989</ele>
<time>2022-05-05T07:31:31.589Z</time>
</trkpt>
<trkpt lat="31.8174700" lon="35.0306900">
<ele>307.779999</ele>
<time>2022-05-05T07:31:31.589Z</time>
</trkpt>
<trkpt lat="31.8173100" lon="35.0300400">
<ele>301.429993</ele>
<time>2022-05-05T07:31:31.589Z</time>
</trkpt>
<trkpt lat="31.8172600" lon="35.0297500">
<ele>295.440002</ele>
<time>2022-05-05T07:31:31.589Z</time>
</trkpt>
<trkpt lat="31.8172600" lon="35.0296100">
<ele>294.549988</ele>
<time>2022-05-05T07:31:31.589Z</time>
</trkpt>
<trkpt lat="31.8173100" lon="35.0292900">
<ele>294.679993</ele>
<time>2022-05-05T07:31:31.589Z</time>
</trkpt>
<trkpt lat="31.8174400" lon="35.0288000">
<ele>294.140015</ele>
<time>2022-05-05T07:31:31.589Z</time>
</trkpt>
<trkpt lat="31.8175200" lon="35.0283900">
<ele>291.609985</ele>
<time>2022-05-05T07:31:31.589Z</time>
</trkpt>
<trkpt lat="31.8179800" lon="35.0275000">
<ele>291.179993</ele>
<time>2022-05-05T07:31:31.589Z</time>
</trkpt>
<trkpt lat="31.8180600" lon="35.0272200">
<ele>291.160004</ele>
<time>2022-05-05T07:31:31.589Z</time>
</trkpt>
<trkpt lat="31.8181500" lon="35.0269600">
<ele>293.119995</ele>
<time>2022-05-05T07:31:31.589Z</time>
</trkpt>
<trkpt lat="31.8181700" lon="35.0264900">
<ele>289.229980</ele>
<time>2022-05-05T07:31:31.589Z</time>
</trkpt>
<trkpt lat="31.8180900" lon="35.0262300">
<ele>285.920013</ele>
<time>2022-05-05T07:31:31.589Z</time>
</trkpt>
<trkpt lat="31.8180800" lon="35.0260800">
<ele>284.399994</ele>
<time>2022-05-05T07:31:31.589Z</time>
</trkpt>
<trkpt lat="31.8180700" lon="35.0260900">
<ele>284.230011</ele>
<time>2022-05-05T07:31:31.590Z</time>
</trkpt>
</trkseg>
</trk>
</gpx>
